Time,TemperatureF,DewpointF,PressureIn,WindDirection,WindDirectionDegrees,WindSpeedMPH,WindSpeedGustMPH,Humidity,HourlyPrecipIn,Conditions,Clouds,dailyrainin,SoftwareType,DateUTC
2013-03-16 00:00:00,59.3,51.6,30.28,NNW,347,0.0,14.4,76,0.00,,---,0.00,VWS V14.01,2013-03-16 04:00:00,
2013-03-16 00:01:00,59.3,52.4,30.28,NNW,347,0.0,0.0,78,0.00,,---,0.00,VWS V14.01,2013-03-16 04:01:00,
2013-03-16 00:02:00,59.2,52.3,30.28,NW,304,1.6,1.6,78,0.00,,---,0.00,VWS V14.01,2013-03-16 04:02:00,
2013-03-16 00:03:00,59.2,52.3,30.28,North,354,0.0,1.6,78,0.00,,---,0.00,VWS V14.01,2013-03-16 04:03:00,
2013-03-16 00:04:00,59.2,52.4,30.28,North,354,0.0,1.9,78,0.00,,---,0.00,VWS V14.01,2013-03-16 04:04:00,
2013-03-16 00:05:00,59.3,51.8,30.28,NNW,347,0.0,0.0,76,0.00,,---,0.00,VWS V14.01,2013-03-16 04:05:00,
2013-03-16 00:06:00,59.1,52.3,30.28,NW,325,0.7,1.9,78,0.00,,---,0.00,VWS V14.01,2013-03-16 04:06:00,
2013-03-16 00:07:00,59.1,52.3,30.28,WNW,302,1.6,2.3,78,0.00,,---,0.00,VWS V14.01,2013-03-16 04:07:00,
2013-03-16 00:08:00,59.2,52.4,30.28,WNW,284,0.4,2.3,78,0.00,,---,0.00,VWS V14.01,2013-03-16 04:08:00,
2013-03-16 00:09:00,59.2,52.4,30.27,WNW,295,0.9,2.3,78,0.00,,---,0.00,VWS V14.01,2013-03-16 04:09:00,
2013-03-16 00:10:00,59.1,51.5,30.28,NNW,347,0.0,0.0,76,0.00,,---,0.00,VWS V14.01,2013-03-16 04:10:00,
2013-03-16 00:11:00,59.1,52.4,30.28,NW,321,0.9,2.3,78,0.00,,---,0.00,VWS V14.01,2013-03-16 04:11:00,
2013-03-16 00:12:00,59.1,52.4,30.28,NW,308,0.8,2.4,78,0.00,,---,0.00,VWS V14.01,2013-03-16 04:12:00,
2013-03-16 00:13:00,59.1,52.4,30.28,NW,321,0.2,2.4,78,0.00,,---,0.00,VWS V14.01,2013-03-16 04:13:00,
2013-03-16 00:14:00,59.1,52.4,30.28,NW,309,0.0,2.4,78,0.00,,---,0.00,VWS V14.01,2013-03-16 04:14:00,
2013-03-16 00:15:00,59.0,51.6,30.28,NNW,347,0.0,0.0,76,0.00,,---,0.00,VWS V14.01,2013-03-16 04:15:00,
2013-03-16 00:16:00,59.2,52.5,30.28,NW,321,0.9,2.5,78,0.00,,---,0.00,VWS V14.01,2013-03-16 04:16:00,
2013-03-16 00:17:00,59.1,52.4,30.28,WNW,295,0.0,2.5,78,0.00,,---,0.00,VWS V14.01,2013-03-16 04:17:00,
2013-03-16 00:18:00,59.0,52.4,30.28,WNW,295,0.0,2.5,79,0.00,,---,0.00,VWS V14.01,2013-03-16 04:18:00,
2013-03-16 00:19:00,59.1,52.5,30.27,NNW,333,0.4,2.5,79,0.00,,---,0.00,VWS V14.01,2013-03-16 04:19:00,
2013-03-16 00:20:00,58.9,51.6,30.28,NNW,347,0.9,0.9,77,0.00,,---,0.00,VWS V14.01,2013-03-16 04:20:00,
2013-03-16 00:21:00,59.2,52.6,30.27,NW,308,0.0,2.5,79,0.00,,---,0.00,VWS V14.01,2013-03-16 04:21:00,
2013-03-16 00:22:00,59.3,52.7,30.27,NW,308,0.0,2.5,79,0.00,,---,0.00,VWS V14.01,2013-03-16 04:22:00,
2013-03-16 00:23:00,59.1,52.5,30.27,NW,308,0.0,2.5,79,0.00,,---,0.00,VWS V14.01,2013-03-16 04:23:00,
2013-03-16 00:24:00,59.1,52.5,30.27,NW,308,0.0,2.5,79,0.00,,---,0.00,VWS V14.01,2013-03-16 04:24:00,
2013-03-16 00:25:00,59.0,51.9,30.28,NW,325,0.0,0.0,77,0.00,,---,0.00,VWS V14.01,2013-03-16 04:25:00,
2013-03-16 00:26:00,59.1,52.5,30.27,NW,308,0.0,2.5,79,0.00,,---,0.00,VWS V14.01,2013-03-16 04:26:00,
2013-03-16 00:27:00,59.0,52.5,30.27,NW,308,0.0,2.5,79,0.00,,---,0.00,VWS V14.01,2013-03-16 04:27:00,
2013-03-16 00:28:00,58.9,52.4,30.27,NW,308,0.0,2.5,79,0.00,,---,0.00,VWS V14.01,2013-03-16 04:28:00,
2013-03-16 00:29:00,59.0,52.5,30.27,NW,308,0.0,2.5,79,0.00,,---,0.00,VWS V14.01,2013-03-16 04:29:00,
2013-03-16 00:30:00,59.0,52.0,30.28,NW,314,1.2,1.4,78,0.00,,---,0.00,VWS V14.01,2013-03-16 04:30:00,
2013-03-16 00:31:00,59.0,52.0,30.28,NNE,20,0.0,0.6,78,0.00,,---,0.00,VWS V14.01,2013-03-16 04:31:00,
2013-03-16 00:32:00,59.0,52.6,30.27,NW,308,0.0,2.5,79,0.00,,---,0.00,VWS V14.01,2013-03-16 04:32:00,
2013-03-16 00:33:00,59.0,52.6,30.27,NW,308,0.0,2.5,79,0.00,,---,0.00,VWS V14.01,2013-03-16 04:33:00,
2013-03-16 00:34:00,59.0,52.6,30.27,NW,308,0.0,2.5,79,0.00,,---,0.00,VWS V14.01,2013-03-16 04:34:00,
2013-03-16 00:35:00,59.2,52.3,30.28,NW,322,0.0,0.0,78,0.00,,---,0.00,VWS V14.01,2013-03-16 04:35:00,
2013-03-16 00:36:00,59.1,52.2,30.28,NW,322,0.0,0.0,78,0.00,,---,0.00,VWS V14.01,2013-03-16 04:36:00,
2013-03-16 00:37:00,58.9,52.5,30.28,NW,308,0.0,2.5,79,0.00,,---,0.00,VWS V14.01,2013-03-16 04:37:00,
2013-03-16 00:38:00,59.0,52.7,30.27,NW,308,0.0,2.5,80,0.00,,---,0.00,VWS V14.01,2013-03-16 04:38:00,
2013-03-16 00:39:00,58.8,52.5,30.28,NW,308,0.0,2.5,80,0.00,,---,0.00,VWS V14.01,2013-03-16 04:39:00,
2013-03-16 00:40:00,59.2,52.5,30.28,NW,312,3.2,3.2,78,0.00,,---,0.00,VWS V14.01,2013-03-16 04:40:00,
2013-03-16 00:41:00,59.3,52.5,30.28,NNW,330,1.6,2.3,78,0.00,,---,0.00,VWS V14.01,2013-03-16 04:41:00,
2013-03-16 00:42:00,59.0,52.8,30.27,NW,308,0.0,2.5,80,0.00,,---,0.00,VWS V14.01,2013-03-16 04:42:00,
2013-03-16 00:43:00,59.0,52.8,30.27,NW,308,0.0,2.5,80,0.00,,---,0.00,VWS V14.01,2013-03-16 04:43:00,
2013-03-16 00:44:00,59.1,52.8,30.27,NW,308,0.0,2.5,80,0.00,,---,0.00,VWS V14.01,2013-03-16 04:44:00,
2013-03-16 00:45:00,58.9,52.7,30.27,NW,308,0.0,2.5,80,0.00,,---,0.00,VWS V14.01,2013-03-16 04:45:00,
2013-03-16 00:46:00,58.9,52.7,30.27,NW,308,0.0,2.5,80,0.00,,---,0.00,VWS V14.01,2013-03-16 04:46:00,
2013-03-16 00:47:00,59.0,52.8,30.27,NW,308,0.0,2.5,80,0.00,,---,0.00,VWS V14.01,2013-03-16 04:47:00,
2013-03-16 00:48:00,59.0,52.8,30.27,NW,308,0.0,2.5,80,0.00,,---,0.00,VWS V14.01,2013-03-16 04:48:00,
2013-03-16 00:49:00,58.9,52.7,30.27,NW,308,0.0,2.5,80,0.00,,---,0.00,VWS V14.01,2013-03-16 04:49:00,
2013-03-16 00:50:00,58.9,52.7,30.27,NW,308,0.0,2.5,80,0.00,,---,0.00,VWS V14.01,2013-03-16 04:50:00,
2013-03-16 00:51:00,58.8,52.7,30.27,NW,308,0.0,2.5,80,0.00,,---,0.00,VWS V14.01,2013-03-16 04:51:00,
2013-03-16 00:52:00,58.9,52.7,30.27,NW,308,0.0,2.5,80,0.00,,---,0.00,VWS V14.01,2013-03-16 04:52:00,
2013-03-16 00:53:00,58.9,52.8,30.27,NW,308,0.0,2.5,80,0.00,,---,0.00,VWS V14.01,2013-03-16 04:53:00,
2013-03-16 00:54:00,58.8,52.7,30.27,NW,308,0.0,2.5,80,0.00,,---,0.00,VWS V14.01,2013-03-16 04:54:00,
2013-03-16 00:55:00,58.8,52.7,30.27,NW,308,0.0,2.5,80,0.00,,---,0.00,VWS V14.01,2013-03-16 04:55:00,
2013-03-16 00:56:00,58.9,52.8,30.27,NW,308,0.0,2.5,80,0.00,,---,0.00,VWS V14.01,2013-03-16 04:56:00,
2013-03-16 00:57:00,58.9,52.8,30.27,NW,308,0.0,2.5,80,0.00,,---,0.00,VWS V14.01,2013-03-16 04:57:00,
2013-03-16 00:58:00,58.9,52.8,30.27,NW,308,0.0,2.5,80,0.00,,---,0.00,VWS V14.01,2013-03-16 04:58:00,
2013-03-16 00:59:00,58.7,52.6,30.27,NW,308,0.0,2.5,80,0.00,,---,0.00,VWS V14.01,2013-03-16 04:59:00,
2013-03-16 01:00:00,58.9,52.8,30.27,NW,308,0.0,2.5,80,0.00,,---,0.00,VWS V14.01,2013-03-16 05:00:00,
2013-03-16 01:01:00,58.8,52.8,30.27,NW,308,0.0,2.5,80,0.00,,---,0.00,VWS V14.01,2013-03-16 05:01:00,
2013-03-16 01:02:00,58.8,52.8,30.27,NW,308,0.0,2.5,80,0.00,,---,0.00,VWS V14.01,2013-03-16 05:02:00,
2013-03-16 01:03:00,58.6,52.6,30.27,NW,308,0.0,2.5,80,0.00,,---,0.00,VWS V14.01,2013-03-16 05:03:00,
2013-03-16 01:04:00,58.8,52.8,30.27,NW,308,0.0,2.5,80,0.00,,---,0.00,VWS V14.01,2013-03-16 05:04:00,
2013-03-16 01:05:00,58.6,52.7,30.27,NW,308,0.0,2.5,81,0.00,,---,0.00,VWS V14.01,2013-03-16 05:05:00,
2013-03-16 01:06:00,58.8,52.9,30.27,NW,308,0.0,2.5,81,0.00,,---,0.00,VWS V14.01,2013-03-16 05:06:00,
2013-03-16 01:07:00,58.9,53.0,30.27,NNW,333,2.0,2.5,81,0.00,,---,0.00,VWS V14.01,2013-03-16 05:07:00,
2013-03-16 01:08:00,58.8,53.0,30.27,NNW,336,1.6,2.5,81,0.00,,---,0.00,VWS V14.01,2013-03-16 05:08:00,
2013-03-16 01:09:00,58.8,53.1,30.27,NW,326,2.1,2.7,81,0.00,,---,0.00,VWS V14.01,2013-03-16 05:09:00,
2013-03-16 01:10:00,58.8,53.1,30.27,NNW,342,1.6,2.7,81,0.00,,---,0.00,VWS V14.01,2013-03-16 05:10:00,
2013-03-16 01:11:00,58.8,53.1,30.27,NNW,340,0.0,2.7,81,0.00,,---,0.00,VWS V14.01,2013-03-16 05:11:00,
2013-03-16 01:12:00,58.8,53.1,30.27,NNW,340,0.0,2.7,81,0.00,,---,0.00,VWS V14.01,2013-03-16 05:12:00,
2013-03-16 01:13:00,58.9,53.2,30.27,NNW,340,0.0,2.7,81,0.00,,---,0.00,VWS V14.01,2013-03-16 05:13:00,
2013-03-16 01:14:00,58.9,53.3,30.27,NNW,340,0.0,2.7,82,0.00,,---,0.00,VWS V14.01,2013-03-16 05:14:00,
2013-03-16 01:15:00,58.9,53.3,30.27,NNW,340,0.0,2.7,82,0.00,,---,0.00,VWS V14.01,2013-03-16 05:15:00,
2013-03-16 01:16:00,58.9,53.3,30.26,NNW,340,0.0,2.7,82,0.00,,---,0.00,VWS V14.01,2013-03-16 05:16:00,
2013-03-16 01:17:00,58.8,53.2,30.27,NNW,340,0.0,2.7,82,0.00,,---,0.00,VWS V14.01,2013-03-16 05:17:00,
2013-03-16 01:18:00,59.0,53.4,30.27,NNW,340,0.0,2.7,82,0.00,,---,0.00,VWS V14.01,2013-03-16 05:18:00,
2013-03-16 01:19:00,58.8,53.2,30.27,NNW,340,0.0,2.7,82,0.00,,---,0.00,VWS V14.01,2013-03-16 05:19:00,
2013-03-16 01:20:00,58.7,53.1,30.27,NNW,329,1.0,2.7,82,0.00,,---,0.00,VWS V14.01,2013-03-16 05:20:00,
2013-03-16 01:21:00,58.8,53.2,30.27,NNE,31,0.0,2.7,82,0.00,,---,0.00,VWS V14.01,2013-03-16 05:21:00,
2013-03-16 01:22:00,58.9,53.4,30.26,NNE,20,1.1,2.7,82,0.00,,---,0.00,VWS V14.01,2013-03-16 05:22:00,
2013-03-16 01:23:00,58.9,53.4,30.27,NNW,335,0.0,2.7,82,0.00,,---,0.00,VWS V14.01,2013-03-16 05:23:00,
2013-03-16 01:24:00,58.8,53.3,30.27,NNW,346,1.3,2.7,82,0.00,,---,0.00,VWS V14.01,2013-03-16 05:24:00,
2013-03-16 01:25:00,58.8,53.3,30.27,North,0,0.0,2.7,82,0.00,,---,0.00,VWS V14.01,2013-03-16 05:25:00,
2013-03-16 01:26:00,58.8,53.3,30.27,NW,308,1.1,2.7,82,0.00,,---,0.00,VWS V14.01,2013-03-16 05:26:00,
2013-03-16 01:27:00,58.8,53.4,30.27,North,349,1.2,2.7,82,0.00,,---,0.00,VWS V14.01,2013-03-16 05:27:00,
2013-03-16 01:28:00,58.9,53.4,30.27,NNE,20,0.5,2.7,82,0.00,,---,0.00,VWS V14.01,2013-03-16 05:28:00,
2013-03-16 01:29:00,58.8,53.4,30.26,NNE,20,0.0,2.7,82,0.00,,---,0.00,VWS V14.01,2013-03-16 05:29:00,
2013-03-16 01:30:00,58.7,53.3,30.26,North,350,1.5,2.7,82,0.00,,---,0.00,VWS V14.01,2013-03-16 05:30:00,
2013-03-16 01:31:00,58.8,53.4,30.26,NNW,336,0.0,2.7,82,0.00,,---,0.00,VWS V14.01,2013-03-16 05:31:00,
2013-03-16 01:32:00,58.8,53.4,30.26,NNW,332,0.6,2.9,82,0.00,,---,0.00,VWS V14.01,2013-03-16 05:32:00,
2013-03-16 01:33:00,58.7,53.3,30.26,NNW,332,0.0,2.9,82,0.00,,---,0.00,VWS V14.01,2013-03-16 05:33:00,
2013-03-16 01:34:00,58.7,53.3,30.26,NW,318,1.2,4.0,82,0.00,,---,0.00,VWS V14.01,2013-03-16 05:34:00,
2013-03-16 01:35:00,58.7,53.3,30.26,WNW,284,0.0,4.0,82,0.00,,---,0.00,VWS V14.01,2013-03-16 05:35:00,
2013-03-16 01:36:00,58.7,53.3,30.26,WNW,284,0.0,4.0,82,0.00,,---,0.00,VWS V14.01,2013-03-16 05:36:00,
2013-03-16 01:37:00,58.7,53.3,30.26,WNW,284,0.0,4.0,82,0.00,,---,0.00,VWS V14.01,2013-03-16 05:37:00,
2013-03-16 01:38:00,58.6,53.3,30.26,WNW,284,0.0,4.0,82,0.00,,---,0.00,VWS V14.01,2013-03-16 05:38:00,
2013-03-16 01:39:00,58.7,53.4,30.26,NNE,25,0.0,4.0,82,0.00,,---,0.00,VWS V14.01,2013-03-16 05:39:00,
2013-03-16 01:40:00,58.7,53.4,30.26,NNE,28,0.3,4.0,82,0.00,,---,0.00,VWS V14.01,2013-03-16 05:40:00,
2013-03-16 01:41:00,58.7,53.4,30.26,North,357,0.0,4.0,82,0.00,,---,0.00,VWS V14.01,2013-03-16 05:41:00,
2013-03-16 01:42:00,58.6,53.3,30.26,North,357,0.0,4.0,83,0.00,,---,0.00,VWS V14.01,2013-03-16 05:42:00,
2013-03-16 01:43:00,58.6,53.3,30.26,North,357,0.0,4.0,83,0.00,,---,0.00,VWS V14.01,2013-03-16 05:43:00,
2013-03-16 01:44:00,58.7,53.4,30.26,NNW,330,0.6,4.0,83,0.00,,---,0.00,VWS V14.01,2013-03-16 05:44:00,
2013-03-16 01:45:00,58.6,53.3,30.26,NE,46,0.0,4.0,83,0.00,,---,0.00,VWS V14.01,2013-03-16 05:45:00,
2013-03-16 01:46:00,58.7,53.4,30.26,NE,46,1.2,4.0,82,0.00,,---,0.00,VWS V14.01,2013-03-16 05:46:00,
2013-03-16 01:47:00,58.4,53.1,30.26,WNW,290,1.7,4.0,83,0.00,,---,0.00,VWS V14.01,2013-03-16 05:47:00,
2013-03-16 01:48:00,58.6,53.4,30.26,NNW,328,0.0,4.0,83,0.00,,---,0.00,VWS V14.01,2013-03-16 05:48:00,
2013-03-16 01:49:00,58.7,53.4,30.26,North,359,0.6,4.0,83,0.00,,---,0.00,VWS V14.01,2013-03-16 05:49:00,
2013-03-16 01:50:00,58.4,53.1,30.26,North,353,1.4,4.0,83,0.00,,---,0.00,VWS V14.01,2013-03-16 05:50:00,
2013-03-16 01:51:00,58.6,53.4,30.25,NNW,343,0.0,4.0,83,0.00,,---,0.00,VWS V14.01,2013-03-16 05:51:00,
2013-03-16 01:52:00,58.4,53.2,30.25,NNW,338,0.5,4.0,83,0.00,,---,0.00,VWS V14.01,2013-03-16 05:52:00,
2013-03-16 01:53:00,58.5,53.3,30.25,NW,315,0.9,4.0,83,0.00,,---,0.00,VWS V14.01,2013-03-16 05:53:00,
2013-03-16 01:54:00,58.4,53.2,30.25,NW,316,1.4,4.0,83,0.00,,---,0.00,VWS V14.01,2013-03-16 05:54:00,
2013-03-16 01:55:00,58.6,53.4,30.26,North,353,0.0,4.0,83,0.00,,---,0.00,VWS V14.01,2013-03-16 05:55:00,
2013-03-16 01:56:00,58.5,53.3,30.25,North,353,0.0,4.0,83,0.00,,---,0.00,VWS V14.01,2013-03-16 05:56:00,
2013-03-16 01:57:00,58.5,53.3,30.25,North,353,0.0,4.0,83,0.00,,---,0.00,VWS V14.01,2013-03-16 05:57:00,
2013-03-16 01:58:00,58.5,53.3,30.25,North,353,0.0,4.0,83,0.00,,---,0.00,VWS V14.01,2013-03-16 05:58:00,
2013-03-16 01:59:00,58.4,53.2,30.25,North,353,0.0,4.0,83,0.00,,---,0.00,VWS V14.01,2013-03-16 05:59:00,
2013-03-16 02:00:00,58.4,53.2,30.25,North,353,0.0,4.0,83,0.00,,---,0.00,VWS V14.01,2013-03-16 06:00:00,
2013-03-16 02:01:00,58.3,53.1,30.25,North,353,0.0,4.0,83,0.00,,---,0.00,VWS V14.01,2013-03-16 06:01:00,
2013-03-16 02:02:00,58.2,53.0,30.25,North,353,0.0,4.0,83,0.00,,---,0.00,VWS V14.01,2013-03-16 06:02:00,
2013-03-16 02:03:00,58.3,53.1,30.25,North,353,0.0,4.0,83,0.00,,---,0.00,VWS V14.01,2013-03-16 06:03:00,
2013-03-16 02:04:00,58.1,52.9,30.25,North,353,0.0,4.0,83,0.00,,---,0.00,VWS V14.01,2013-03-16 06:04:00,
2013-03-16 02:05:00,58.2,53.0,30.25,North,350,2.8,4.0,83,0.00,,---,0.00,VWS V14.01,2013-03-16 06:05:00,
2013-03-16 02:06:00,58.1,53.0,30.25,NW,325,2.5,4.0,83,0.00,,---,0.00,VWS V14.01,2013-03-16 06:06:00,
2013-03-16 02:07:00,58.0,52.9,30.25,NNW,335,1.0,4.0,83,0.00,,---,0.00,VWS V14.01,2013-03-16 06:07:00,
2013-03-16 02:08:00,58.2,53.1,30.25,NNW,333,0.0,4.0,83,0.00,,---,0.00,VWS V14.01,2013-03-16 06:08:00,
2013-03-16 02:09:00,58.1,53.0,30.25,North,1,0.7,4.0,83,0.00,,---,0.00,VWS V14.01,2013-03-16 06:09:00,
2013-03-16 02:10:00,58.0,53.0,30.25,NNW,333,0.0,4.0,83,0.00,,---,0.00,VWS V14.01,2013-03-16 06:10:00,
2013-03-16 02:11:00,58.2,53.2,30.26,NNW,343,2.3,4.0,83,0.00,,---,0.00,VWS V14.01,2013-03-16 06:11:00,
2013-03-16 02:12:00,58.0,53.0,30.25,NE,46,1.1,4.0,83,0.00,,---,0.00,VWS V14.01,2013-03-16 06:12:00,
2013-03-16 02:13:00,58.1,53.1,30.25,NW,315,1.0,4.0,83,0.00,,---,0.00,VWS V14.01,2013-03-16 06:13:00,
2013-03-16 02:14:00,58.1,53.1,30.25,NW,315,0.0,4.0,83,0.00,,---,0.00,VWS V14.01,2013-03-16 06:14:00,
2013-03-16 02:15:00,58.1,53.1,30.25,NW,315,0.0,4.0,83,0.00,,---,0.00,VWS V14.01,2013-03-16 06:15:00,
2013-03-16 02:16:00,58.0,53.0,30.25,NNE,21,0.0,4.0,83,0.00,,---,0.00,VWS V14.01,2013-03-16 06:16:00,
2013-03-16 02:17:00,58.0,53.0,30.25,NW,322,1.7,4.0,83,0.00,,---,0.00,VWS V14.01,2013-03-16 06:17:00,
2013-03-16 02:18:00,58.0,53.0,30.25,NNW,335,0.0,4.0,83,0.00,,---,0.00,VWS V14.01,2013-03-16 06:18:00,
2013-03-16 02:19:00,58.2,53.2,30.25,NNW,346,2.3,4.0,83,0.00,,---,0.00,VWS V14.01,2013-03-16 06:19:00,
2013-03-16 02:20:00,58.1,53.1,30.25,NW,322,0.0,4.0,83,0.00,,---,0.00,VWS V14.01,2013-03-16 06:20:00,
2013-03-16 02:21:00,58.0,53.0,30.25,North,357,0.0,4.0,84,0.00,,---,0.00,VWS V14.01,2013-03-16 06:21:00,
2013-03-16 02:22:00,58.0,53.0,30.25,North,357,0.0,4.0,83,0.00,,---,0.00,VWS V14.01,2013-03-16 06:22:00,
2013-03-16 02:23:00,57.9,52.9,30.25,North,357,0.0,4.0,83,0.00,,---,0.00,VWS V14.01,2013-03-16 06:23:00,
2013-03-16 02:24:00,57.9,52.9,30.25,North,357,0.0,4.0,83,0.00,,---,0.00,VWS V14.01,2013-03-16 06:24:00,
2013-03-16 02:25:00,57.9,52.9,30.25,North,357,0.0,4.0,83,0.00,,---,0.00,VWS V14.01,2013-03-16 06:25:00,
2013-03-16 02:26:00,58.0,53.0,30.25,North,357,0.0,4.0,83,0.00,,---,0.00,VWS V14.01,2013-03-16 06:26:00,
2013-03-16 02:27:00,57.9,52.9,30.25,North,357,0.0,4.0,84,0.00,,---,0.00,VWS V14.01,2013-03-16 06:27:00,
2013-03-16 02:28:00,57.7,52.7,30.25,North,357,0.0,4.0,84,0.00,,---,0.00,VWS V14.01,2013-03-16 06:28:00,
2013-03-16 02:29:00,57.8,52.9,30.25,North,357,0.0,4.0,84,0.00,,---,0.00,VWS V14.01,2013-03-16 06:29:00,
2013-03-16 02:30:00,57.8,52.9,30.25,North,357,0.0,4.0,84,0.00,,---,0.00,VWS V14.01,2013-03-16 06:30:00,
2013-03-16 02:31:00,57.8,52.9,30.25,North,357,0.0,4.0,84,0.00,,---,0.00,VWS V14.01,2013-03-16 06:31:00,
2013-03-16 02:32:00,57.7,52.8,30.25,North,357,0.0,4.0,84,0.00,,---,0.00,VWS V14.01,2013-03-16 06:32:00,
2013-03-16 02:33:00,57.6,52.7,30.25,North,349,0.4,4.0,84,0.00,,---,0.00,VWS V14.01,2013-03-16 06:33:00,
2013-03-16 02:34:00,57.8,52.9,30.25,North,349,0.0,4.0,84,0.00,,---,0.00,VWS V14.01,2013-03-16 06:34:00,
2013-03-16 02:35:00,57.7,52.9,30.25,North,349,0.0,4.0,84,0.00,,---,0.00,VWS V14.01,2013-03-16 06:35:00,
2013-03-16 02:36:00,57.6,52.8,30.25,NW,326,0.7,4.0,84,0.00,,---,0.00,VWS V14.01,2013-03-16 06:36:00,
2013-03-16 02:37:00,57.9,53.1,30.25,NNW,347,1.1,4.0,84,0.00,,---,0.00,VWS V14.01,2013-03-16 06:37:00,
2013-03-16 02:38:00,57.9,53.2,30.25,NNE,15,0.9,4.0,84,0.00,,---,0.00,VWS V14.01,2013-03-16 06:38:00,
2013-03-16 02:39:00,57.7,53.0,30.25,WNW,298,0.0,4.0,84,0.00,,---,0.00,VWS V14.01,2013-03-16 06:39:00,
2013-03-16 02:40:00,57.8,53.1,30.25,North,354,0.7,4.0,84,0.00,,---,0.00,VWS V14.01,2013-03-16 06:40:00,
2013-03-16 02:41:00,57.9,53.2,30.25,North,4,1.4,4.0,84,0.00,,---,0.00,VWS V14.01,2013-03-16 06:41:00,
2013-03-16 02:42:00,57.7,53.0,30.25,NW,305,0.9,4.0,84,0.00,,---,0.00,VWS V14.01,2013-03-16 06:42:00,
2013-03-16 02:43:00,57.8,53.1,30.25,NNE,32,1.2,4.0,84,0.00,,---,0.00,VWS V14.01,2013-03-16 06:43:00,
2013-03-16 02:44:00,57.7,53.0,30.25,NNE,32,0.0,4.0,84,0.00,,---,0.00,VWS V14.01,2013-03-16 06:44:00,
2013-03-16 02:45:00,57.7,53.0,30.25,North,7,0.4,4.0,84,0.00,,---,0.00,VWS V14.01,2013-03-16 06:45:00,
2013-03-16 02:46:00,57.9,53.2,30.25,North,7,0.0,4.0,84,0.00,,---,0.00,VWS V14.01,2013-03-16 06:46:00,
2013-03-16 02:47:00,57.8,53.1,30.25,West,273,0.0,4.0,84,0.00,,---,0.00,VWS V14.01,2013-03-16 06:47:00,
2013-03-16 02:48:00,57.7,53.0,30.25,West,273,0.0,4.0,84,0.00,,---,0.00,VWS V14.01,2013-03-16 06:48:00,
2013-03-16 02:49:00,57.8,53.1,30.25,West,273,0.0,4.0,84,0.00,,---,0.00,VWS V14.01,2013-03-16 06:49:00,
2013-03-16 02:50:00,57.7,53.0,30.25,West,273,0.0,4.0,84,0.00,,---,0.00,VWS V14.01,2013-03-16 06:50:00,
2013-03-16 02:51:00,57.7,53.0,30.25,West,273,0.0,4.0,84,0.00,,---,0.00,VWS V14.01,2013-03-16 06:51:00,
2013-03-16 02:52:00,57.7,53.0,30.25,West,273,0.0,4.0,84,0.00,,---,0.00,VWS V14.01,2013-03-16 06:52:00,
2013-03-16 02:53:00,57.8,53.1,30.25,West,273,0.0,4.0,84,0.00,,---,0.00,VWS V14.01,2013-03-16 06:53:00,
2013-03-16 02:54:00,57.6,52.9,30.25,West,273,0.0,4.0,84,0.00,,---,0.00,VWS V14.01,2013-03-16 06:54:00,
2013-03-16 02:55:00,57.7,53.0,30.25,West,273,0.0,4.0,84,0.00,,---,0.00,VWS V14.01,2013-03-16 06:55:00,
2013-03-16 02:56:00,57.4,52.7,30.25,West,273,0.0,4.0,84,0.00,,---,0.00,VWS V14.01,2013-03-16 06:56:00,
2013-03-16 02:57:00,57.4,52.7,30.25,West,273,0.0,4.0,84,0.00,,---,0.00,VWS V14.01,2013-03-16 06:57:00,
2013-03-16 02:58:00,57.5,52.8,30.24,West,273,0.0,4.0,84,0.00,,---,0.00,VWS V14.01,2013-03-16 06:58:00,
2013-03-16 02:59:00,57.3,52.7,30.24,WNW,284,0.6,4.0,84,0.00,,---,0.00,VWS V14.01,2013-03-16 06:59:00,
2013-03-16 03:00:00,57.2,52.6,30.24,WNW,284,0.0,4.0,85,0.00,,---,0.00,VWS V14.01,2013-03-16 07:00:00,
2013-03-16 03:01:00,57.3,52.8,30.24,West,271,1.6,4.0,85,0.00,,---,0.00,VWS V14.01,2013-03-16 07:01:00,
2013-03-16 03:02:00,57.3,52.8,30.24,WSW,257,0.0,4.0,85,0.00,,---,0.00,VWS V14.01,2013-03-16 07:02:00,
2013-03-16 03:03:00,57.2,52.7,30.25,WSW,257,0.0,4.0,85,0.00,,---,0.00,VWS V14.01,2013-03-16 07:03:00,
2013-03-16 03:04:00,57.2,52.7,30.25,WSW,257,0.0,4.0,85,0.00,,---,0.00,VWS V14.01,2013-03-16 07:04:00,
2013-03-16 03:05:00,57.1,52.6,30.25,WSW,257,0.0,4.0,85,0.00,,---,0.00,VWS V14.01,2013-03-16 07:05:00,
2013-03-16 03:06:00,57.1,52.6,30.24,WSW,257,0.0,4.0,85,0.00,,---,0.00,VWS V14.01,2013-03-16 07:06:00,
2013-03-16 03:07:00,57.2,52.7,30.25,WSW,257,0.0,4.0,85,0.00,,---,0.00,VWS V14.01,2013-03-16 07:07:00,
2013-03-16 03:08:00,57.0,52.5,30.24,WSW,257,0.0,4.0,85,0.00,,---,0.00,VWS V14.01,2013-03-16 07:08:00,
2013-03-16 03:09:00,57.1,52.6,30.24,WSW,257,0.0,4.0,85,0.00,,---,0.00,VWS V14.01,2013-03-16 07:09:00,
2013-03-16 03:10:00,57.0,52.5,30.24,WSW,257,0.0,4.0,85,0.00,,---,0.00,VWS V14.01,2013-03-16 07:10:00,
2013-03-16 03:11:00,57.0,52.6,30.24,WSW,257,0.0,4.0,85,0.00,,---,0.00,VWS V14.01,2013-03-16 07:11:00,
2013-03-16 03:12:00,57.0,52.6,30.24,WSW,257,0.0,4.0,85,0.00,,---,0.00,VWS V14.01,2013-03-16 07:12:00,
2013-03-16 03:13:00,56.8,52.4,30.25,WSW,257,0.0,4.0,85,0.00,,---,0.00,VWS V14.01,2013-03-16 07:13:00,
2013-03-16 03:14:00,56.9,52.5,30.25,WSW,257,0.0,4.0,85,0.00,,---,0.00,VWS V14.01,2013-03-16 07:14:00,
2013-03-16 03:15:00,57.0,52.6,30.24,WSW,257,0.0,4.0,85,0.00,,---,0.00,VWS V14.01,2013-03-16 07:15:00,
2013-03-16 03:16:00,56.8,52.4,30.24,WSW,257,0.0,4.0,85,0.00,,---,0.00,VWS V14.01,2013-03-16 07:16:00,
2013-03-16 03:17:00,56.8,52.4,30.24,WSW,257,0.0,4.0,85,0.00,,---,0.00,VWS V14.01,2013-03-16 07:17:00,
2013-03-16 03:18:00,56.8,52.4,30.24,WSW,257,0.0,4.0,85,0.00,,---,0.00,VWS V14.01,2013-03-16 07:18:00,
2013-03-16 03:19:00,56.9,52.6,30.24,WSW,257,0.0,4.0,85,0.00,,---,0.00,VWS V14.01,2013-03-16 07:19:00,
2013-03-16 03:20:00,56.8,52.5,30.24,WSW,257,0.0,4.0,85,0.00,,---,0.00,VWS V14.01,2013-03-16 07:20:00,
2013-03-16 03:21:00,56.8,52.5,30.24,WSW,257,0.0,4.0,86,0.00,,---,0.00,VWS V14.01,2013-03-16 07:21:00,
2013-03-16 03:22:00,56.9,52.6,30.24,WSW,257,0.0,4.0,86,0.00,,---,0.00,VWS V14.01,2013-03-16 07:22:00,
2013-03-16 03:23:00,56.7,52.4,30.24,WSW,257,0.0,4.0,86,0.00,,---,0.00,VWS V14.01,2013-03-16 07:23:00,
2013-03-16 03:24:00,56.8,52.5,30.24,WSW,257,0.0,4.0,86,0.00,,---,0.00,VWS V14.01,2013-03-16 07:24:00,
2013-03-16 03:25:00,56.8,52.6,30.24,WSW,257,0.0,4.0,86,0.00,,---,0.00,VWS V14.01,2013-03-16 07:25:00,
2013-03-16 03:26:00,56.7,52.5,30.24,WSW,257,0.0,4.0,86,0.00,,---,0.00,VWS V14.01,2013-03-16 07:26:00,
2013-03-16 03:27:00,56.6,52.4,30.24,WSW,257,0.0,4.0,86,0.00,,---,0.00,VWS V14.01,2013-03-16 07:27:00,
2013-03-16 03:28:00,56.7,52.5,30.24,WSW,257,0.0,4.0,86,0.00,,---,0.00,VWS V14.01,2013-03-16 07:28:00,
2013-03-16 03:29:00,56.7,52.5,30.24,WSW,257,0.0,4.0,86,0.00,,---,0.00,VWS V14.01,2013-03-16 07:29:00,
2013-03-16 03:30:00,56.7,52.5,30.24,WSW,257,0.0,4.0,86,0.00,,---,0.00,VWS V14.01,2013-03-16 07:30:00,
2013-03-16 03:31:00,56.6,52.4,30.24,WSW,257,0.0,4.0,86,0.00,,---,0.00,VWS V14.01,2013-03-16 07:31:00,
2013-03-16 03:32:00,56.5,52.3,30.24,West,280,0.7,4.0,86,0.00,,---,0.00,VWS V14.01,2013-03-16 07:32:00,
2013-03-16 03:33:00,56.6,52.4,30.24,WNW,295,0.0,4.0,86,0.00,,---,0.00,VWS V14.01,2013-03-16 07:33:00,
2013-03-16 03:34:00,56.5,52.3,30.24,WNW,295,0.0,4.0,86,0.00,,---,0.00,VWS V14.01,2013-03-16 07:34:00,
2013-03-16 03:35:00,56.5,52.4,30.24,WNW,295,0.0,4.0,86,0.00,,---,0.00,VWS V14.01,2013-03-16 07:35:00,
2013-03-16 03:36:00,56.5,52.4,30.24,WNW,283,0.5,4.0,86,0.00,,---,0.00,VWS V14.01,2013-03-16 07:36:00,
2013-03-16 03:37:00,56.4,52.3,30.24,WNW,300,0.0,4.0,86,0.00,,---,0.00,VWS V14.01,2013-03-16 07:37:00,
2013-03-16 03:38:00,56.4,52.3,30.24,West,273,0.0,4.0,86,0.00,,---,0.00,VWS V14.01,2013-03-16 07:38:00,
2013-03-16 03:39:00,56.3,52.2,30.24,West,273,0.0,4.0,86,0.00,,---,0.00,VWS V14.01,2013-03-16 07:39:00,
2013-03-16 03:40:00,56.4,52.3,30.24,WNW,295,0.6,4.0,86,0.00,,---,0.00,VWS V14.01,2013-03-16 07:40:00,
2013-03-16 03:41:00,56.4,52.3,30.24,NNW,342,1.1,4.0,86,0.00,,---,0.00,VWS V14.01,2013-03-16 07:41:00,
2013-03-16 03:42:00,56.4,52.4,30.24,WNW,301,1.2,4.0,86,0.00,,---,0.00,VWS V14.01,2013-03-16 07:42:00,
2013-03-16 03:43:00,56.4,52.4,30.24,NW,308,2.1,4.0,86,0.00,,---,0.00,VWS V14.01,2013-03-16 07:43:00,
2013-03-16 03:44:00,56.3,52.3,30.24,NW,312,1.1,4.0,86,0.00,,---,0.00,VWS V14.01,2013-03-16 07:44:00,
2013-03-16 03:45:00,56.5,52.5,30.24,NW,307,0.4,4.0,86,0.00,,---,0.00,VWS V14.01,2013-03-16 07:45:00,
2013-03-16 03:46:00,56.5,52.5,30.24,NW,326,0.0,4.0,86,0.00,,---,0.00,VWS V14.01,2013-03-16 07:46:00,
2013-03-16 03:47:00,56.5,52.5,30.24,NW,326,0.0,4.0,86,0.00,,---,0.00,VWS V14.01,2013-03-16 07:47:00,
2013-03-16 03:48:00,56.5,52.5,30.24,NW,326,0.0,4.0,86,0.00,,---,0.00,VWS V14.01,2013-03-16 07:48:00,
2013-03-16 03:49:00,56.4,52.3,30.24,NW,326,0.0,4.0,86,0.00,,---,0.00,VWS V14.01,2013-03-16 07:49:00,
2013-03-16 03:50:00,56.4,52.3,30.24,NW,326,0.0,4.0,86,0.00,,---,0.00,VWS V14.01,2013-03-16 07:50:00,
2013-03-16 03:51:00,56.5,52.4,30.24,NW,326,0.0,4.0,86,0.00,,---,0.00,VWS V14.01,2013-03-16 07:51:00,
2013-03-16 03:52:00,56.4,52.3,30.24,NW,326,0.0,4.0,86,0.00,,---,0.00,VWS V14.01,2013-03-16 07:52:00,
2013-03-16 03:53:00,56.6,52.5,30.24,NW,326,0.0,4.0,86,0.00,,---,0.00,VWS V14.01,2013-03-16 07:53:00,
2013-03-16 03:54:00,56.4,52.4,30.24,NW,326,0.0,4.0,86,0.00,,---,0.00,VWS V14.01,2013-03-16 07:54:00,
2013-03-16 03:55:00,56.4,52.4,30.24,NW,326,0.0,4.0,86,0.00,,---,0.00,VWS V14.01,2013-03-16 07:55:00,
2013-03-16 03:56:00,56.5,52.5,30.25,NW,326,0.0,4.0,86,0.00,,---,0.00,VWS V14.01,2013-03-16 07:56:00,
2013-03-16 03:57:00,56.3,52.2,30.25,NW,326,0.0,4.0,86,0.00,,---,0.00,VWS V14.01,2013-03-16 07:57:00,
2013-03-16 03:58:00,56.4,52.3,30.25,NW,326,0.0,4.0,86,0.00,,---,0.00,VWS V14.01,2013-03-16 07:58:00,
2013-03-16 03:59:00,56.4,52.3,30.25,NW,326,0.0,4.0,86,0.00,,---,0.00,VWS V14.01,2013-03-16 07:59:00,
2013-03-16 04:00:00,56.4,52.4,30.25,NW,326,0.0,4.0,86,0.00,,---,0.00,VWS V14.01,2013-03-16 08:00:00,
2013-03-16 04:01:00,56.2,52.2,30.24,NW,326,0.0,4.0,86,0.00,,---,0.00,VWS V14.01,2013-03-16 08:01:00,
2013-03-16 04:02:00,56.2,52.2,30.24,NW,326,0.0,4.0,86,0.00,,---,0.00,VWS V14.01,2013-03-16 08:02:00,
2013-03-16 04:03:00,56.2,52.2,30.24,NW,326,0.0,4.0,86,0.00,,---,0.00,VWS V14.01,2013-03-16 08:03:00,
2013-03-16 04:04:00,56.2,52.2,30.24,NW,326,0.0,4.0,86,0.00,,---,0.00,VWS V14.01,2013-03-16 08:04:00,
2013-03-16 04:05:00,56.2,52.2,30.25,NW,326,0.0,4.0,86,0.00,,---,0.00,VWS V14.01,2013-03-16 08:05:00,
2013-03-16 04:06:00,56.2,52.2,30.25,NW,326,0.0,4.0,86,0.00,,---,0.00,VWS V14.01,2013-03-16 08:06:00,
2013-03-16 04:07:00,56.2,52.2,30.24,NW,326,0.0,4.0,86,0.00,,---,0.00,VWS V14.01,2013-03-16 08:07:00,
2013-03-16 04:08:00,56.0,52.0,30.25,NW,326,0.0,4.0,86,0.00,,---,0.00,VWS V14.01,2013-03-16 08:08:00,
2013-03-16 04:09:00,56.2,52.2,30.25,NW,326,0.0,4.0,86,0.00,,---,0.00,VWS V14.01,2013-03-16 08:09:00,
2013-03-16 04:10:00,56.2,52.2,30.25,NW,326,0.0,4.0,86,0.00,,---,0.00,VWS V14.01,2013-03-16 08:10:00,
2013-03-16 04:11:00,56.2,52.2,30.24,NW,326,0.0,4.0,86,0.00,,---,0.00,VWS V14.01,2013-03-16 08:11:00,
2013-03-16 04:12:00,56.0,52.0,30.24,NW,326,0.0,4.0,86,0.00,,---,0.00,VWS V14.01,2013-03-16 08:12:00,
2013-03-16 04:13:00,56.0,52.0,30.24,NW,326,0.0,4.0,86,0.00,,---,0.00,VWS V14.01,2013-03-16 08:13:00,
2013-03-16 04:14:00,56.1,52.1,30.24,NW,326,0.0,4.0,86,0.00,,---,0.00,VWS V14.01,2013-03-16 08:14:00,
2013-03-16 04:15:00,56.0,52.0,30.24,NW,326,0.0,4.0,86,0.00,,---,0.00,VWS V14.01,2013-03-16 08:15:00,
2013-03-16 04:16:00,56.0,52.0,30.25,NW,326,0.0,4.0,86,0.00,,---,0.00,VWS V14.01,2013-03-16 08:16:00,
2013-03-16 04:17:00,55.9,51.9,30.25,NW,326,0.0,4.0,86,0.00,,---,0.00,VWS V14.01,2013-03-16 08:17:00,
2013-03-16 04:18:00,55.9,51.9,30.25,NW,326,0.0,4.0,86,0.00,,---,0.00,VWS V14.01,2013-03-16 08:18:00,
2013-03-16 04:19:00,55.9,51.9,30.24,NW,326,0.0,4.0,86,0.00,,---,0.00,VWS V14.01,2013-03-16 08:19:00,
2013-03-16 04:20:00,55.8,51.8,30.24,NW,326,0.0,4.0,86,0.00,,---,0.00,VWS V14.01,2013-03-16 08:20:00,
2013-03-16 04:21:00,55.8,51.8,30.24,NW,326,0.0,4.0,86,0.00,,---,0.00,VWS V14.01,2013-03-16 08:21:00,
2013-03-16 04:22:00,55.7,51.7,30.24,NW,326,0.0,4.0,86,0.00,,---,0.00,VWS V14.01,2013-03-16 08:22:00,
2013-03-16 04:23:00,55.7,51.7,30.24,NW,326,0.0,4.0,86,0.00,,---,0.00,VWS V14.01,2013-03-16 08:23:00,
2013-03-16 04:24:00,55.7,51.7,30.24,NW,326,0.0,4.0,86,0.00,,---,0.00,VWS V14.01,2013-03-16 08:24:00,
2013-03-16 04:25:00,55.8,51.9,30.24,NW,326,0.0,4.0,87,0.00,,---,0.00,VWS V14.01,2013-03-16 08:25:00,
2013-03-16 04:26:00,55.7,51.8,30.24,NW,326,0.0,4.0,87,0.00,,---,0.00,VWS V14.01,2013-03-16 08:26:00,
2013-03-16 04:27:00,55.6,51.7,30.24,NW,326,0.0,4.0,87,0.00,,---,0.00,VWS V14.01,2013-03-16 08:27:00,
2013-03-16 04:28:00,55.6,51.7,30.24,NW,326,0.0,4.0,87,0.00,,---,0.00,VWS V14.01,2013-03-16 08:28:00,
2013-03-16 04:29:00,55.5,51.6,30.24,NW,326,0.0,4.0,87,0.00,,---,0.00,VWS V14.01,2013-03-16 08:29:00,
2013-03-16 04:30:00,55.6,51.7,30.25,NW,326,0.0,4.0,87,0.00,,---,0.00,VWS V14.01,2013-03-16 08:30:00,
2013-03-16 04:31:00,55.6,51.7,30.24,NW,326,0.0,4.0,87,0.00,,---,0.00,VWS V14.01,2013-03-16 08:31:00,
2013-03-16 04:32:00,55.5,51.6,30.24,NW,326,0.0,4.0,87,0.00,,---,0.00,VWS V14.01,2013-03-16 08:32:00,
2013-03-16 04:33:00,55.6,51.7,30.25,NW,326,0.0,4.0,87,0.00,,---,0.00,VWS V14.01,2013-03-16 08:33:00,
2013-03-16 04:34:00,55.5,51.6,30.25,NW,326,0.0,4.0,87,0.00,,---,0.00,VWS V14.01,2013-03-16 08:34:00,
2013-03-16 04:35:00,55.4,51.5,30.25,NW,326,0.0,4.0,87,0.00,,---,0.00,VWS V14.01,2013-03-16 08:35:00,
2013-03-16 04:36:00,55.5,51.6,30.25,NW,326,0.0,4.0,87,0.00,,---,0.00,VWS V14.01,2013-03-16 08:36:00,
2013-03-16 04:37:00,55.5,51.7,30.25,NW,326,0.0,4.0,87,0.00,,---,0.00,VWS V14.01,2013-03-16 08:37:00,
2013-03-16 04:38:00,55.4,51.6,30.24,NW,326,0.0,4.0,87,0.00,,---,0.00,VWS V14.01,2013-03-16 08:38:00,
2013-03-16 04:39:00,55.4,51.6,30.25,NW,326,0.0,4.0,87,0.00,,---,0.00,VWS V14.01,2013-03-16 08:39:00,
2013-03-16 04:40:00,55.4,51.6,30.25,NW,326,0.0,4.0,87,0.00,,---,0.00,VWS V14.01,2013-03-16 08:40:00,
2013-03-16 04:41:00,55.3,51.5,30.24,NW,326,0.0,4.0,87,0.00,,---,0.00,VWS V14.01,2013-03-16 08:41:00,
2013-03-16 04:42:00,55.3,51.5,30.24,NW,326,0.0,4.0,87,0.00,,---,0.00,VWS V14.01,2013-03-16 08:42:00,
2013-03-16 04:43:00,55.2,51.4,30.25,NW,326,0.0,4.0,87,0.00,,---,0.00,VWS V14.01,2013-03-16 08:43:00,
2013-03-16 04:44:00,55.3,51.5,30.24,NW,326,0.0,4.0,87,0.00,,---,0.00,VWS V14.01,2013-03-16 08:44:00,
2013-03-16 04:45:00,55.2,51.4,30.24,NW,326,0.0,4.0,87,0.00,,---,0.00,VWS V14.01,2013-03-16 08:45:00,
2013-03-16 04:46:00,55.3,51.6,30.24,NW,326,0.0,4.0,87,0.00,,---,0.00,VWS V14.01,2013-03-16 08:46:00,
2013-03-16 04:47:00,55.3,51.6,30.24,NW,326,0.0,4.0,87,0.00,,---,0.00,VWS V14.01,2013-03-16 08:47:00,
2013-03-16 04:48:00,55.2,51.5,30.24,NW,326,0.0,4.0,87,0.00,,---,0.00,VWS V14.01,2013-03-16 08:48:00,
2013-03-16 04:49:00,55.3,51.6,30.24,NW,326,0.0,4.0,87,0.00,,---,0.00,VWS V14.01,2013-03-16 08:49:00,
2013-03-16 04:50:00,55.3,51.6,30.24,NW,326,0.0,4.0,87,0.00,,---,0.00,VWS V14.01,2013-03-16 08:50:00,
2013-03-16 04:51:00,55.2,51.5,30.24,NW,326,0.0,4.0,87,0.00,,---,0.00,VWS V14.01,2013-03-16 08:51:00,
2013-03-16 04:52:00,55.1,51.4,30.24,NW,326,0.0,4.0,87,0.00,,---,0.00,VWS V14.01,2013-03-16 08:52:00,
2013-03-16 04:53:00,55.2,51.5,30.25,NW,326,0.0,4.0,87,0.00,,---,0.00,VWS V14.01,2013-03-16 08:53:00,
2013-03-16 04:54:00,55.2,51.5,30.25,NW,326,0.0,4.0,87,0.00,,---,0.00,VWS V14.01,2013-03-16 08:54:00,
2013-03-16 04:55:00,55.2,51.5,30.25,NW,326,0.0,4.0,87,0.00,,---,0.00,VWS V14.01,2013-03-16 08:55:00,
2013-03-16 04:56:00,55.1,51.4,30.25,NW,326,0.0,4.0,87,0.00,,---,0.00,VWS V14.01,2013-03-16 08:56:00,
2013-03-16 04:57:00,55.2,51.5,30.25,NW,326,0.0,4.0,87,0.00,,---,0.00,VWS V14.01,2013-03-16 08:57:00,
2013-03-16 04:58:00,55.1,51.4,30.25,NW,326,0.0,4.0,87,0.00,,---,0.00,VWS V14.01,2013-03-16 08:58:00,
2013-03-16 04:59:00,55.2,51.5,30.24,NW,326,0.0,4.0,87,0.00,,---,0.00,VWS V14.01,2013-03-16 08:59:00,
2013-03-16 05:00:00,55.0,51.4,30.24,NW,326,0.0,4.0,88,0.00,,---,0.00,VWS V14.01,2013-03-16 09:00:00,
2013-03-16 05:01:00,55.0,51.4,30.25,NW,326,0.0,4.0,88,0.00,,---,0.00,VWS V14.01,2013-03-16 09:01:00,
2013-03-16 05:02:00,54.9,51.3,30.25,NW,326,0.0,4.0,88,0.00,,---,0.00,VWS V14.01,2013-03-16 09:02:00,
2013-03-16 05:03:00,55.0,51.4,30.25,NW,326,0.0,4.0,88,0.00,,---,0.00,VWS V14.01,2013-03-16 09:03:00,
2013-03-16 05:04:00,55.0,51.4,30.25,NW,326,0.0,4.0,88,0.00,,---,0.00,VWS V14.01,2013-03-16 09:04:00,
2013-03-16 05:05:00,54.9,51.3,30.25,NW,326,0.0,4.0,88,0.00,,---,0.00,VWS V14.01,2013-03-16 09:05:00,
2013-03-16 05:06:00,54.7,51.1,30.25,NW,326,0.0,4.0,88,0.00,,---,0.00,VWS V14.01,2013-03-16 09:06:00,
2013-03-16 05:07:00,54.9,51.3,30.25,NW,326,0.0,4.0,88,0.00,,---,0.00,VWS V14.01,2013-03-16 09:07:00,
2013-03-16 05:08:00,54.8,51.2,30.25,NW,326,0.0,4.0,88,0.00,,---,0.00,VWS V14.01,2013-03-16 09:08:00,
2013-03-16 05:09:00,54.8,51.2,30.25,NW,326,0.0,4.0,88,0.00,,---,0.00,VWS V14.01,2013-03-16 09:09:00,
2013-03-16 05:10:00,54.8,51.3,30.25,NW,326,0.0,4.0,88,0.00,,---,0.00,VWS V14.01,2013-03-16 09:10:00,
2013-03-16 05:11:00,54.7,51.2,30.25,NW,326,0.0,4.0,88,0.00,,---,0.00,VWS V14.01,2013-03-16 09:11:00,
2013-03-16 05:12:00,54.9,51.4,30.25,NW,326,0.0,4.0,88,0.00,,---,0.00,VWS V14.01,2013-03-16 09:12:00,
2013-03-16 05:13:00,54.7,51.2,30.25,NW,326,0.0,4.0,88,0.00,,---,0.00,VWS V14.01,2013-03-16 09:13:00,
2013-03-16 05:14:00,54.7,51.2,30.25,NW,326,0.0,4.0,88,0.00,,---,0.00,VWS V14.01,2013-03-16 09:14:00,
2013-03-16 05:15:00,54.7,51.2,30.25,NW,326,0.0,4.0,88,0.00,,---,0.00,VWS V14.01,2013-03-16 09:15:00,
2013-03-16 05:16:00,54.7,51.2,30.25,NW,326,0.0,4.0,88,0.00,,---,0.00,VWS V14.01,2013-03-16 09:16:00,
2013-03-16 05:17:00,54.7,51.2,30.25,NW,326,0.0,4.0,88,0.00,,---,0.00,VWS V14.01,2013-03-16 09:17:00,
2013-03-16 05:18:00,54.7,51.2,30.25,NW,326,0.0,4.0,88,0.00,,---,0.00,VWS V14.01,2013-03-16 09:18:00,
2013-03-16 05:19:00,54.8,51.3,30.25,NW,326,0.0,4.0,88,0.00,,---,0.00,VWS V14.01,2013-03-16 09:19:00,
2013-03-16 05:20:00,54.7,51.2,30.25,NW,326,0.0,4.0,88,0.00,,---,0.00,VWS V14.01,2013-03-16 09:20:00,
2013-03-16 05:21:00,54.7,51.3,30.25,NW,326,0.0,4.0,88,0.00,,---,0.00,VWS V14.01,2013-03-16 09:21:00,
2013-03-16 05:22:00,54.6,51.2,30.25,NW,326,0.0,4.0,88,0.00,,---,0.00,VWS V14.01,2013-03-16 09:22:00,
2013-03-16 05:23:00,54.6,51.2,30.25,NW,326,0.0,4.0,88,0.00,,---,0.00,VWS V14.01,2013-03-16 09:23:00,
2013-03-16 05:24:00,54.6,51.2,30.25,NW,326,0.0,4.0,88,0.00,,---,0.00,VWS V14.01,2013-03-16 09:24:00,
2013-03-16 05:25:00,54.5,51.2,30.25,NW,326,0.0,4.0,88,0.00,,---,0.00,VWS V14.01,2013-03-16 09:25:00,
2013-03-16 05:26:00,54.5,51.2,30.25,NW,326,0.0,4.0,88,0.00,,---,0.00,VWS V14.01,2013-03-16 09:26:00,
2013-03-16 05:27:00,54.7,51.3,30.25,NW,326,0.0,4.0,88,0.00,,---,0.00,VWS V14.01,2013-03-16 09:27:00,
2013-03-16 05:28:00,54.5,51.2,30.25,NW,326,0.0,4.0,88,0.00,,---,0.00,VWS V14.01,2013-03-16 09:28:00,
2013-03-16 05:29:00,54.5,51.2,30.25,NW,326,0.0,4.0,88,0.00,,---,0.00,VWS V14.01,2013-03-16 09:29:00,
2013-03-16 05:30:00,54.5,51.1,30.25,NW,326,0.0,4.0,88,0.00,,---,0.00,VWS V14.01,2013-03-16 09:30:00,
2013-03-16 05:31:00,54.5,51.2,30.25,NW,326,0.0,4.0,88,0.00,,---,0.00,VWS V14.01,2013-03-16 09:31:00,
2013-03-16 05:32:00,54.4,51.1,30.25,NW,326,0.0,4.0,88,0.00,,---,0.00,VWS V14.01,2013-03-16 09:32:00,
2013-03-16 05:33:00,54.4,51.1,30.25,NW,326,0.0,4.0,89,0.00,,---,0.00,VWS V14.01,2013-03-16 09:33:00,
2013-03-16 05:34:00,54.6,51.3,30.25,NW,326,0.0,4.0,89,0.00,,---,0.00,VWS V14.01,2013-03-16 09:34:00,
2013-03-16 05:35:00,54.5,51.2,30.25,NW,326,0.0,4.0,89,0.00,,---,0.00,VWS V14.01,2013-03-16 09:35:00,
2013-03-16 05:36:00,54.5,51.2,30.25,NW,326,0.0,4.0,89,0.00,,---,0.00,VWS V14.01,2013-03-16 09:36:00,
2013-03-16 05:37:00,54.5,51.2,30.25,NW,326,0.0,4.0,89,0.00,,---,0.00,VWS V14.01,2013-03-16 09:37:00,
2013-03-16 05:38:00,54.5,51.2,30.25,NW,326,0.0,4.0,89,0.00,,---,0.00,VWS V14.01,2013-03-16 09:38:00,
2013-03-16 05:39:00,54.4,51.1,30.25,NW,326,0.0,4.0,89,0.00,,---,0.00,VWS V14.01,2013-03-16 09:39:00,
2013-03-16 05:40:00,54.5,51.2,30.25,NW,326,0.0,4.0,89,0.00,,---,0.00,VWS V14.01,2013-03-16 09:40:00,
2013-03-16 05:41:00,54.5,51.3,30.25,NW,326,0.0,4.0,89,0.00,,---,0.00,VWS V14.01,2013-03-16 09:41:00,
2013-03-16 05:42:00,54.4,51.2,30.25,NW,326,0.0,4.0,89,0.00,,---,0.00,VWS V14.01,2013-03-16 09:42:00,
2013-03-16 05:43:00,54.2,51.0,30.26,NW,326,0.0,4.0,89,0.00,,---,0.00,VWS V14.01,2013-03-16 09:43:00,
2013-03-16 05:44:00,54.3,51.1,30.26,NW,326,0.0,4.0,89,0.00,,---,0.00,VWS V14.01,2013-03-16 09:44:00,
2013-03-16 05:45:00,54.3,51.1,30.26,NW,326,0.0,4.0,89,0.00,,---,0.00,VWS V14.01,2013-03-16 09:45:00,
2013-03-16 05:46:00,54.2,51.0,30.25,NW,326,0.0,4.0,89,0.00,,---,0.00,VWS V14.01,2013-03-16 09:46:00,
2013-03-16 05:47:00,54.3,51.1,30.26,NW,326,0.0,4.0,89,0.00,,---,0.00,VWS V14.01,2013-03-16 09:47:00,
2013-03-16 05:48:00,54.4,51.3,30.26,NW,326,0.0,4.0,89,0.00,,---,0.00,VWS V14.01,2013-03-16 09:48:00,
2013-03-16 05:49:00,54.3,51.2,30.26,NW,326,0.0,4.0,89,0.00,,---,0.00,VWS V14.01,2013-03-16 09:49:00,
2013-03-16 05:50:00,54.2,51.1,30.26,NW,326,0.0,4.0,89,0.00,,---,0.00,VWS V14.01,2013-03-16 09:50:00,
2013-03-16 05:51:00,54.4,51.3,30.26,NW,326,0.0,4.0,89,0.00,,---,0.00,VWS V14.01,2013-03-16 09:51:00,
2013-03-16 05:52:00,54.3,51.2,30.26,NW,326,0.0,4.0,89,0.00,,---,0.00,VWS V14.01,2013-03-16 09:52:00,
2013-03-16 05:53:00,54.3,51.2,30.26,NW,326,0.0,4.0,89,0.00,,---,0.00,VWS V14.01,2013-03-16 09:53:00,
2013-03-16 05:54:00,54.2,51.1,30.26,NW,326,0.0,4.0,89,0.00,,---,0.00,VWS V14.01,2013-03-16 09:54:00,
2013-03-16 05:55:00,54.2,51.1,30.26,NW,326,0.0,4.0,89,0.00,,---,0.00,VWS V14.01,2013-03-16 09:55:00,
2013-03-16 05:56:00,54.3,51.2,30.26,NW,326,0.0,4.0,89,0.00,,---,0.00,VWS V14.01,2013-03-16 09:56:00,
2013-03-16 05:57:00,54.3,51.2,30.26,NW,326,0.0,4.0,89,0.00,,---,0.00,VWS V14.01,2013-03-16 09:57:00,
2013-03-16 05:58:00,54.2,51.2,30.26,NW,326,0.0,4.0,89,0.00,,---,0.00,VWS V14.01,2013-03-16 09:58:00,
2013-03-16 05:59:00,54.3,51.2,30.26,NW,326,0.0,4.0,89,0.00,,---,0.00,VWS V14.01,2013-03-16 09:59:00,
2013-03-16 06:00:00,54.4,51.4,30.26,NW,326,0.0,4.0,90,0.00,,---,0.00,VWS V14.01,2013-03-16 10:00:00,
2013-03-16 06:01:00,54.4,51.4,30.26,NW,326,0.0,4.0,90,0.00,,---,0.00,VWS V14.01,2013-03-16 10:01:00,
2013-03-16 06:02:00,54.6,51.6,30.26,NW,326,0.0,4.0,90,0.00,,---,0.00,VWS V14.01,2013-03-16 10:02:00,
2013-03-16 06:03:00,54.5,51.5,30.26,NW,326,0.0,4.0,90,0.00,,---,0.00,VWS V14.01,2013-03-16 10:03:00,
2013-03-16 06:04:00,54.5,51.5,30.26,NW,326,0.0,4.0,90,0.00,,---,0.00,VWS V14.01,2013-03-16 10:04:00,
2013-03-16 06:05:00,54.4,51.5,30.26,NW,326,0.0,4.0,90,0.00,,---,0.00,VWS V14.01,2013-03-16 10:05:00,
2013-03-16 06:06:00,54.5,51.6,30.26,NW,326,0.0,4.0,90,0.00,,---,0.00,VWS V14.01,2013-03-16 10:06:00,
2013-03-16 06:07:00,54.4,51.4,30.26,NW,326,0.0,4.0,90,0.00,,---,0.00,VWS V14.01,2013-03-16 10:07:00,
2013-03-16 06:08:00,54.4,51.4,30.26,NW,326,0.0,4.0,90,0.00,,---,0.00,VWS V14.01,2013-03-16 10:08:00,
2013-03-16 06:09:00,54.5,51.6,30.26,NW,326,0.0,4.0,90,0.00,,---,0.00,VWS V14.01,2013-03-16 10:09:00,
2013-03-16 06:10:00,54.4,51.5,30.26,NW,326,0.0,4.0,90,0.00,,---,0.00,VWS V14.01,2013-03-16 10:10:00,
2013-03-16 06:11:00,54.4,51.4,30.26,NW,326,0.0,4.0,90,0.00,,---,0.00,VWS V14.01,2013-03-16 10:11:00,
2013-03-16 06:12:00,54.5,51.5,30.26,NW,326,0.0,4.0,90,0.00,,---,0.00,VWS V14.01,2013-03-16 10:12:00,
2013-03-16 06:13:00,54.4,51.4,30.27,NW,326,0.0,4.0,90,0.00,,---,0.00,VWS V14.01,2013-03-16 10:13:00,
2013-03-16 06:14:00,54.5,51.5,30.27,NW,326,0.0,4.0,90,0.00,,---,0.00,VWS V14.01,2013-03-16 10:14:00,
2013-03-16 06:15:00,54.4,51.4,30.26,NW,326,0.0,4.0,90,0.00,,---,0.00,VWS V14.01,2013-03-16 10:15:00,
2013-03-16 06:16:00,54.4,51.4,30.26,NW,326,0.0,4.0,90,0.00,,---,0.00,VWS V14.01,2013-03-16 10:16:00,
2013-03-16 06:17:00,54.5,51.5,30.26,NW,326,0.0,4.0,90,0.00,,---,0.00,VWS V14.01,2013-03-16 10:17:00,
2013-03-16 06:18:00,54.5,51.5,30.26,NW,326,0.0,4.0,90,0.00,,---,0.00,VWS V14.01,2013-03-16 10:18:00,
2013-03-16 06:19:00,54.3,51.3,30.26,NW,326,0.0,4.0,90,0.00,,---,0.00,VWS V14.01,2013-03-16 10:19:00,
2013-03-16 06:20:00,54.4,51.4,30.26,NW,326,0.0,4.0,90,0.00,,---,0.00,VWS V14.01,2013-03-16 10:20:00,
2013-03-16 06:21:00,54.3,51.4,30.26,NW,326,0.0,4.0,90,0.00,,---,0.00,VWS V14.01,2013-03-16 10:21:00,
2013-03-16 06:22:00,54.4,51.5,30.26,NW,326,0.0,4.0,90,0.00,,---,0.00,VWS V14.01,2013-03-16 10:22:00,
2013-03-16 06:23:00,54.3,51.4,30.26,NW,326,0.0,4.0,90,0.00,,---,0.00,VWS V14.01,2013-03-16 10:23:00,
2013-03-16 06:24:00,54.3,51.4,30.26,NW,326,0.0,4.0,90,0.00,,---,0.00,VWS V14.01,2013-03-16 10:24:00,
2013-03-16 06:25:00,54.4,51.5,30.26,NW,326,0.0,4.0,90,0.00,,---,0.00,VWS V14.01,2013-03-16 10:25:00,
2013-03-16 06:26:00,54.4,51.5,30.26,NW,326,0.0,4.0,90,0.00,,---,0.00,VWS V14.01,2013-03-16 10:26:00,
2013-03-16 06:27:00,54.2,51.3,30.27,NW,326,0.0,4.0,90,0.00,,---,0.00,VWS V14.01,2013-03-16 10:27:00,
2013-03-16 06:28:00,54.2,51.3,30.27,NW,326,0.0,4.0,90,0.00,,---,0.00,VWS V14.01,2013-03-16 10:28:00,
2013-03-16 06:29:00,54.2,51.4,30.27,NW,326,0.0,4.0,90,0.00,,---,0.00,VWS V14.01,2013-03-16 10:29:00,
2013-03-16 06:30:00,54.3,51.5,30.27,NW,326,0.0,4.0,90,0.00,,---,0.00,VWS V14.01,2013-03-16 10:30:00,
2013-03-16 06:31:00,54.2,51.3,30.27,NW,326,0.0,4.0,90,0.00,,---,0.00,VWS V14.01,2013-03-16 10:31:00,
2013-03-16 06:32:00,54.2,51.3,30.27,NW,326,0.0,4.0,90,0.00,,---,0.00,VWS V14.01,2013-03-16 10:32:00,
2013-03-16 06:33:00,54.1,51.2,30.27,NW,326,0.0,4.0,90,0.00,,---,0.00,VWS V14.01,2013-03-16 10:33:00,
2013-03-16 06:34:00,54.1,51.2,30.27,NW,326,0.0,4.0,90,0.00,,---,0.00,VWS V14.01,2013-03-16 10:34:00,
2013-03-16 06:35:00,54.0,51.1,30.27,NW,326,0.0,4.0,90,0.00,,---,0.00,VWS V14.01,2013-03-16 10:35:00,
2013-03-16 06:36:00,54.0,51.1,30.27,NW,326,0.0,4.0,90,0.00,,---,0.00,VWS V14.01,2013-03-16 10:36:00,
2013-03-16 06:37:00,53.9,51.0,30.27,NW,326,0.0,4.0,90,0.00,,---,0.00,VWS V14.01,2013-03-16 10:37:00,
2013-03-16 06:38:00,54.0,51.1,30.27,NW,326,0.0,4.0,90,0.00,,---,0.00,VWS V14.01,2013-03-16 10:38:00,
2013-03-16 06:39:00,54.0,51.2,30.27,NW,326,0.0,4.0,90,0.00,,---,0.00,VWS V14.01,2013-03-16 10:39:00,
2013-03-16 06:40:00,54.1,51.3,30.27,NW,326,0.0,4.0,90,0.00,,---,0.00,VWS V14.01,2013-03-16 10:40:00,
2013-03-16 06:41:00,54.0,51.2,30.27,NW,326,0.0,4.0,90,0.00,,---,0.00,VWS V14.01,2013-03-16 10:41:00,
2013-03-16 06:42:00,54.2,51.4,30.27,NW,326,0.0,4.0,90,0.00,,---,0.00,VWS V14.01,2013-03-16 10:42:00,
2013-03-16 06:43:00,54.0,51.2,30.27,NW,326,0.0,4.0,90,0.00,,---,0.00,VWS V14.01,2013-03-16 10:43:00,
2013-03-16 06:44:00,54.2,51.3,30.27,NW,326,0.0,4.0,90,0.00,,---,0.00,VWS V14.01,2013-03-16 10:44:00,
2013-03-16 06:45:00,54.1,51.3,30.27,NW,326,0.0,4.0,90,0.00,,---,0.00,VWS V14.01,2013-03-16 10:45:00,
2013-03-16 06:46:00,54.1,51.3,30.27,NW,326,0.0,4.0,90,0.00,,---,0.00,VWS V14.01,2013-03-16 10:46:00,
2013-03-16 06:47:00,54.1,51.3,30.27,NW,326,0.0,4.0,90,0.00,,---,0.00,VWS V14.01,2013-03-16 10:47:00,
2013-03-16 06:48:00,54.1,51.3,30.27,NW,326,0.0,4.0,90,0.00,,---,0.00,VWS V14.01,2013-03-16 10:48:00,
2013-03-16 06:49:00,54.1,51.3,30.27,NW,326,0.0,4.0,90,0.00,,---,0.00,VWS V14.01,2013-03-16 10:49:00,
2013-03-16 06:50:00,54.2,51.4,30.27,NW,326,0.0,4.0,90,0.00,,---,0.00,VWS V14.01,2013-03-16 10:50:00,
2013-03-16 06:51:00,54.1,51.3,30.27,NW,326,0.0,4.0,90,0.00,,---,0.00,VWS V14.01,2013-03-16 10:51:00,
2013-03-16 06:52:00,54.1,51.4,30.27,NW,326,0.0,4.0,90,0.00,,---,0.00,VWS V14.01,2013-03-16 10:52:00,
2013-03-16 06:53:00,54.2,51.5,30.27,NW,326,0.0,4.0,90,0.00,,---,0.00,VWS V14.01,2013-03-16 10:53:00,
2013-03-16 06:54:00,54.0,51.2,30.27,NW,326,0.0,4.0,90,0.00,,---,0.00,VWS V14.01,2013-03-16 10:54:00,
2013-03-16 06:55:00,54.2,51.4,30.27,NW,326,0.0,4.0,90,0.00,,---,0.00,VWS V14.01,2013-03-16 10:55:00,
2013-03-16 06:56:00,54.3,51.5,30.27,NW,326,0.0,4.0,90,0.00,,---,0.00,VWS V14.01,2013-03-16 10:56:00,
2013-03-16 06:57:00,54.2,51.5,30.27,NW,326,0.0,4.0,90,0.00,,---,0.00,VWS V14.01,2013-03-16 10:57:00,
2013-03-16 06:58:00,54.2,51.5,30.27,NW,326,0.0,4.0,90,0.00,,---,0.00,VWS V14.01,2013-03-16 10:58:00,
2013-03-16 06:59:00,54.3,51.5,30.27,NW,326,0.0,4.0,90,0.00,,---,0.00,VWS V14.01,2013-03-16 10:59:00,
2013-03-16 07:00:00,54.4,51.6,30.27,NW,326,0.0,4.0,90,0.00,,---,0.00,VWS V14.01,2013-03-16 11:00:00,
2013-03-16 07:01:00,54.2,51.5,30.27,NW,326,0.0,4.0,90,0.00,,---,0.00,VWS V14.01,2013-03-16 11:01:00,
2013-03-16 07:02:00,54.3,51.5,30.27,NW,326,0.0,4.0,90,0.00,,---,0.00,VWS V14.01,2013-03-16 11:02:00,
2013-03-16 07:03:00,54.4,51.7,30.27,NW,326,0.0,4.0,90,0.00,,---,0.00,VWS V14.01,2013-03-16 11:03:00,
2013-03-16 07:04:00,54.4,51.7,30.27,NW,326,0.0,4.0,90,0.00,,---,0.00,VWS V14.01,2013-03-16 11:04:00,
2013-03-16 07:05:00,54.5,51.7,30.27,NW,326,0.0,4.0,90,0.00,,---,0.00,VWS V14.01,2013-03-16 11:05:00,
2013-03-16 07:06:00,54.4,51.7,30.28,NW,326,0.0,4.0,90,0.00,,---,0.00,VWS V14.01,2013-03-16 11:06:00,
2013-03-16 07:07:00,54.5,51.8,30.28,NW,326,0.0,4.0,90,0.00,,---,0.00,VWS V14.01,2013-03-16 11:07:00,
2013-03-16 07:08:00,54.5,51.8,30.28,NW,326,0.0,4.0,90,0.00,,---,0.00,VWS V14.01,2013-03-16 11:08:00,
2013-03-16 07:09:00,54.5,51.8,30.27,NW,326,0.0,4.0,90,0.00,,---,0.00,VWS V14.01,2013-03-16 11:09:00,
2013-03-16 07:10:00,54.6,51.9,30.28,NW,326,0.0,4.0,90,0.00,,---,0.00,VWS V14.01,2013-03-16 11:10:00,
2013-03-16 07:11:00,54.8,52.1,30.28,NW,326,0.0,4.0,90,0.00,,---,0.00,VWS V14.01,2013-03-16 11:11:00,
2013-03-16 07:12:00,54.7,52.0,30.28,NW,326,0.0,4.0,90,0.00,,---,0.00,VWS V14.01,2013-03-16 11:12:00,
2013-03-16 07:13:00,54.8,52.1,30.28,NW,326,0.0,4.0,90,0.00,,---,0.00,VWS V14.01,2013-03-16 11:13:00,
2013-03-16 07:14:00,55.0,52.3,30.28,NW,326,0.0,4.0,90,0.00,,---,0.00,VWS V14.01,2013-03-16 11:14:00,
2013-03-16 07:15:00,55.0,52.3,30.28,NW,326,0.0,4.0,90,0.00,,---,0.00,VWS V14.01,2013-03-16 11:15:00,
2013-03-16 07:16:00,55.1,52.4,30.28,WNW,302,0.0,4.0,90,0.00,,---,0.00,VWS V14.01,2013-03-16 11:16:00,
2013-03-16 07:17:00,55.1,52.4,30.28,WNW,302,0.0,4.0,90,0.00,,---,0.00,VWS V14.01,2013-03-16 11:17:00,
2013-03-16 07:18:00,55.3,52.6,30.28,NNW,338,2.1,4.0,90,0.00,,---,0.00,VWS V14.01,2013-03-16 11:18:00,
2013-03-16 07:19:00,55.5,52.7,30.28,NNW,330,0.0,4.0,90,0.00,,---,0.00,VWS V14.01,2013-03-16 11:19:00,
2013-03-16 07:20:00,55.3,52.5,30.28,NNW,330,0.0,4.0,90,0.00,,---,0.00,VWS V14.01,2013-03-16 11:20:00,
2013-03-16 07:21:00,55.4,52.6,30.28,NNW,330,0.0,4.0,90,0.00,,---,0.00,VWS V14.01,2013-03-16 11:21:00,
2013-03-16 07:22:00,55.5,52.7,30.28,NNW,330,0.0,4.0,90,0.00,,---,0.00,VWS V14.01,2013-03-16 11:22:00,
2013-03-16 07:23:00,55.6,52.8,30.28,NNW,330,0.0,4.0,90,0.00,,---,0.00,VWS V14.01,2013-03-16 11:23:00,
2013-03-16 07:24:00,55.6,52.8,30.28,NNW,330,0.0,4.0,90,0.00,,---,0.00,VWS V14.01,2013-03-16 11:24:00,
2013-03-16 07:25:00,55.7,52.9,30.28,NNW,330,0.0,4.0,90,0.00,,---,0.00,VWS V14.01,2013-03-16 11:25:00,
2013-03-16 07:26:00,55.9,53.1,30.28,NNW,330,0.0,4.0,90,0.00,,---,0.00,VWS V14.01,2013-03-16 11:26:00,
2013-03-16 07:27:00,55.8,53.0,30.28,NNW,330,0.0,4.0,90,0.00,,---,0.00,VWS V14.01,2013-03-16 11:27:00,
2013-03-16 07:28:00,55.9,53.0,30.28,NNW,330,0.0,4.0,90,0.00,,---,0.00,VWS V14.01,2013-03-16 11:28:00,
2013-03-16 07:29:00,55.9,53.0,30.28,NNW,330,0.0,4.0,90,0.00,,---,0.00,VWS V14.01,2013-03-16 11:29:00,
2013-03-16 07:30:00,56.0,53.1,30.28,NNW,330,0.0,4.0,90,0.00,,---,0.00,VWS V14.01,2013-03-16 11:30:00,
2013-03-16 07:31:00,55.9,53.0,30.28,NNW,330,0.0,4.0,90,0.00,,---,0.00,VWS V14.01,2013-03-16 11:31:00,
2013-03-16 07:32:00,56.0,53.1,30.28,NNW,330,0.0,4.0,90,0.00,,---,0.00,VWS V14.01,2013-03-16 11:32:00,
2013-03-16 07:33:00,56.0,53.1,30.28,NNW,330,0.0,4.0,90,0.00,,---,0.00,VWS V14.01,2013-03-16 11:33:00,
2013-03-16 07:34:00,56.1,53.2,30.28,NNW,330,0.0,4.0,90,0.00,,---,0.00,VWS V14.01,2013-03-16 11:34:00,
2013-03-16 07:35:00,56.0,53.1,30.28,NNW,330,0.0,4.0,90,0.00,,---,0.00,VWS V14.01,2013-03-16 11:35:00,
2013-03-16 07:36:00,56.1,53.2,30.28,NNW,330,0.0,4.0,90,0.00,,---,0.00,VWS V14.01,2013-03-16 11:36:00,
2013-03-16 07:37:00,56.1,53.2,30.28,NNW,330,0.0,4.0,90,0.00,,---,0.00,VWS V14.01,2013-03-16 11:37:00,
2013-03-16 07:38:00,56.1,53.2,30.28,NNW,330,0.0,4.0,90,0.00,,---,0.00,VWS V14.01,2013-03-16 11:38:00,
2013-03-16 07:39:00,56.2,53.3,30.28,NNW,330,0.0,4.0,90,0.00,,---,0.00,VWS V14.01,2013-03-16 11:39:00,
2013-03-16 07:40:00,56.3,53.4,30.28,NNW,330,0.0,4.0,90,0.00,,---,0.00,VWS V14.01,2013-03-16 11:40:00,
2013-03-16 07:41:00,56.3,53.4,30.28,NNW,330,0.0,4.0,90,0.00,,---,0.00,VWS V14.01,2013-03-16 11:41:00,
2013-03-16 07:42:00,56.3,53.4,30.28,NNW,330,0.0,4.0,90,0.00,,---,0.00,VWS V14.01,2013-03-16 11:42:00,
2013-03-16 07:43:00,56.2,53.2,30.28,NNW,330,0.0,4.0,90,0.00,,---,0.00,VWS V14.01,2013-03-16 11:43:00,
2013-03-16 07:44:00,56.3,53.3,30.28,NNW,330,0.0,4.0,90,0.00,,---,0.00,VWS V14.01,2013-03-16 11:44:00,
2013-03-16 07:45:00,56.3,53.3,30.28,NNW,330,0.0,4.0,90,0.00,,---,0.00,VWS V14.01,2013-03-16 11:45:00,
2013-03-16 07:46:00,56.3,53.3,30.28,NNW,330,0.0,4.0,90,0.00,,---,0.00,VWS V14.01,2013-03-16 11:46:00,
2013-03-16 07:47:00,56.4,53.4,30.28,NNW,330,0.0,4.0,90,0.00,,---,0.00,VWS V14.01,2013-03-16 11:47:00,
2013-03-16 07:48:00,56.3,53.3,30.28,NNW,330,0.0,4.0,90,0.00,,---,0.00,VWS V14.01,2013-03-16 11:48:00,
2013-03-16 07:49:00,56.3,53.3,30.28,NNW,330,0.0,4.0,90,0.00,,---,0.00,VWS V14.01,2013-03-16 11:49:00,
2013-03-16 07:50:00,56.4,53.4,30.28,NNW,330,0.0,4.0,90,0.00,,---,0.00,VWS V14.01,2013-03-16 11:50:00,
2013-03-16 07:51:00,56.5,53.5,30.28,NNW,330,0.0,4.0,90,0.00,,---,0.00,VWS V14.01,2013-03-16 11:51:00,
2013-03-16 07:52:00,56.4,53.4,30.28,NNW,330,0.0,4.0,90,0.00,,---,0.00,VWS V14.01,2013-03-16 11:52:00,
2013-03-16 07:53:00,56.4,53.4,30.28,NNW,330,0.0,4.0,90,0.00,,---,0.00,VWS V14.01,2013-03-16 11:53:00,
2013-03-16 07:54:00,56.4,53.4,30.28,NNW,330,0.0,4.0,90,0.00,,---,0.00,VWS V14.01,2013-03-16 11:54:00,
2013-03-16 07:55:00,56.5,53.5,30.29,NNW,330,0.0,4.0,90,0.00,,---,0.00,VWS V14.01,2013-03-16 11:55:00,
2013-03-16 07:56:00,56.5,53.5,30.28,NNW,330,0.0,4.0,90,0.00,,---,0.00,VWS V14.01,2013-03-16 11:56:00,
2013-03-16 07:57:00,56.6,53.5,30.28,NNW,330,0.0,4.0,90,0.00,,---,0.00,VWS V14.01,2013-03-16 11:57:00,
2013-03-16 07:58:00,56.6,53.5,30.28,NNW,330,0.0,4.0,90,0.00,,---,0.00,VWS V14.01,2013-03-16 11:58:00,
2013-03-16 07:59:00,56.7,53.7,30.28,NNW,330,0.0,4.0,90,0.00,,---,0.00,VWS V14.01,2013-03-16 11:59:00,
2013-03-16 08:00:00,56.9,53.8,30.28,NNW,330,0.0,4.0,90,0.00,,---,0.00,VWS V14.01,2013-03-16 12:00:00,
2013-03-16 08:01:00,57.0,54.0,30.28,NNW,330,0.0,4.0,90,0.00,,---,0.00,VWS V14.01,2013-03-16 12:01:00,
2013-03-16 08:02:00,57.0,53.9,30.28,NNW,330,0.0,4.0,89,0.00,,---,0.00,VWS V14.01,2013-03-16 12:02:00,
2013-03-16 08:03:00,57.2,54.1,30.28,NNW,330,0.0,4.0,89,0.00,,---,0.00,VWS V14.01,2013-03-16 12:03:00,
2013-03-16 08:04:00,57.3,54.2,30.28,NNW,330,0.0,4.0,89,0.00,,---,0.00,VWS V14.01,2013-03-16 12:04:00,
2013-03-16 08:05:00,57.6,54.5,30.29,NNW,330,0.0,4.0,89,0.00,,---,0.00,VWS V14.01,2013-03-16 12:05:00,
2013-03-16 08:06:00,57.6,54.4,30.28,NNW,330,0.0,4.0,89,0.00,,---,0.00,VWS V14.01,2013-03-16 12:06:00,
2013-03-16 08:07:00,57.8,54.6,30.29,NNW,330,0.0,4.0,89,0.00,,---,0.00,VWS V14.01,2013-03-16 12:07:00,
2013-03-16 08:08:00,57.7,54.5,30.29,NNW,330,0.0,4.0,89,0.00,,---,0.00,VWS V14.01,2013-03-16 12:08:00,
2013-03-16 08:09:00,57.9,54.7,30.29,NNW,330,0.0,4.0,89,0.00,,---,0.00,VWS V14.01,2013-03-16 12:09:00,
2013-03-16 08:10:00,58.0,54.8,30.29,NNW,330,0.0,4.0,89,0.00,,---,0.00,VWS V14.01,2013-03-16 12:10:00,
2013-03-16 08:11:00,58.1,54.8,30.29,NNW,330,0.0,4.0,89,0.00,,---,0.00,VWS V14.01,2013-03-16 12:11:00,
2013-03-16 08:12:00,58.2,55.0,30.29,NNW,330,0.0,4.0,89,0.00,,---,0.00,VWS V14.01,2013-03-16 12:12:00,
2013-03-16 08:13:00,58.4,55.1,30.29,NNW,330,0.0,4.0,89,0.00,,---,0.00,VWS V14.01,2013-03-16 12:13:00,
2013-03-16 08:14:00,58.6,55.3,30.29,NNW,330,0.0,4.0,89,0.00,,---,0.00,VWS V14.01,2013-03-16 12:14:00,
2013-03-16 08:15:00,58.8,55.4,30.29,NNW,330,0.0,4.0,88,0.00,,---,0.00,VWS V14.01,2013-03-16 12:15:00,
2013-03-16 08:16:00,58.9,55.5,30.29,NNW,330,0.0,4.0,88,0.00,,---,0.00,VWS V14.01,2013-03-16 12:16:00,
2013-03-16 08:17:00,59.0,55.5,30.29,NNW,330,0.0,4.0,88,0.00,,---,0.00,VWS V14.01,2013-03-16 12:17:00,
2013-03-16 08:18:00,59.1,55.5,30.29,NW,304,0.0,4.0,88,0.00,,---,0.00,VWS V14.01,2013-03-16 12:18:00,
2013-03-16 08:19:00,59.2,55.6,30.29,NW,304,0.0,4.0,88,0.00,,---,0.00,VWS V14.01,2013-03-16 12:19:00,
2013-03-16 08:20:00,59.4,55.7,30.28,NW,304,0.0,4.0,88,0.00,,---,0.00,VWS V14.01,2013-03-16 12:20:00,
2013-03-16 08:21:00,59.5,55.8,30.28,NW,304,0.0,4.0,88,0.00,,---,0.00,VWS V14.01,2013-03-16 12:21:00,
2013-03-16 08:22:00,59.6,55.8,30.29,NW,304,0.0,4.0,87,0.00,,---,0.00,VWS V14.01,2013-03-16 12:22:00,
2013-03-16 08:23:00,59.8,56.0,30.28,NW,304,0.0,4.0,87,0.00,,---,0.00,VWS V14.01,2013-03-16 12:23:00,
2013-03-16 08:24:00,59.8,56.0,30.28,NW,304,0.0,4.0,87,0.00,,---,0.00,VWS V14.01,2013-03-16 12:24:00,
2013-03-16 08:25:00,60.1,56.2,30.28,NW,304,0.0,4.0,87,0.00,,---,0.00,VWS V14.01,2013-03-16 12:25:00,
2013-03-16 08:26:00,60.2,56.3,30.29,NW,304,0.0,4.0,87,0.00,,---,0.00,VWS V14.01,2013-03-16 12:26:00,
2013-03-16 08:27:00,60.5,56.5,30.29,NW,304,0.0,4.0,87,0.00,,---,0.00,VWS V14.01,2013-03-16 12:27:00,
2013-03-16 08:28:00,60.5,56.4,30.29,NW,309,0.9,4.0,86,0.00,,---,0.00,VWS V14.01,2013-03-16 12:28:00,
2013-03-16 08:29:00,60.5,56.4,30.29,NW,304,0.0,4.0,86,0.00,,---,0.00,VWS V14.01,2013-03-16 12:29:00,
2013-03-16 08:30:00,60.7,56.5,30.29,NW,304,0.0,4.0,86,0.00,,---,0.00,VWS V14.01,2013-03-16 12:30:00,
2013-03-16 08:31:00,60.8,56.6,30.29,NW,304,0.0,4.0,86,0.00,,---,0.00,VWS V14.01,2013-03-16 12:31:00,
2013-03-16 08:32:00,61.1,56.8,30.29,NW,312,1.4,4.0,86,0.00,,---,0.00,VWS V14.01,2013-03-16 12:32:00,
2013-03-16 08:33:00,61.3,56.9,30.29,NW,311,0.0,4.0,85,0.00,,---,0.00,VWS V14.01,2013-03-16 12:33:00,
2013-03-16 08:34:00,61.3,56.7,30.29,WNW,298,0.6,4.0,85,0.00,,---,0.00,VWS V14.01,2013-03-16 12:34:00,
2013-03-16 08:35:00,61.5,56.5,30.29,WNW,290,0.7,4.0,84,0.00,,---,0.00,VWS V14.01,2013-03-16 12:35:00,
2013-03-16 08:36:00,61.6,56.7,30.29,WNW,298,0.0,4.0,84,0.00,,---,0.00,VWS V14.01,2013-03-16 12:36:00,
2013-03-16 08:37:00,61.8,56.9,30.29,WNW,298,0.0,4.0,84,0.00,,---,0.00,VWS V14.01,2013-03-16 12:37:00,
2013-03-16 08:38:00,61.9,56.9,30.29,WNW,298,0.0,4.0,84,0.00,,---,0.00,VWS V14.01,2013-03-16 12:38:00,
2013-03-16 08:39:00,62.3,57.1,30.29,WNW,298,0.0,4.0,83,0.00,,---,0.00,VWS V14.01,2013-03-16 12:39:00,
2013-03-16 08:40:00,62.3,57.0,30.29,NW,311,1.1,4.0,83,0.00,,---,0.00,VWS V14.01,2013-03-16 12:40:00,
2013-03-16 08:41:00,62.5,56.7,30.29,NW,308,1.9,4.0,81,0.00,,---,0.00,VWS V14.01,2013-03-16 12:41:00,
2013-03-16 08:42:00,62.7,56.5,30.29,NW,305,1.0,4.0,80,0.00,,---,0.00,VWS V14.01,2013-03-16 12:42:00,
2013-03-16 08:43:00,63.0,56.7,30.29,WNW,302,0.0,4.0,80,0.00,,---,0.00,VWS V14.01,2013-03-16 12:43:00,
2013-03-16 08:44:00,62.8,56.4,30.29,NW,311,2.1,4.0,80,0.00,,---,0.00,VWS V14.01,2013-03-16 12:44:00,
2013-03-16 08:45:00,63.2,56.0,30.29,NW,308,1.6,4.0,77,0.00,,---,0.00,VWS V14.01,2013-03-16 12:45:00,
2013-03-16 08:46:00,63.4,55.9,30.29,NW,309,1.7,4.0,76,0.00,,---,0.00,VWS V14.01,2013-03-16 12:46:00,
2013-03-16 08:47:00,63.6,56.2,30.29,WNW,301,0.7,4.0,77,0.00,,---,0.00,VWS V14.01,2013-03-16 12:47:00,
2013-03-16 08:48:00,63.7,56.0,30.29,NW,311,1.4,4.0,76,0.00,,---,0.00,VWS V14.01,2013-03-16 12:48:00,
2013-03-16 08:49:00,63.8,56.3,30.29,NW,309,1.7,4.0,76,0.00,,---,0.00,VWS V14.01,2013-03-16 12:49:00,
2013-03-16 08:50:00,63.9,56.3,30.29,West,266,0.0,4.0,76,0.00,,---,0.00,VWS V14.01,2013-03-16 12:50:00,
2013-03-16 08:51:00,64.0,56.5,30.29,West,281,1.0,4.0,77,0.00,,---,0.00,VWS V14.01,2013-03-16 12:51:00,
2013-03-16 08:52:00,64.4,56.2,30.29,West,271,1.9,4.0,75,0.00,,---,0.00,VWS V14.01,2013-03-16 12:52:00,
2013-03-16 08:53:00,64.3,55.8,30.29,WSW,249,0.7,4.0,74,0.00,,---,0.00,VWS V14.01,2013-03-16 12:53:00,
2013-03-16 08:54:00,64.5,56.2,30.29,SW,219,0.0,4.0,74,0.00,,---,0.00,VWS V14.01,2013-03-16 12:54:00,
2013-03-16 08:55:00,64.8,56.3,30.29,SW,236,2.7,4.0,74,0.00,,---,0.00,VWS V14.01,2013-03-16 12:55:00,
2013-03-16 08:56:00,64.9,55.8,30.29,SSW,200,1.8,4.0,72,0.00,,---,0.00,VWS V14.01,2013-03-16 12:56:00,
2013-03-16 08:57:00,64.8,55.8,30.29,SW,236,1.1,4.0,73,0.00,,---,0.00,VWS V14.01,2013-03-16 12:57:00,
2013-03-16 08:58:00,65.0,54.7,30.28,WSW,249,1.7,4.0,69,0.00,,---,0.00,VWS V14.01,2013-03-16 12:58:00,
2013-03-16 08:59:00,65.1,54.7,30.28,WSW,250,2.2,4.0,69,0.00,,---,0.00,VWS V14.01,2013-03-16 12:59:00,
2013-03-16 09:00:00,65.1,54.6,30.28,SW,232,0.5,4.0,69,0.00,,---,0.00,VWS V14.01,2013-03-16 13:00:00,
2013-03-16 09:01:00,65.1,53.0,30.28,SW,229,4.6,5.0,65,0.00,,---,0.00,VWS V14.01,2013-03-16 13:01:00,
2013-03-16 09:02:00,65.4,54.8,30.28,West,269,1.1,5.0,69,0.00,,---,0.00,VWS V14.01,2013-03-16 13:02:00,
2013-03-16 09:03:00,65.4,55.0,30.29,SW,222,2.4,5.0,69,0.00,,---,0.00,VWS V14.01,2013-03-16 13:03:00,
2013-03-16 09:04:00,65.7,55.1,30.28,SW,218,1.2,5.0,68,0.00,,---,0.00,VWS V14.01,2013-03-16 13:04:00,
2013-03-16 09:05:00,65.7,55.1,30.29,WSW,243,2.5,5.0,68,0.00,,---,0.00,VWS V14.01,2013-03-16 13:05:00,
2013-03-16 09:06:00,65.9,55.2,30.29,SSW,197,0.0,5.0,68,0.00,,---,0.00,VWS V14.01,2013-03-16 13:06:00,
2013-03-16 09:07:00,66.0,55.3,30.29,SSW,197,0.0,5.0,68,0.00,,---,0.00,VWS V14.01,2013-03-16 13:07:00,
2013-03-16 09:08:00,66.4,54.1,30.29,WSW,248,3.7,5.0,65,0.00,,---,0.00,VWS V14.01,2013-03-16 13:08:00,
2013-03-16 09:09:00,66.2,53.7,30.29,SW,236,3.2,5.0,64,0.00,,---,0.00,VWS V14.01,2013-03-16 13:09:00,
2013-03-16 09:10:00,66.4,54.1,30.29,SW,231,1.3,5.0,65,0.00,,---,0.00,VWS V14.01,2013-03-16 13:10:00,
2013-03-16 09:11:00,66.6,53.9,30.29,WSW,242,3.7,5.0,64,0.00,,---,0.00,VWS V14.01,2013-03-16 13:11:00,
2013-03-16 09:12:00,66.6,54.1,30.29,WSW,240,2.4,5.0,64,0.00,,---,0.00,VWS V14.01,2013-03-16 13:12:00,
2013-03-16 09:13:00,66.7,54.2,30.29,WSW,240,1.4,5.0,64,0.00,,---,0.00,VWS V14.01,2013-03-16 13:13:00,
2013-03-16 09:14:00,66.8,54.6,30.29,SSE,167,0.6,5.0,65,0.00,,---,0.00,VWS V14.01,2013-03-16 13:14:00,
2013-03-16 09:15:00,66.9,54.7,30.29,South,181,1.1,5.0,65,0.00,,---,0.00,VWS V14.01,2013-03-16 13:15:00,
2013-03-16 09:16:00,67.0,54.4,30.29,South,191,2.9,5.0,64,0.00,,---,0.00,VWS V14.01,2013-03-16 13:16:00,
2013-03-16 09:17:00,67.0,54.1,30.29,SSW,207,3.0,5.0,63,0.00,,---,0.00,VWS V14.01,2013-03-16 13:17:00,
2013-03-16 09:18:00,67.1,54.5,30.29,SSW,211,0.9,5.0,64,0.00,,---,0.00,VWS V14.01,2013-03-16 13:18:00,
2013-03-16 09:19:00,67.4,54.9,30.29,South,174,0.0,5.0,64,0.00,,---,0.00,VWS V14.01,2013-03-16 13:19:00,
2013-03-16 09:20:00,67.5,55.0,30.29,South,174,0.0,5.0,64,0.00,,---,0.00,VWS V14.01,2013-03-16 13:20:00,
2013-03-16 09:21:00,68.0,54.1,30.29,SW,215,0.7,5.0,61,0.00,,---,0.00,VWS V14.01,2013-03-16 13:21:00,
2013-03-16 09:22:00,68.0,55.1,30.29,WSW,246,3.1,5.0,63,0.00,,---,0.00,VWS V14.01,2013-03-16 13:22:00,
2013-03-16 09:23:00,67.9,52.6,30.29,WSW,249,2.7,5.5,58,0.00,,---,0.00,VWS V14.01,2013-03-16 13:23:00,
2013-03-16 09:24:00,67.9,53.2,30.29,SSW,205,1.0,5.5,59,0.00,,---,0.00,VWS V14.01,2013-03-16 13:24:00,
2013-03-16 09:25:00,68.2,54.2,30.29,South,173,0.0,5.5,61,0.00,,---,0.00,VWS V14.01,2013-03-16 13:25:00,
2013-03-16 09:26:00,68.1,53.8,30.29,South,173,0.0,5.5,60,0.00,,---,0.00,VWS V14.01,2013-03-16 13:26:00,
2013-03-16 09:27:00,68.1,53.8,30.29,SSW,205,1.7,5.5,60,0.00,,---,0.00,VWS V14.01,2013-03-16 13:27:00,
2013-03-16 09:28:00,68.1,53.9,30.29,SE,146,0.0,5.5,60,0.00,,---,0.00,VWS V14.01,2013-03-16 13:28:00,
2013-03-16 09:29:00,68.3,54.4,30.29,SSE,163,0.0,5.5,61,0.00,,---,0.00,VWS V14.01,2013-03-16 13:29:00,
2013-03-16 09:30:00,68.4,53.9,30.29,WSW,240,3.5,5.5,60,0.00,,---,0.00,VWS V14.01,2013-03-16 13:30:00,
2013-03-16 09:31:00,68.4,53.8,30.29,WNW,288,3.6,5.5,60,0.00,,---,0.00,VWS V14.01,2013-03-16 13:31:00,
2013-03-16 09:32:00,68.4,53.8,30.29,SSW,204,4.7,5.5,60,0.00,,---,0.00,VWS V14.01,2013-03-16 13:32:00,
2013-03-16 09:33:00,68.5,53.8,30.29,WSW,245,3.5,5.5,60,0.00,,---,0.00,VWS V14.01,2013-03-16 13:33:00,
2013-03-16 09:34:00,68.5,52.6,30.29,WSW,245,2.8,5.5,57,0.00,,---,0.00,VWS V14.01,2013-03-16 13:34:00,
2013-03-16 09:35:00,68.5,52.2,30.28,WSW,257,1.2,5.5,56,0.00,,---,0.00,VWS V14.01,2013-03-16 13:35:00,
2013-03-16 09:36:00,68.7,53.2,30.29,SSW,197,0.4,5.5,58,0.00,,---,0.00,VWS V14.01,2013-03-16 13:36:00,
2013-03-16 09:37:00,68.4,51.8,30.29,South,176,1.4,5.5,55,0.00,,---,0.00,VWS V14.01,2013-03-16 13:37:00,
2013-03-16 09:38:00,68.5,52.8,30.28,ESE,118,2.2,5.5,57,0.00,,---,0.00,VWS V14.01,2013-03-16 13:38:00,
2013-03-16 09:39:00,68.4,50.9,30.28,East,94,3.5,5.5,54,0.00,,---,0.00,VWS V14.01,2013-03-16 13:39:00,
2013-03-16 09:40:00,68.5,51.8,30.28,South,183,1.9,5.5,55,0.00,,---,0.00,VWS V14.01,2013-03-16 13:40:00,
2013-03-16 09:41:00,68.6,52.2,30.28,South,170,0.9,5.5,56,0.00,,---,0.00,VWS V14.01,2013-03-16 13:41:00,
2013-03-16 09:42:00,68.7,52.2,30.28,SSE,152,0.0,5.5,56,0.00,,---,0.00,VWS V14.01,2013-03-16 13:42:00,
2013-03-16 09:43:00,68.9,52.5,30.29,SSW,194,2.2,5.5,56,0.00,,---,0.00,VWS V14.01,2013-03-16 13:43:00,
2013-03-16 09:44:00,69.0,52.8,30.29,SW,217,2.1,5.5,56,0.00,,---,0.00,VWS V14.01,2013-03-16 13:44:00,
2013-03-16 09:45:00,69.3,52.7,30.29,South,169,2.2,5.5,56,0.00,,---,0.00,VWS V14.01,2013-03-16 13:45:00,
2013-03-16 09:46:00,69.3,51.2,30.29,South,184,3.2,5.5,52,0.00,,---,0.00,VWS V14.01,2013-03-16 13:46:00,
2013-03-16 09:47:00,69.4,51.7,30.29,ESE,111,0.7,5.5,53,0.00,,---,0.00,VWS V14.01,2013-03-16 13:47:00,
2013-03-16 09:48:00,69.6,51.5,30.28,South,181,2.7,5.5,53,0.00,,---,0.00,VWS V14.01,2013-03-16 13:48:00,
2013-03-16 09:49:00,69.6,51.9,30.28,South,190,1.7,5.5,53,0.00,,---,0.00,VWS V14.01,2013-03-16 13:49:00,
2013-03-16 09:50:00,69.7,52.8,30.28,South,174,0.0,5.5,55,0.00,,---,0.00,VWS V14.01,2013-03-16 13:50:00,
2013-03-16 09:51:00,69.5,52.5,30.28,ENE,70,1.1,5.5,55,0.00,,---,0.00,VWS V14.01,2013-03-16 13:51:00,
2013-03-16 09:52:00,69.6,51.8,30.29,NE,56,1.6,5.5,53,0.00,,---,0.00,VWS V14.01,2013-03-16 13:52:00,
2013-03-16 09:53:00,69.6,52.8,30.29,SE,128,0.0,5.5,55,0.00,,---,0.00,VWS V14.01,2013-03-16 13:53:00,
2013-03-16 09:54:00,69.6,53.2,30.28,SE,128,0.0,5.5,56,0.00,,---,0.00,VWS V14.01,2013-03-16 13:54:00,
2013-03-16 09:55:00,69.8,53.3,30.29,SE,128,0.0,5.5,56,0.00,,---,0.00,VWS V14.01,2013-03-16 13:55:00,
2013-03-16 09:56:00,69.8,53.0,30.29,SSE,167,5.0,5.7,55,0.00,,---,0.00,VWS V14.01,2013-03-16 13:56:00,
2013-03-16 09:57:00,69.9,52.2,30.29,SSE,152,6.0,6.0,53,0.00,,---,0.00,VWS V14.01,2013-03-16 13:57:00,
2013-03-16 09:58:00,70.2,50.5,30.29,SE,134,4.5,7.1,50,0.00,,---,0.00,VWS V14.01,2013-03-16 13:58:00,
2013-03-16 09:59:00,70.2,50.4,30.29,ESE,122,4.0,7.1,49,0.00,,---,0.00,VWS V14.01,2013-03-16 13:59:00,
2013-03-16 10:00:00,70.2,50.1,30.29,SE,124,0.9,7.1,49,0.00,,---,0.00,VWS V14.01,2013-03-16 14:00:00,
2013-03-16 10:01:00,70.3,50.6,30.29,SSE,149,1.2,7.1,50,0.00,,---,0.00,VWS V14.01,2013-03-16 14:01:00,
2013-03-16 10:02:00,70.3,51.7,30.29,South,191,1.9,7.1,52,0.00,,---,0.00,VWS V14.01,2013-03-16 14:02:00,
2013-03-16 10:03:00,70.4,52.0,30.29,SW,231,3.7,7.1,52,0.00,,---,0.00,VWS V14.01,2013-03-16 14:03:00,
2013-03-16 10:04:00,70.5,50.9,30.29,South,181,1.4,7.1,50,0.00,,---,0.00,VWS V14.01,2013-03-16 14:04:00,
2013-03-16 10:05:00,70.5,50.1,30.29,SSW,197,4.7,7.1,48,0.00,,---,0.00,VWS V14.01,2013-03-16 14:05:00,
2013-03-16 10:06:00,70.5,50.9,30.29,WSW,245,3.8,7.1,50,0.00,,---,0.00,VWS V14.01,2013-03-16 14:06:00,
2013-03-16 10:07:00,70.5,51.5,30.29,SW,219,4.3,7.1,51,0.00,,---,0.00,VWS V14.01,2013-03-16 14:07:00,
2013-03-16 10:08:00,70.4,51.1,30.29,South,172,3.7,7.1,50,0.00,,---,0.00,VWS V14.01,2013-03-16 14:08:00,
2013-03-16 10:09:00,70.6,51.3,30.29,South,170,0.0,7.1,50,0.00,,---,0.00,VWS V14.01,2013-03-16 14:09:00,
2013-03-16 10:10:00,70.7,52.3,30.29,SW,214,2.9,7.1,52,0.00,,---,0.00,VWS V14.01,2013-03-16 14:10:00,
2013-03-16 10:11:00,70.7,51.7,30.29,South,191,2.4,7.1,51,0.00,,---,0.00,VWS V14.01,2013-03-16 14:11:00,
2013-03-16 10:12:00,70.9,50.9,30.29,South,179,5.6,7.1,49,0.00,,---,0.00,VWS V14.01,2013-03-16 14:12:00,
2013-03-16 10:13:00,71.1,50.9,30.29,SSW,194,2.2,7.1,49,0.00,,---,0.00,VWS V14.01,2013-03-16 14:13:00,
2013-03-16 10:14:00,71.2,51.7,30.29,South,173,4.5,7.1,50,0.00,,---,0.00,VWS V14.01,2013-03-16 14:14:00,
2013-03-16 10:15:00,71.3,49.7,30.29,South,174,4.8,7.1,46,0.00,,---,0.00,VWS V14.01,2013-03-16 14:15:00,
2013-03-16 10:16:00,71.3,50.2,30.29,South,181,3.1,7.1,47,0.00,,---,0.00,VWS V14.01,2013-03-16 14:16:00,
2013-03-16 10:17:00,71.5,50.4,30.29,South,184,3.9,7.1,47,0.00,,---,0.00,VWS V14.01,2013-03-16 14:17:00,
2013-03-16 10:18:00,71.5,50.1,30.29,South,181,3.0,7.1,47,0.00,,---,0.00,VWS V14.01,2013-03-16 14:18:00,
2013-03-16 10:19:00,71.5,50.5,30.29,SSE,167,5.7,7.1,48,0.00,,---,0.00,VWS V14.01,2013-03-16 14:19:00,
2013-03-16 10:20:00,71.4,50.4,30.29,SSW,193,2.7,8.0,48,0.00,,---,0.00,VWS V14.01,2013-03-16 14:20:00,
2013-03-16 10:21:00,71.4,50.6,30.28,South,183,7.9,8.0,48,0.00,,---,0.00,VWS V14.01,2013-03-16 14:21:00,
2013-03-16 10:22:00,71.5,50.4,30.28,SSE,159,3.7,9.3,47,0.00,,---,0.00,VWS V14.01,2013-03-16 14:22:00,
2013-03-16 10:23:00,71.5,50.6,30.28,SE,139,5.7,9.3,48,0.00,,---,0.00,VWS V14.01,2013-03-16 14:23:00,
2013-03-16 10:24:00,71.4,50.4,30.28,South,169,4.6,9.3,48,0.00,,---,0.00,VWS V14.01,2013-03-16 14:24:00,
2013-03-16 10:25:00,71.4,51.0,30.28,SSE,163,0.9,9.3,49,0.00,,---,0.00,VWS V14.01,2013-03-16 14:25:00,
2013-03-16 10:26:00,71.7,50.8,30.28,South,180,3.2,9.3,48,0.00,,---,0.00,VWS V14.01,2013-03-16 14:26:00,
2013-03-16 10:27:00,71.6,50.7,30.28,SSW,198,10.7,11.2,48,0.00,,---,0.00,VWS V14.01,2013-03-16 14:27:00,
2013-03-16 10:28:00,71.7,51.0,30.28,South,190,2.5,11.2,48,0.00,,---,0.00,VWS V14.01,2013-03-16 14:28:00,
2013-03-16 10:29:00,71.8,50.2,30.28,SW,215,4.6,11.2,46,0.00,,---,0.00,VWS V14.01,2013-03-16 14:29:00,
2013-03-16 10:30:00,71.7,49.2,30.28,ESE,118,3.0,11.2,45,0.00,,---,0.00,VWS V14.01,2013-03-16 14:30:00,
2013-03-16 10:31:00,71.7,49.7,30.28,SSE,163,2.1,11.2,46,0.00,,---,0.00,VWS V14.01,2013-03-16 14:31:00,
2013-03-16 10:32:00,71.7,49.5,30.28,SSW,204,1.4,11.2,45,0.00,,---,0.00,VWS V14.01,2013-03-16 14:32:00,
2013-03-16 10:33:00,71.6,50.1,30.28,SW,221,2.4,11.2,47,0.00,,---,0.00,VWS V14.01,2013-03-16 14:33:00,
2013-03-16 10:34:00,71.8,51.0,30.28,South,186,2.9,11.2,48,0.00,,---,0.00,VWS V14.01,2013-03-16 14:34:00,
2013-03-16 10:35:00,71.6,50.2,30.28,South,184,6.4,11.2,47,0.00,,---,0.00,VWS V14.01,2013-03-16 14:35:00,
2013-03-16 10:36:00,71.8,50.8,30.28,South,186,3.3,11.2,48,0.00,,---,0.00,VWS V14.01,2013-03-16 14:36:00,
2013-03-16 10:37:00,71.9,50.1,30.28,SSW,197,1.7,11.2,46,0.00,,---,0.00,VWS V14.01,2013-03-16 14:37:00,
2013-03-16 10:38:00,72.1,50.3,30.28,SSW,193,3.0,11.2,46,0.00,,---,0.00,VWS V14.01,2013-03-16 14:38:00,
2013-03-16 10:39:00,72.0,50.6,30.28,SSW,202,3.7,11.2,47,0.00,,---,0.00,VWS V14.01,2013-03-16 14:39:00,
2013-03-16 10:40:00,72.2,50.2,30.28,SSW,204,7.0,11.2,46,0.00,,---,0.00,VWS V14.01,2013-03-16 14:40:00,
2013-03-16 10:41:00,72.1,50.3,30.28,South,186,6.1,11.2,46,0.00,,---,0.00,VWS V14.01,2013-03-16 14:41:00,
2013-03-16 10:42:00,72.1,51.2,30.28,South,177,6.2,11.2,48,0.00,,---,0.00,VWS V14.01,2013-03-16 14:42:00,
2013-03-16 10:43:00,72.2,51.1,30.28,SSW,205,6.2,11.2,47,0.00,,---,0.00,VWS V14.01,2013-03-16 14:43:00,
2013-03-16 10:44:00,72.2,51.3,30.28,WSW,243,1.7,11.2,48,0.00,,---,0.00,VWS V14.01,2013-03-16 14:44:00,
2013-03-16 10:45:00,72.3,50.9,30.28,SSW,205,7.6,11.2,47,0.00,,---,0.00,VWS V14.01,2013-03-16 14:45:00,
2013-03-16 10:46:00,72.0,49.9,30.28,South,180,3.4,11.2,46,0.00,,---,0.00,VWS V14.01,2013-03-16 14:46:00,
2013-03-16 10:47:00,72.2,50.2,30.28,SSW,194,2.4,11.2,46,0.00,,---,0.00,VWS V14.01,2013-03-16 14:47:00,
2013-03-16 10:48:00,72.0,50.3,30.28,SW,215,4.3,11.2,46,0.00,,---,0.00,VWS V14.01,2013-03-16 14:48:00,
2013-03-16 10:49:00,71.9,51.1,30.28,SW,235,5.0,11.2,48,0.00,,---,0.00,VWS V14.01,2013-03-16 14:49:00,
2013-03-16 10:50:00,71.8,51.3,30.28,SW,219,5.9,11.2,48,0.00,,---,0.00,VWS V14.01,2013-03-16 14:50:00,
2013-03-16 10:51:00,71.9,50.8,30.28,South,188,4.2,11.2,47,0.00,,---,0.00,VWS V14.01,2013-03-16 14:51:00,
2013-03-16 10:52:00,71.9,50.5,30.28,SW,221,3.8,11.2,47,0.00,,---,0.00,VWS V14.01,2013-03-16 14:52:00,
2013-03-16 10:53:00,72.2,51.0,30.28,SW,214,3.9,11.2,47,0.00,,---,0.00,VWS V14.01,2013-03-16 14:53:00,
2013-03-16 10:54:00,71.9,50.2,30.28,SW,235,1.7,11.2,46,0.00,,---,0.00,VWS V14.01,2013-03-16 14:54:00,
2013-03-16 10:55:00,71.9,50.5,30.28,South,176,5.1,11.2,47,0.00,,---,0.00,VWS V14.01,2013-03-16 14:55:00,
2013-03-16 10:56:00,71.8,50.8,30.28,South,186,3.0,11.2,48,0.00,,---,0.00,VWS V14.01,2013-03-16 14:56:00,
2013-03-16 10:57:00,71.7,50.5,30.28,WSW,242,6.8,11.2,47,0.00,,---,0.00,VWS V14.01,2013-03-16 14:57:00,
2013-03-16 10:58:00,71.6,50.0,30.28,SSW,207,6.8,11.2,46,0.00,,---,0.00,VWS V14.01,2013-03-16 14:58:00,
2013-03-16 10:59:00,71.7,50.4,30.28,South,179,4.5,11.2,47,0.00,,---,0.00,VWS V14.01,2013-03-16 14:59:00,
2013-03-16 11:00:00,71.6,50.6,30.28,SSW,208,8.1,11.2,48,0.00,,---,0.00,VWS V14.01,2013-03-16 15:00:00,
2013-03-16 11:01:00,71.6,51.2,30.28,SSW,207,4.8,11.2,49,0.00,,---,0.00,VWS V14.01,2013-03-16 15:01:00,
2013-03-16 11:02:00,71.6,50.8,30.28,SE,142,7.0,11.2,48,0.00,,---,0.00,VWS V14.01,2013-03-16 15:02:00,
2013-03-16 11:03:00,71.9,51.2,30.28,South,173,4.7,11.2,48,0.00,,---,0.00,VWS V14.01,2013-03-16 15:03:00,
2013-03-16 11:04:00,71.9,50.8,30.28,SSE,152,5.7,11.2,47,0.00,,---,0.00,VWS V14.01,2013-03-16 15:04:00,
2013-03-16 11:05:00,72.0,51.3,30.28,SE,125,6.7,11.2,48,0.00,,---,0.00,VWS V14.01,2013-03-16 15:05:00,
2013-03-16 11:06:00,71.9,50.6,30.28,SSE,159,8.6,11.2,47,0.00,,---,0.00,VWS V14.01,2013-03-16 15:06:00,
2013-03-16 11:07:00,71.9,50.8,30.28,SSE,149,5.2,11.2,47,0.00,,---,0.00,VWS V14.01,2013-03-16 15:07:00,
2013-03-16 11:08:00,71.8,50.4,30.28,ESE,117,7.5,11.2,47,0.00,,---,0.00,VWS V14.01,2013-03-16 15:08:00,
2013-03-16 11:09:00,71.9,51.0,30.28,SE,138,5.3,11.2,48,0.00,,---,0.00,VWS V14.01,2013-03-16 15:09:00,
2013-03-16 11:10:00,72.1,51.2,30.28,SSE,159,5.8,11.2,48,0.00,,---,0.00,VWS V14.01,2013-03-16 15:10:00,
2013-03-16 11:11:00,72.0,51.1,30.28,South,174,3.9,11.2,48,0.00,,---,0.00,VWS V14.01,2013-03-16 15:11:00,
2013-03-16 11:12:00,72.3,51.2,30.28,SE,135,3.7,11.2,48,0.00,,---,0.00,VWS V14.01,2013-03-16 15:12:00,
2013-03-16 11:13:00,72.4,51.6,30.27,SE,138,4.5,11.2,48,0.00,,---,0.00,VWS V14.01,2013-03-16 15:13:00,
2013-03-16 11:14:00,72.4,51.0,30.27,SE,135,7.0,11.2,47,0.00,,---,0.00,VWS V14.01,2013-03-16 15:14:00,
2013-03-16 11:15:00,72.4,51.2,30.27,SE,134,5.5,11.2,47,0.00,,---,0.00,VWS V14.01,2013-03-16 15:15:00,
2013-03-16 11:16:00,72.6,50.5,30.27,SSW,205,3.9,11.2,46,0.00,,---,0.00,VWS V14.01,2013-03-16 15:16:00,
2013-03-16 11:17:00,72.5,50.7,30.27,South,184,5.2,11.2,46,0.00,,---,0.00,VWS V14.01,2013-03-16 15:17:00,
2013-03-16 11:18:00,72.6,50.5,30.27,South,183,6.5,11.2,46,0.00,,---,0.00,VWS V14.01,2013-03-16 15:18:00,
2013-03-16 11:19:00,72.8,51.0,30.27,SW,218,5.0,11.2,46,0.00,,---,0.00,VWS V14.01,2013-03-16 15:19:00,
2013-03-16 11:20:00,72.7,51.0,30.27,South,183,5.3,11.2,46,0.00,,---,0.00,VWS V14.01,2013-03-16 15:20:00,
2013-03-16 11:21:00,72.9,51.4,30.27,South,187,5.4,11.2,47,0.00,,---,0.00,VWS V14.01,2013-03-16 15:21:00,
2013-03-16 11:22:00,72.9,50.9,30.27,SSW,208,6.9,11.2,46,0.00,,---,0.00,VWS V14.01,2013-03-16 15:22:00,
2013-03-16 11:23:00,72.9,51.5,30.27,South,181,7.1,11.2,47,0.00,,---,0.00,VWS V14.01,2013-03-16 15:23:00,
2013-03-16 11:24:00,72.9,50.5,30.27,SSW,205,4.2,11.6,45,0.00,,---,0.00,VWS V14.01,2013-03-16 15:24:00,
2013-03-16 11:25:00,72.9,50.3,30.27,SSW,202,3.8,11.6,45,0.00,,---,0.00,VWS V14.01,2013-03-16 15:25:00,
2013-03-16 11:26:00,73.1,51.1,30.27,South,180,1.3,11.6,46,0.00,,---,0.00,VWS V14.01,2013-03-16 15:26:00,
2013-03-16 11:27:00,73.3,50.9,30.26,SSE,160,2.7,11.6,45,0.00,,---,0.00,VWS V14.01,2013-03-16 15:27:00,
2013-03-16 11:28:00,73.0,50.9,30.27,SSW,198,7.6,11.6,46,0.00,,---,0.00,VWS V14.01,2013-03-16 15:28:00,
2013-03-16 11:29:00,73.3,50.8,30.27,South,173,5.8,12.7,45,0.00,,---,0.00,VWS V14.01,2013-03-16 15:29:00,
2013-03-16 11:30:00,73.2,50.5,30.27,SSE,150,6.5,12.7,45,0.00,,---,0.00,VWS V14.01,2013-03-16 15:30:00,
2013-03-16 11:31:00,73.2,50.7,30.27,SSE,160,7.1,12.7,45,0.00,,---,0.00,VWS V14.01,2013-03-16 15:31:00,
2013-03-16 11:32:00,73.1,51.2,30.27,South,169,5.7,12.7,46,0.00,,---,0.00,VWS V14.01,2013-03-16 15:32:00,
2013-03-16 11:33:00,73.1,49.9,30.27,ESE,114,4.5,12.7,44,0.00,,---,0.00,VWS V14.01,2013-03-16 15:33:00,
2013-03-16 11:34:00,73.3,50.0,30.27,SSW,208,8.5,12.7,44,0.00,,---,0.00,VWS V14.01,2013-03-16 15:34:00,
2013-03-16 11:35:00,73.1,49.4,30.27,South,191,4.2,12.7,43,0.00,,---,0.00,VWS V14.01,2013-03-16 15:35:00,
2013-03-16 11:36:00,73.1,49.8,30.26,SSW,194,5.2,12.7,44,0.00,,---,0.00,VWS V14.01,2013-03-16 15:36:00,
2013-03-16 11:37:00,73.1,49.2,30.26,South,188,5.3,12.7,43,0.00,,---,0.00,VWS V14.01,2013-03-16 15:37:00,
2013-03-16 11:38:00,73.2,50.1,30.26,South,184,3.7,12.7,44,0.00,,---,0.00,VWS V14.01,2013-03-16 15:38:00,
2013-03-16 11:39:00,73.0,48.9,30.26,SSW,202,9.1,12.7,42,0.00,,---,0.00,VWS V14.01,2013-03-16 15:39:00,
2013-03-16 11:40:00,73.1,49.4,30.26,SSE,150,4.0,12.7,43,0.00,,---,0.00,VWS V14.01,2013-03-16 15:40:00,
2013-03-16 11:41:00,73.2,49.5,30.26,SSW,193,4.0,12.7,43,0.00,,---,0.00,VWS V14.01,2013-03-16 15:41:00,
2013-03-16 11:42:00,73.2,48.8,30.26,SSE,163,5.5,12.7,42,0.00,,---,0.00,VWS V14.01,2013-03-16 15:42:00,
2013-03-16 11:43:00,73.1,47.6,30.26,South,183,6.4,12.7,40,0.00,,---,0.00,VWS V14.01,2013-03-16 15:43:00,
2013-03-16 11:44:00,73.2,48.2,30.26,South,174,8.4,12.7,41,0.00,,---,0.00,VWS V14.01,2013-03-16 15:44:00,
2013-03-16 11:45:00,73.1,47.6,30.26,SSW,205,4.2,12.7,40,0.00,,---,0.00,VWS V14.01,2013-03-16 15:45:00,
2013-03-16 11:46:00,72.9,47.5,30.26,South,176,2.9,12.7,40,0.00,,---,0.00,VWS V14.01,2013-03-16 15:46:00,
2013-03-16 11:47:00,73.2,48.0,30.26,SSW,195,5.0,12.7,41,0.00,,---,0.00,VWS V14.01,2013-03-16 15:47:00,
2013-03-16 11:48:00,73.4,48.5,30.26,South,190,1.7,12.7,41,0.00,,---,0.00,VWS V14.01,2013-03-16 15:48:00,
2013-03-16 11:49:00,73.5,48.1,30.26,South,186,3.2,12.7,41,0.00,,---,0.00,VWS V14.01,2013-03-16 15:49:00,
2013-03-16 11:50:00,73.5,48.7,30.26,SSW,204,4.7,12.7,42,0.00,,---,0.00,VWS V14.01,2013-03-16 15:50:00,
2013-03-16 11:51:00,73.5,48.8,30.26,South,191,5.7,12.7,42,0.00,,---,0.00,VWS V14.01,2013-03-16 15:51:00,
2013-03-16 11:52:00,73.3,48.2,30.26,South,190,7.6,12.7,41,0.00,,---,0.00,VWS V14.01,2013-03-16 15:52:00,
2013-03-16 11:53:00,73.3,48.7,30.26,South,188,6.2,12.7,42,0.00,,---,0.00,VWS V14.01,2013-03-16 15:53:00,
2013-03-16 11:54:00,73.2,48.6,30.26,SW,218,4.1,12.7,42,0.00,,---,0.00,VWS V14.01,2013-03-16 15:54:00,
2013-03-16 11:55:00,73.4,49.6,30.26,South,180,3.9,12.7,43,0.00,,---,0.00,VWS V14.01,2013-03-16 15:55:00,
2013-03-16 11:56:00,73.3,49.0,30.26,SSE,165,6.8,12.7,42,0.00,,---,0.00,VWS V14.01,2013-03-16 15:56:00,
2013-03-16 11:57:00,73.4,48.6,30.26,South,183,4.0,12.7,42,0.00,,---,0.00,VWS V14.01,2013-03-16 15:57:00,
2013-03-16 11:58:00,73.6,48.9,30.26,SSW,212,5.1,12.7,42,0.00,,---,0.00,VWS V14.01,2013-03-16 15:58:00,
2013-03-16 11:59:00,73.8,48.4,30.26,South,173,5.3,12.7,41,0.00,,---,0.00,VWS V14.01,2013-03-16 15:59:00,
2013-03-16 12:00:00,73.8,48.7,30.26,SW,222,4.5,12.7,41,0.00,,---,0.00,VWS V14.01,2013-03-16 16:00:00,
2013-03-16 12:01:00,73.9,48.3,30.26,South,169,4.0,12.7,40,0.00,,---,0.00,VWS V14.01,2013-03-16 16:01:00,
2013-03-16 12:02:00,74.0,49.3,30.26,SW,219,6.3,12.7,42,0.00,,---,0.00,VWS V14.01,2013-03-16 16:02:00,
2013-03-16 12:03:00,73.9,47.7,30.26,South,187,8.1,12.7,39,0.00,,---,0.00,VWS V14.01,2013-03-16 16:03:00,
2013-03-16 12:04:00,73.6,46.8,30.26,South,179,5.2,12.7,38,0.00,,---,0.00,VWS V14.01,2013-03-16 16:04:00,
2013-03-16 12:05:00,73.5,48.1,30.26,SE,124,2.0,12.7,40,0.00,,---,0.00,VWS V14.01,2013-03-16 16:05:00,
2013-03-16 12:06:00,73.5,48.5,30.26,South,170,4.1,12.7,41,0.00,,---,0.00,VWS V14.01,2013-03-16 16:06:00,
2013-03-16 12:07:00,73.7,49.2,30.26,South,174,4.5,12.7,42,0.00,,---,0.00,VWS V14.01,2013-03-16 16:07:00,
2013-03-16 12:08:00,73.5,48.5,30.26,SSW,197,4.7,12.7,41,0.00,,---,0.00,VWS V14.01,2013-03-16 16:08:00,
2013-03-16 12:09:00,73.6,48.6,30.26,SSW,210,5.6,12.7,41,0.00,,---,0.00,VWS V14.01,2013-03-16 16:09:00,
2013-03-16 12:10:00,73.5,48.8,30.26,SSE,166,4.0,12.7,42,0.00,,---,0.00,VWS V14.01,2013-03-16 16:10:00,
2013-03-16 12:11:00,73.4,49.2,30.26,South,188,0.0,12.7,42,0.00,,---,0.00,VWS V14.01,2013-03-16 16:11:00,
2013-03-16 12:12:00,73.5,50.2,30.26,South,184,2.0,12.7,44,0.00,,---,0.00,VWS V14.01,2013-03-16 16:12:00,
2013-03-16 12:13:00,73.6,49.3,30.26,SSW,207,4.4,12.7,42,0.00,,---,0.00,VWS V14.01,2013-03-16 16:13:00,
2013-03-16 12:14:00,73.6,49.6,30.26,SSE,155,6.2,12.7,43,0.00,,---,0.00,VWS V14.01,2013-03-16 16:14:00,
2013-03-16 12:15:00,73.5,49.4,30.26,South,174,5.3,12.7,43,0.00,,---,0.00,VWS V14.01,2013-03-16 16:15:00,
2013-03-16 12:16:00,73.8,50.0,30.26,SSE,159,6.3,12.7,43,0.00,,---,0.00,VWS V14.01,2013-03-16 16:16:00,
2013-03-16 12:17:00,73.8,49.5,30.26,South,188,8.9,12.7,42,0.00,,---,0.00,VWS V14.01,2013-03-16 16:17:00,
2013-03-16 12:18:00,74.0,50.3,30.26,SSW,195,6.3,12.7,43,0.00,,---,0.00,VWS V14.01,2013-03-16 16:18:00,
2013-03-16 12:19:00,74.1,50.0,30.26,SSE,150,1.8,12.7,43,0.00,,---,0.00,VWS V14.01,2013-03-16 16:19:00,
2013-03-16 12:20:00,74.0,50.0,30.26,WSW,238,4.0,12.7,43,0.00,,---,0.00,VWS V14.01,2013-03-16 16:20:00,
2013-03-16 12:21:00,73.9,49.9,30.26,SSW,201,7.5,12.7,43,0.00,,---,0.00,VWS V14.01,2013-03-16 16:21:00,
2013-03-16 12:22:00,74.0,50.2,30.26,South,180,7.6,12.7,43,0.00,,---,0.00,VWS V14.01,2013-03-16 16:22:00,
2013-03-16 12:23:00,73.9,49.2,30.26,South,181,9.8,12.7,42,0.00,,---,0.00,VWS V14.01,2013-03-16 16:23:00,
2013-03-16 12:24:00,73.8,49.4,30.26,SW,229,0.6,12.7,42,0.00,,---,0.00,VWS V14.01,2013-03-16 16:24:00,
2013-03-16 12:25:00,73.9,49.8,30.26,South,179,4.8,12.7,43,0.00,,---,0.00,VWS V14.01,2013-03-16 16:25:00,
2013-03-16 12:26:00,73.9,49.6,30.26,South,180,8.3,12.7,42,0.00,,---,0.00,VWS V14.01,2013-03-16 16:26:00,
2013-03-16 12:27:00,73.7,50.0,30.26,South,187,8.4,12.7,43,0.00,,---,0.00,VWS V14.01,2013-03-16 16:27:00,
2013-03-16 12:28:00,73.6,49.9,30.26,SSW,195,2.1,12.7,43,0.00,,---,0.00,VWS V14.01,2013-03-16 16:28:00,
2013-03-16 12:29:00,73.8,50.7,30.26,South,188,2.5,12.7,44,0.00,,---,0.00,VWS V14.01,2013-03-16 16:29:00,
2013-03-16 12:30:00,73.9,50.1,30.25,SSW,198,7.3,12.7,43,0.00,,---,0.00,VWS V14.01,2013-03-16 16:30:00,
2013-03-16 12:31:00,73.7,49.9,30.26,South,176,5.3,12.7,43,0.00,,---,0.00,VWS V14.01,2013-03-16 16:31:00,
2013-03-16 12:32:00,73.7,50.2,30.25,SSW,205,3.8,12.7,44,0.00,,---,0.00,VWS V14.01,2013-03-16 16:32:00,
2013-03-16 12:33:00,73.6,50.1,30.26,SSW,211,10.7,12.7,44,0.00,,---,0.00,VWS V14.01,2013-03-16 16:33:00,
2013-03-16 12:34:00,73.3,50.4,30.25,South,184,9.9,12.7,44,0.00,,---,0.00,VWS V14.01,2013-03-16 16:34:00,
2013-03-16 12:35:00,73.4,50.3,30.25,SSW,193,9.4,12.7,44,0.00,,---,0.00,VWS V14.01,2013-03-16 16:35:00,
2013-03-16 12:36:00,73.3,50.6,30.26,South,191,6.3,12.7,45,0.00,,---,0.00,VWS V14.01,2013-03-16 16:36:00,
2013-03-16 12:37:00,73.3,50.1,30.25,South,184,4.9,12.7,44,0.00,,---,0.00,VWS V14.01,2013-03-16 16:37:00,
2013-03-16 12:38:00,73.3,49.9,30.25,South,180,2.9,12.7,44,0.00,,---,0.00,VWS V14.01,2013-03-16 16:38:00,
2013-03-16 12:39:00,73.3,50.5,30.25,SE,129,4.7,12.7,45,0.00,,---,0.00,VWS V14.01,2013-03-16 16:39:00,
2013-03-16 12:40:00,73.4,50.4,30.25,South,173,10.9,12.7,44,0.00,,---,0.00,VWS V14.01,2013-03-16 16:40:00,
2013-03-16 12:41:00,73.4,50.4,30.25,SE,136,7.9,12.7,44,0.00,,---,0.00,VWS V14.01,2013-03-16 16:41:00,
2013-03-16 12:42:00,73.4,50.1,30.25,South,169,6.1,12.7,44,0.00,,---,0.00,VWS V14.01,2013-03-16 16:42:00,
2013-03-16 12:43:00,73.4,49.9,30.25,SSW,200,5.9,12.7,44,0.00,,---,0.00,VWS V14.01,2013-03-16 16:43:00,
2013-03-16 12:44:00,73.6,50.7,30.25,SE,142,6.4,12.7,44,0.00,,---,0.00,VWS V14.01,2013-03-16 16:44:00,
2013-03-16 12:45:00,73.8,50.3,30.25,SE,124,6.0,12.7,44,0.00,,---,0.00,VWS V14.01,2013-03-16 16:45:00,
2013-03-16 12:46:00,73.5,50.8,30.25,South,176,6.4,12.9,45,0.00,,---,0.00,VWS V14.01,2013-03-16 16:46:00,
2013-03-16 12:47:00,73.6,50.1,30.25,SSW,193,6.5,14.0,44,0.00,,---,0.00,VWS V14.01,2013-03-16 16:47:00,
2013-03-16 12:48:00,73.7,50.9,30.25,SSW,208,4.8,14.0,45,0.00,,---,0.00,VWS V14.01,2013-03-16 16:48:00,
2013-03-16 12:49:00,73.6,50.6,30.25,SSW,193,5.9,14.0,44,0.00,,---,0.00,VWS V14.01,2013-03-16 16:49:00,
2013-03-16 12:50:00,73.7,50.5,30.25,South,174,5.1,14.0,44,0.00,,---,0.00,VWS V14.01,2013-03-16 16:50:00,
2013-03-16 12:51:00,73.5,49.4,30.25,South,177,6.4,14.0,43,0.00,,---,0.00,VWS V14.01,2013-03-16 16:51:00,
2013-03-16 12:52:00,73.1,49.7,30.24,South,186,10.6,14.2,44,0.00,,---,0.00,VWS V14.01,2013-03-16 16:52:00,
2013-03-16 12:53:00,73.1,50.3,30.24,SSW,205,10.7,14.2,45,0.00,,---,0.00,VWS V14.01,2013-03-16 16:53:00,
2013-03-16 12:54:00,72.9,50.6,30.24,SSW,201,6.5,14.2,45,0.00,,---,0.00,VWS V14.01,2013-03-16 16:54:00,
2013-03-16 12:55:00,72.9,50.3,30.24,South,184,7.5,14.2,45,0.00,,---,0.00,VWS V14.01,2013-03-16 16:55:00,
2013-03-16 12:56:00,73.0,50.3,30.24,South,173,6.3,14.2,45,0.00,,---,0.00,VWS V14.01,2013-03-16 16:56:00,
2013-03-16 12:57:00,73.0,50.4,30.24,South,187,4.8,14.2,45,0.00,,---,0.00,VWS V14.01,2013-03-16 16:57:00,
2013-03-16 12:58:00,72.9,50.4,30.24,South,173,3.4,14.2,45,0.00,,---,0.00,VWS V14.01,2013-03-16 16:58:00,
2013-03-16 12:59:00,73.1,50.5,30.24,SSW,201,4.9,14.2,45,0.00,,---,0.00,VWS V14.01,2013-03-16 16:59:00,
2013-03-16 13:00:00,73.4,50.3,30.24,SW,226,3.3,14.2,44,0.00,,---,0.00,VWS V14.01,2013-03-16 17:00:00,
2013-03-16 13:01:00,73.5,50.6,30.24,South,181,7.3,14.2,44,0.00,,---,0.00,VWS V14.01,2013-03-16 17:01:00,
2013-03-16 13:02:00,73.5,50.6,30.24,SSW,194,8.1,14.2,44,0.00,,---,0.00,VWS V14.01,2013-03-16 17:02:00,
2013-03-16 13:03:00,73.5,50.1,30.24,SSW,207,8.5,14.2,44,0.00,,---,0.00,VWS V14.01,2013-03-16 17:03:00,
2013-03-16 13:04:00,73.3,50.5,30.24,SW,215,6.2,14.2,45,0.00,,---,0.00,VWS V14.01,2013-03-16 17:04:00,
2013-03-16 13:05:00,73.5,50.9,30.24,South,176,5.3,14.2,45,0.00,,---,0.00,VWS V14.01,2013-03-16 17:05:00,
2013-03-16 13:06:00,73.4,50.0,30.24,South,180,9.1,14.3,44,0.00,,---,0.00,VWS V14.01,2013-03-16 17:06:00,
2013-03-16 13:07:00,73.2,49.9,30.24,SSE,158,5.5,14.3,44,0.00,,---,0.00,VWS V14.01,2013-03-16 17:07:00,
2013-03-16 13:08:00,73.4,50.8,30.24,SSE,160,8.9,14.3,45,0.00,,---,0.00,VWS V14.01,2013-03-16 17:08:00,
2013-03-16 13:09:00,73.4,50.6,30.23,South,181,7.5,14.3,45,0.00,,---,0.00,VWS V14.01,2013-03-16 17:09:00,
2013-03-16 13:10:00,73.4,50.6,30.24,South,190,9.6,14.3,45,0.00,,---,0.00,VWS V14.01,2013-03-16 17:10:00,
2013-03-16 13:11:00,73.3,51.0,30.23,South,187,4.7,14.5,46,0.00,,---,0.00,VWS V14.01,2013-03-16 17:11:00,
2013-03-16 13:12:00,73.3,50.8,30.23,SSW,207,2.5,14.5,45,0.00,,---,0.00,VWS V14.01,2013-03-16 17:12:00,
2013-03-16 13:13:00,73.4,51.0,30.23,South,191,4.4,14.5,45,0.00,,---,0.00,VWS V14.01,2013-03-16 17:13:00,
2013-03-16 13:14:00,73.7,51.7,30.23,SSE,165,5.7,14.5,46,0.00,,---,0.00,VWS V14.01,2013-03-16 17:14:00,
2013-03-16 13:15:00,73.6,50.7,30.24,SSE,159,4.8,14.5,45,0.00,,---,0.00,VWS V14.01,2013-03-16 17:15:00,
2013-03-16 13:16:00,73.7,51.5,30.23,SSW,208,6.6,14.5,46,0.00,,---,0.00,VWS V14.01,2013-03-16 17:16:00,
2013-03-16 13:17:00,73.7,50.9,30.23,ESE,122,1.6,14.5,45,0.00,,---,0.00,VWS V14.01,2013-03-16 17:17:00,
2013-03-16 13:18:00,73.7,51.1,30.23,SSE,156,2.5,14.5,45,0.00,,---,0.00,VWS V14.01,2013-03-16 17:18:00,
2013-03-16 13:19:00,73.9,51.1,30.23,South,177,12.6,14.5,45,0.00,,---,0.00,VWS V14.01,2013-03-16 17:19:00,
2013-03-16 13:20:00,73.8,51.6,30.23,South,190,6.9,14.5,46,0.00,,---,0.00,VWS V14.01,2013-03-16 17:20:00,
2013-03-16 13:21:00,73.9,50.8,30.23,SSW,210,6.4,14.5,44,0.00,,---,0.00,VWS V14.01,2013-03-16 17:21:00,
2013-03-16 13:22:00,73.7,50.9,30.23,South,188,10.2,14.5,45,0.00,,---,0.00,VWS V14.01,2013-03-16 17:22:00,
2013-03-16 13:23:00,73.7,51.1,30.23,SW,217,7.5,14.5,45,0.00,,---,0.00,VWS V14.01,2013-03-16 17:23:00,
2013-03-16 13:24:00,73.7,51.0,30.23,SSW,205,8.9,14.5,45,0.00,,---,0.00,VWS V14.01,2013-03-16 17:24:00,
2013-03-16 13:25:00,73.9,51.4,30.23,South,190,9.7,14.5,45,0.00,,---,0.00,VWS V14.01,2013-03-16 17:25:00,
2013-03-16 13:26:00,73.6,51.3,30.23,SW,222,7.0,14.5,46,0.00,,---,0.00,VWS V14.01,2013-03-16 17:26:00,
2013-03-16 13:27:00,73.5,50.4,30.23,SSW,207,9.3,14.5,44,0.00,,---,0.00,VWS V14.01,2013-03-16 17:27:00,
2013-03-16 13:28:00,73.7,51.2,30.23,SSW,195,3.6,14.5,45,0.00,,---,0.00,VWS V14.01,2013-03-16 17:28:00,
2013-03-16 13:29:00,73.5,50.8,30.23,SW,226,5.5,14.5,45,0.00,,---,0.00,VWS V14.01,2013-03-16 17:29:00,
2013-03-16 13:30:00,73.6,51.1,30.23,South,181,4.3,14.5,45,0.00,,---,0.00,VWS V14.01,2013-03-16 17:30:00,
2013-03-16 13:31:00,73.9,51.2,30.23,SW,221,9.1,14.5,45,0.00,,---,0.00,VWS V14.01,2013-03-16 17:31:00,
2013-03-16 13:32:00,74.0,51.1,30.23,SW,221,5.9,14.5,45,0.00,,---,0.00,VWS V14.01,2013-03-16 17:32:00,
2013-03-16 13:33:00,73.9,50.6,30.23,SSW,205,5.8,14.5,44,0.00,,---,0.00,VWS V14.01,2013-03-16 17:33:00,
2013-03-16 13:34:00,74.2,50.7,30.23,SSE,160,5.4,14.5,44,0.00,,---,0.00,VWS V14.01,2013-03-16 17:34:00,
2013-03-16 13:35:00,74.0,50.8,30.23,SSW,211,6.5,14.5,44,0.00,,---,0.00,VWS V14.01,2013-03-16 17:35:00,
2013-03-16 13:36:00,74.2,51.0,30.23,SW,214,3.4,14.5,44,0.00,,---,0.00,VWS V14.01,2013-03-16 17:36:00,
2013-03-16 13:37:00,74.2,51.5,30.23,SSW,197,5.8,14.5,45,0.00,,---,0.00,VWS V14.01,2013-03-16 17:37:00,
2013-03-16 13:38:00,74.4,50.5,30.23,South,190,6.1,14.5,43,0.00,,---,0.00,VWS V14.01,2013-03-16 17:38:00,
2013-03-16 13:39:00,74.6,51.3,30.23,South,186,3.7,14.5,44,0.00,,---,0.00,VWS V14.01,2013-03-16 17:39:00,
2013-03-16 13:40:00,74.5,50.8,30.22,SW,221,3.7,14.5,43,0.00,,---,0.00,VWS V14.01,2013-03-16 17:40:00,
2013-03-16 13:41:00,74.6,51.0,30.22,SSW,194,4.3,14.5,44,0.00,,---,0.00,VWS V14.01,2013-03-16 17:41:00,
2013-03-16 13:42:00,74.8,51.6,30.22,SSW,197,6.9,14.5,44,0.00,,---,0.00,VWS V14.01,2013-03-16 17:42:00,
2013-03-16 13:43:00,74.6,51.0,30.22,SSW,195,3.9,14.5,44,0.00,,---,0.00,VWS V14.01,2013-03-16 17:43:00,
2013-03-16 13:44:00,74.5,50.8,30.22,South,170,8.3,14.5,43,0.00,,---,0.00,VWS V14.01,2013-03-16 17:44:00,
2013-03-16 13:45:00,74.2,50.9,30.22,SSE,163,7.6,14.5,44,0.00,,---,0.00,VWS V14.01,2013-03-16 17:45:00,
2013-03-16 13:46:00,74.3,50.5,30.22,SW,221,3.9,14.5,43,0.00,,---,0.00,VWS V14.01,2013-03-16 17:46:00,
2013-03-16 13:47:00,74.1,50.7,30.22,South,172,6.5,14.5,44,0.00,,---,0.00,VWS V14.01,2013-03-16 17:47:00,
2013-03-16 13:48:00,74.0,50.5,30.22,SSW,204,8.2,14.5,44,0.00,,---,0.00,VWS V14.01,2013-03-16 17:48:00,
2013-03-16 13:49:00,73.9,51.3,30.22,SW,214,5.3,14.5,45,0.00,,---,0.00,VWS V14.01,2013-03-16 17:49:00,
2013-03-16 13:50:00,73.9,50.6,30.22,South,187,3.9,14.5,44,0.00,,---,0.00,VWS V14.01,2013-03-16 17:50:00,
2013-03-16 13:51:00,73.9,50.9,30.22,SSW,202,4.5,14.5,44,0.00,,---,0.00,VWS V14.01,2013-03-16 17:51:00,
2013-03-16 13:52:00,73.9,50.8,30.22,SW,225,5.0,14.5,44,0.00,,---,0.00,VWS V14.01,2013-03-16 17:52:00,
2013-03-16 13:53:00,74.0,51.3,30.22,SSW,193,10.1,14.5,45,0.00,,---,0.00,VWS V14.01,2013-03-16 17:53:00,
2013-03-16 13:54:00,74.1,51.6,30.22,SE,141,11.0,14.5,45,0.00,,---,0.00,VWS V14.01,2013-03-16 17:54:00,
2013-03-16 13:55:00,74.0,51.5,30.22,South,177,6.6,14.5,45,0.00,,---,0.00,VWS V14.01,2013-03-16 17:55:00,
2013-03-16 13:56:00,74.0,51.6,30.22,SSE,150,7.4,14.5,46,0.00,,---,0.00,VWS V14.01,2013-03-16 17:56:00,
2013-03-16 13:57:00,73.9,51.6,30.22,South,170,5.3,14.5,46,0.00,,---,0.00,VWS V14.01,2013-03-16 17:57:00,
2013-03-16 13:58:00,73.7,50.6,30.22,SW,224,6.0,14.5,44,0.00,,---,0.00,VWS V14.01,2013-03-16 17:58:00,
2013-03-16 13:59:00,74.0,51.5,30.22,SW,228,7.6,14.5,45,0.00,,---,0.00,VWS V14.01,2013-03-16 17:59:00,
2013-03-16 14:00:00,73.8,51.0,30.22,SSW,202,3.7,14.5,45,0.00,,---,0.00,VWS V14.01,2013-03-16 18:00:00,
2013-03-16 14:01:00,73.9,50.6,30.22,SW,219,3.7,14.5,44,0.00,,---,0.00,VWS V14.01,2013-03-16 18:01:00,
2013-03-16 14:02:00,74.1,51.2,30.22,SSE,156,6.2,14.5,45,0.00,,---,0.00,VWS V14.01,2013-03-16 18:02:00,
2013-03-16 14:03:00,73.9,51.2,30.22,SW,214,11.2,14.5,45,0.00,,---,0.00,VWS V14.01,2013-03-16 18:03:00,
2013-03-16 14:04:00,73.9,51.1,30.22,SSW,202,10.6,14.5,45,0.00,,---,0.00,VWS V14.01,2013-03-16 18:04:00,
2013-03-16 14:05:00,73.7,50.6,30.22,South,181,5.0,14.5,44,0.00,,---,0.00,VWS V14.01,2013-03-16 18:05:00,
2013-03-16 14:06:00,73.7,50.8,30.22,South,170,3.5,14.5,45,0.00,,---,0.00,VWS V14.01,2013-03-16 18:06:00,
2013-03-16 14:07:00,73.7,51.0,30.21,SSE,162,2.8,14.5,45,0.00,,---,0.00,VWS V14.01,2013-03-16 18:07:00,
2013-03-16 14:08:00,73.6,51.0,30.21,South,180,2.8,14.5,45,0.00,,---,0.00,VWS V14.01,2013-03-16 18:08:00,
2013-03-16 14:09:00,73.9,51.3,30.21,SW,236,6.5,14.5,45,0.00,,---,0.00,VWS V14.01,2013-03-16 18:09:00,
2013-03-16 14:10:00,74.0,51.0,30.21,SW,217,2.5,14.5,44,0.00,,---,0.00,VWS V14.01,2013-03-16 18:10:00,
2013-03-16 14:11:00,74.1,51.2,30.21,SSW,202,9.6,14.5,45,0.00,,---,0.00,VWS V14.01,2013-03-16 18:11:00,
2013-03-16 14:12:00,73.9,50.7,30.21,South,190,7.1,15.1,44,0.00,,---,0.00,VWS V14.01,2013-03-16 18:12:00,
2013-03-16 14:13:00,73.5,51.1,30.21,South,191,7.4,15.1,45,0.00,,---,0.00,VWS V14.01,2013-03-16 18:13:00,
2013-03-16 14:14:00,73.4,51.3,30.21,SSW,200,5.8,15.1,46,0.00,,---,0.00,VWS V14.01,2013-03-16 18:14:00,
2013-03-16 14:15:00,73.1,51.3,30.21,SSW,198,8.8,15.1,46,0.00,,---,0.00,VWS V14.01,2013-03-16 18:15:00,
2013-03-16 14:16:00,73.2,52.0,30.21,SSE,155,3.8,15.1,47,0.00,,---,0.00,VWS V14.01,2013-03-16 18:16:00,
2013-03-16 14:17:00,73.1,51.2,30.21,South,183,4.7,15.1,46,0.00,,---,0.00,VWS V14.01,2013-03-16 18:17:00,
2013-03-16 14:18:00,73.3,51.8,30.21,South,169,3.3,15.1,47,0.00,,---,0.00,VWS V14.01,2013-03-16 18:18:00,
2013-03-16 14:19:00,73.5,51.0,30.21,South,176,9.8,15.1,45,0.00,,---,0.00,VWS V14.01,2013-03-16 18:19:00,
2013-03-16 14:20:00,73.4,50.3,30.21,SSW,193,8.0,15.1,44,0.00,,---,0.00,VWS V14.01,2013-03-16 18:20:00,
2013-03-16 14:21:00,73.5,50.9,30.20,South,190,8.2,15.1,45,0.00,,---,0.00,VWS V14.01,2013-03-16 18:21:00,
2013-03-16 14:22:00,73.6,51.3,30.20,SSW,200,6.5,15.1,46,0.00,,---,0.00,VWS V14.01,2013-03-16 18:22:00,
2013-03-16 14:23:00,73.6,51.3,30.20,SSE,166,4.7,15.1,46,0.00,,---,0.00,VWS V14.01,2013-03-16 18:23:00,
2013-03-16 14:24:00,73.8,51.1,30.20,South,173,8.7,15.1,45,0.00,,---,0.00,VWS V14.01,2013-03-16 18:24:00,
2013-03-16 14:25:00,73.7,51.1,30.20,South,172,9.6,15.1,45,0.00,,---,0.00,VWS V14.01,2013-03-16 18:25:00,
2013-03-16 14:26:00,73.4,51.3,30.20,South,190,8.9,15.1,46,0.00,,---,0.00,VWS V14.01,2013-03-16 18:26:00,
2013-03-16 14:27:00,73.3,51.8,30.20,SSE,167,7.1,15.1,47,0.00,,---,0.00,VWS V14.01,2013-03-16 18:27:00,
2013-03-16 14:28:00,73.3,51.3,30.20,South,188,11.3,15.1,46,0.00,,---,0.00,VWS V14.01,2013-03-16 18:28:00,
2013-03-16 14:29:00,72.8,51.1,30.20,ESE,121,4.8,15.1,46,0.00,,---,0.00,VWS V14.01,2013-03-16 18:29:00,
2013-03-16 14:30:00,72.7,51.2,30.20,South,186,5.3,15.1,47,0.00,,---,0.00,VWS V14.01,2013-03-16 18:30:00,
2013-03-16 14:31:00,73.0,51.8,30.20,SSW,202,6.2,15.1,47,0.00,,---,0.00,VWS V14.01,2013-03-16 18:31:00,
2013-03-16 14:32:00,72.9,51.7,30.20,South,181,9.1,15.1,47,0.00,,---,0.00,VWS V14.01,2013-03-16 18:32:00,
2013-03-16 14:33:00,73.0,51.8,30.20,SSW,204,3.4,15.1,47,0.00,,---,0.00,VWS V14.01,2013-03-16 18:33:00,
2013-03-16 14:34:00,72.8,51.7,30.20,South,188,10.3,15.1,47,0.00,,---,0.00,VWS V14.01,2013-03-16 18:34:00,
2013-03-16 14:35:00,72.9,51.8,30.20,SW,218,3.7,15.1,48,0.00,,---,0.00,VWS V14.01,2013-03-16 18:35:00,
2013-03-16 14:36:00,73.0,51.9,30.20,South,190,3.2,15.1,48,0.00,,---,0.00,VWS V14.01,2013-03-16 18:36:00,
2013-03-16 14:37:00,73.1,51.8,30.20,South,186,4.2,15.1,47,0.00,,---,0.00,VWS V14.01,2013-03-16 18:37:00,
2013-03-16 14:38:00,73.2,52.1,30.20,South,169,3.2,15.1,48,0.00,,---,0.00,VWS V14.01,2013-03-16 18:38:00,
2013-03-16 14:39:00,73.4,51.8,30.20,SSE,167,6.8,15.1,47,0.00,,---,0.00,VWS V14.01,2013-03-16 18:39:00,
2013-03-16 14:40:00,73.4,51.4,30.20,SSW,201,6.6,15.1,46,0.00,,---,0.00,VWS V14.01,2013-03-16 18:40:00,
2013-03-16 14:41:00,73.6,51.7,30.20,ENE,68,1.3,15.1,46,0.00,,---,0.00,VWS V14.01,2013-03-16 18:41:00,
2013-03-16 14:42:00,73.2,51.4,30.20,South,180,5.6,15.1,46,0.00,,---,0.00,VWS V14.01,2013-03-16 18:42:00,
2013-03-16 14:43:00,73.2,51.9,30.20,South,191,7.8,15.1,47,0.00,,---,0.00,VWS V14.01,2013-03-16 18:43:00,
2013-03-16 14:44:00,73.3,51.8,30.20,South,176,4.0,15.1,47,0.00,,---,0.00,VWS V14.01,2013-03-16 18:44:00,
2013-03-16 14:45:00,73.4,52.0,30.20,SSW,202,5.8,15.1,47,0.00,,---,0.00,VWS V14.01,2013-03-16 18:45:00,
2013-03-16 14:46:00,73.6,51.7,30.20,SSW,202,10.0,15.1,46,0.00,,---,0.00,VWS V14.01,2013-03-16 18:46:00,
2013-03-16 14:47:00,73.6,51.6,30.20,SW,225,8.8,15.1,46,0.00,,---,0.00,VWS V14.01,2013-03-16 18:47:00,
2013-03-16 14:48:00,73.4,51.7,30.20,SSE,167,5.3,15.1,47,0.00,,---,0.00,VWS V14.01,2013-03-16 18:48:00,
2013-03-16 14:49:00,73.0,51.6,30.20,SSE,166,9.7,15.1,47,0.00,,---,0.00,VWS V14.01,2013-03-16 18:49:00,
2013-03-16 14:50:00,73.3,52.3,30.20,SSW,193,10.4,15.1,48,0.00,,---,0.00,VWS V14.01,2013-03-16 18:50:00,
2013-03-16 14:51:00,73.2,52.4,30.20,South,169,6.8,15.1,48,0.00,,---,0.00,VWS V14.01,2013-03-16 18:51:00,
2013-03-16 14:52:00,72.9,52.1,30.20,South,170,11.1,15.1,48,0.00,,---,0.00,VWS V14.01,2013-03-16 18:52:00,
2013-03-16 14:53:00,73.0,52.2,30.20,SSE,163,7.9,15.1,48,0.00,,---,0.00,VWS V14.01,2013-03-16 18:53:00,
2013-03-16 14:54:00,72.8,52.3,30.20,SSW,197,8.8,15.1,48,0.00,,---,0.00,VWS V14.01,2013-03-16 18:54:00,
2013-03-16 14:55:00,73.1,52.8,30.20,South,191,5.2,15.1,49,0.00,,---,0.00,VWS V14.01,2013-03-16 18:55:00,
2013-03-16 14:56:00,73.3,52.7,30.20,SSW,208,4.2,15.1,48,0.00,,---,0.00,VWS V14.01,2013-03-16 18:56:00,
2013-03-16 14:57:00,73.4,52.8,30.20,SSW,204,4.5,15.1,48,0.00,,---,0.00,VWS V14.01,2013-03-16 18:57:00,
2013-03-16 14:58:00,73.4,52.3,30.20,SW,235,9.8,15.1,48,0.00,,---,0.00,VWS V14.01,2013-03-16 18:58:00,
2013-03-16 14:59:00,73.4,52.1,30.20,SSW,198,8.4,15.1,47,0.00,,---,0.00,VWS V14.01,2013-03-16 18:59:00,
2013-03-16 15:00:00,73.4,51.9,30.20,SW,235,3.4,15.1,47,0.00,,---,0.00,VWS V14.01,2013-03-16 19:00:00,
2013-03-16 15:01:00,73.3,51.9,30.20,SSW,194,11.1,15.1,47,0.00,,---,0.00,VWS V14.01,2013-03-16 19:01:00,
2013-03-16 15:02:00,73.2,51.9,30.20,South,176,10.1,15.1,47,0.00,,---,0.00,VWS V14.01,2013-03-16 19:02:00,
2013-03-16 15:03:00,73.0,51.8,30.20,South,180,7.4,15.1,47,0.00,,---,0.00,VWS V14.01,2013-03-16 19:03:00,
2013-03-16 15:04:00,72.9,52.2,30.20,SSW,198,5.6,15.1,48,0.00,,---,0.00,VWS V14.01,2013-03-16 19:04:00,
2013-03-16 15:05:00,73.1,52.3,30.19,SSE,160,3.9,15.1,48,0.00,,---,0.00,VWS V14.01,2013-03-16 19:05:00,
2013-03-16 15:06:00,73.1,52.1,30.19,SSW,194,4.3,15.9,48,0.00,,---,0.00,VWS V14.01,2013-03-16 19:06:00,
2013-03-16 15:07:00,73.1,52.0,30.20,SSW,195,6.9,15.9,48,0.00,,---,0.00,VWS V14.01,2013-03-16 19:07:00,
2013-03-16 15:08:00,73.1,52.2,30.19,SW,219,6.3,15.9,48,0.00,,---,0.00,VWS V14.01,2013-03-16 19:08:00,
2013-03-16 15:09:00,73.1,52.1,30.20,SW,228,6.5,15.9,48,0.00,,---,0.00,VWS V14.01,2013-03-16 19:09:00,
2013-03-16 15:10:00,73.1,51.4,30.19,SW,214,8.7,15.9,46,0.00,,---,0.00,VWS V14.01,2013-03-16 19:10:00,
2013-03-16 15:11:00,73.3,51.4,30.20,SSW,194,7.3,15.9,46,0.00,,---,0.00,VWS V14.01,2013-03-16 19:11:00,
2013-03-16 15:12:00,73.0,51.4,30.20,SW,215,7.8,15.9,47,0.00,,---,0.00,VWS V14.01,2013-03-16 19:12:00,
2013-03-16 15:13:00,72.9,51.8,30.20,South,179,6.6,15.9,48,0.00,,---,0.00,VWS V14.01,2013-03-16 19:13:00,
2013-03-16 15:14:00,73.1,51.9,30.19,SSW,210,4.9,15.9,47,0.00,,---,0.00,VWS V14.01,2013-03-16 19:14:00,
2013-03-16 15:15:00,73.1,52.1,30.19,South,170,1.9,15.9,48,0.00,,---,0.00,VWS V14.01,2013-03-16 19:15:00,
2013-03-16 15:16:00,73.2,51.5,30.19,SW,221,8.6,15.9,46,0.00,,---,0.00,VWS V14.01,2013-03-16 19:16:00,
2013-03-16 15:17:00,73.3,51.0,30.20,South,179,11.1,15.9,46,0.00,,---,0.00,VWS V14.01,2013-03-16 19:17:00,
2013-03-16 15:18:00,73.1,51.6,30.19,SW,226,4.0,15.9,47,0.00,,---,0.00,VWS V14.01,2013-03-16 19:18:00,
2013-03-16 15:19:00,73.1,51.7,30.19,SW,217,4.5,15.9,47,0.00,,---,0.00,VWS V14.01,2013-03-16 19:19:00,
2013-03-16 15:20:00,73.1,51.7,30.19,SSW,210,4.8,15.9,47,0.00,,---,0.00,VWS V14.01,2013-03-16 19:20:00,
2013-03-16 15:21:00,73.3,51.7,30.19,South,173,6.1,15.9,47,0.00,,---,0.00,VWS V14.01,2013-03-16 19:21:00,
2013-03-16 15:22:00,73.3,52.1,30.19,SSW,200,5.2,15.9,47,0.00,,---,0.00,VWS V14.01,2013-03-16 19:22:00,
2013-03-16 15:23:00,73.3,51.5,30.19,SW,217,10.7,15.9,46,0.00,,---,0.00,VWS V14.01,2013-03-16 19:23:00,
2013-03-16 15:24:00,73.2,51.3,30.19,SSW,198,8.1,15.9,46,0.00,,---,0.00,VWS V14.01,2013-03-16 19:24:00,
2013-03-16 15:25:00,72.8,51.7,30.19,SSE,163,8.0,15.9,47,0.00,,---,0.00,VWS V14.01,2013-03-16 19:25:00,
2013-03-16 15:26:00,72.8,51.9,30.19,South,179,6.1,15.9,48,0.00,,---,0.00,VWS V14.01,2013-03-16 19:26:00,
2013-03-16 15:27:00,72.8,52.2,30.19,South,190,5.5,15.9,48,0.00,,---,0.00,VWS V14.01,2013-03-16 19:27:00,
2013-03-16 15:28:00,72.7,52.1,30.19,South,184,6.5,15.9,48,0.00,,---,0.00,VWS V14.01,2013-03-16 19:28:00,
2013-03-16 15:29:00,72.7,52.1,30.19,SSE,165,5.6,15.9,48,0.00,,---,0.00,VWS V14.01,2013-03-16 19:29:00,
2013-03-16 15:30:00,73.1,52.3,30.19,SSW,198,7.8,15.9,48,0.00,,---,0.00,VWS V14.01,2013-03-16 19:30:00,
2013-03-16 15:31:00,73.0,52.5,30.19,West,263,0.6,15.9,49,0.00,,---,0.00,VWS V14.01,2013-03-16 19:31:00,
2013-03-16 15:32:00,73.1,52.3,30.19,SSW,211,3.9,15.9,48,0.00,,---,0.00,VWS V14.01,2013-03-16 19:32:00,
2013-03-16 15:33:00,73.2,52.2,30.19,SW,224,5.8,15.9,48,0.00,,---,0.00,VWS V14.01,2013-03-16 19:33:00,
2013-03-16 15:34:00,73.0,51.8,30.19,ESE,115,1.8,15.9,47,0.00,,---,0.00,VWS V14.01,2013-03-16 19:34:00,
2013-03-16 15:35:00,73.1,51.8,30.19,SSW,212,6.8,15.9,47,0.00,,---,0.00,VWS V14.01,2013-03-16 19:35:00,
2013-03-16 15:36:00,73.1,52.0,30.18,SSE,162,5.0,15.9,48,0.00,,---,0.00,VWS V14.01,2013-03-16 19:36:00,
2013-03-16 15:37:00,73.2,52.0,30.19,SSW,207,2.9,15.9,47,0.00,,---,0.00,VWS V14.01,2013-03-16 19:37:00,
2013-03-16 15:38:00,73.0,51.8,30.19,South,190,6.7,15.9,47,0.00,,---,0.00,VWS V14.01,2013-03-16 19:38:00,
2013-03-16 15:39:00,73.1,52.3,30.19,SSE,159,4.6,15.9,48,0.00,,---,0.00,VWS V14.01,2013-03-16 19:39:00,
2013-03-16 15:40:00,73.2,52.5,30.18,South,179,6.1,15.9,48,0.00,,---,0.00,VWS V14.01,2013-03-16 19:40:00,
2013-03-16 15:41:00,73.2,52.6,30.18,SSW,194,6.5,15.9,48,0.00,,---,0.00,VWS V14.01,2013-03-16 19:41:00,
2013-03-16 15:42:00,73.1,52.4,30.18,SSE,160,6.5,15.9,48,0.00,,---,0.00,VWS V14.01,2013-03-16 19:42:00,
2013-03-16 15:43:00,73.3,52.4,30.19,SSE,159,8.8,15.9,48,0.00,,---,0.00,VWS V14.01,2013-03-16 19:43:00,
2013-03-16 15:44:00,73.2,52.0,30.18,SSW,212,8.6,15.9,47,0.00,,---,0.00,VWS V14.01,2013-03-16 19:44:00,
2013-03-16 15:45:00,73.2,51.9,30.19,SSW,212,8.5,15.9,47,0.00,,---,0.00,VWS V14.01,2013-03-16 19:45:00,
2013-03-16 15:46:00,73.1,52.3,30.19,South,174,10.2,15.9,48,0.00,,---,0.00,VWS V14.01,2013-03-16 19:46:00,
2013-03-16 15:47:00,72.9,52.0,30.19,SSW,204,9.6,15.9,48,0.00,,---,0.00,VWS V14.01,2013-03-16 19:47:00,
2013-03-16 15:48:00,72.9,52.1,30.19,SW,235,8.8,15.9,48,0.00,,---,0.00,VWS V14.01,2013-03-16 19:48:00,
2013-03-16 15:49:00,72.7,52.1,30.19,SSW,195,8.6,15.9,48,0.00,,---,0.00,VWS V14.01,2013-03-16 19:49:00,
2013-03-16 15:50:00,72.5,51.7,30.19,SSW,202,9.1,15.9,48,0.00,,---,0.00,VWS V14.01,2013-03-16 19:50:00,
2013-03-16 15:51:00,72.4,52.1,30.19,SSW,193,4.8,15.9,49,0.00,,---,0.00,VWS V14.01,2013-03-16 19:51:00,
2013-03-16 15:52:00,72.3,52.0,30.19,SSW,212,4.0,15.9,49,0.00,,---,0.00,VWS V14.01,2013-03-16 19:52:00,
2013-03-16 15:53:00,72.4,51.8,30.19,SW,231,4.8,15.9,48,0.00,,---,0.00,VWS V14.01,2013-03-16 19:53:00,
2013-03-16 15:54:00,72.6,52.3,30.19,SW,219,5.2,15.9,49,0.00,,---,0.00,VWS V14.01,2013-03-16 19:54:00,
2013-03-16 15:55:00,72.5,52.1,30.19,SSW,193,5.8,15.9,49,0.00,,---,0.00,VWS V14.01,2013-03-16 19:55:00,
2013-03-16 15:56:00,72.7,52.2,30.18,South,184,7.1,15.9,49,0.00,,---,0.00,VWS V14.01,2013-03-16 19:56:00,
2013-03-16 15:57:00,72.6,51.5,30.18,SSW,193,5.5,15.9,47,0.00,,---,0.00,VWS V14.01,2013-03-16 19:57:00,
2013-03-16 15:58:00,72.6,51.5,30.18,SSW,204,9.2,15.9,47,0.00,,---,0.00,VWS V14.01,2013-03-16 19:58:00,
2013-03-16 15:59:00,72.6,51.6,30.19,SSW,195,8.3,17.6,48,0.00,,---,0.00,VWS V14.01,2013-03-16 19:59:00,
2013-03-16 16:00:00,72.5,51.7,30.19,SSW,200,5.3,17.6,48,0.00,,---,0.00,VWS V14.01,2013-03-16 20:00:00,
2013-03-16 16:01:00,72.6,52.0,30.19,SSW,197,8.6,17.6,48,0.00,,---,0.00,VWS V14.01,2013-03-16 20:01:00,
2013-03-16 16:02:00,72.6,52.0,30.18,South,180,6.3,17.6,48,0.00,,---,0.00,VWS V14.01,2013-03-16 20:02:00,
2013-03-16 16:03:00,72.5,51.5,30.18,SW,233,5.3,17.6,48,0.00,,---,0.00,VWS V14.01,2013-03-16 20:03:00,
2013-03-16 16:04:00,72.0,51.7,30.18,SSW,204,6.2,17.6,49,0.00,,---,0.00,VWS V14.01,2013-03-16 20:04:00,
2013-03-16 16:05:00,72.3,52.2,30.19,SSW,207,4.7,17.6,49,0.00,,---,0.00,VWS V14.01,2013-03-16 20:05:00,
2013-03-16 16:06:00,72.1,51.6,30.18,SSW,202,5.4,17.6,48,0.00,,---,0.00,VWS V14.01,2013-03-16 20:06:00,
2013-03-16 16:07:00,72.1,52.1,30.18,SSW,193,9.0,17.6,49,0.00,,---,0.00,VWS V14.01,2013-03-16 20:07:00,
2013-03-16 16:08:00,72.1,52.2,30.18,SW,215,9.6,17.6,50,0.00,,---,0.00,VWS V14.01,2013-03-16 20:08:00,
2013-03-16 16:09:00,72.2,51.7,30.18,SSW,208,9.2,17.6,48,0.00,,---,0.00,VWS V14.01,2013-03-16 20:09:00,
2013-03-16 16:10:00,72.1,51.7,30.18,SW,215,7.1,17.6,49,0.00,,---,0.00,VWS V14.01,2013-03-16 20:10:00,
2013-03-16 16:11:00,72.1,51.7,30.18,SW,221,6.3,17.6,49,0.00,,---,0.00,VWS V14.01,2013-03-16 20:11:00,
2013-03-16 16:12:00,72.2,52.0,30.18,SW,235,5.7,17.6,49,0.00,,---,0.00,VWS V14.01,2013-03-16 20:12:00,
2013-03-16 16:13:00,72.3,51.6,30.18,SSW,198,5.5,17.6,48,0.00,,---,0.00,VWS V14.01,2013-03-16 20:13:00,
2013-03-16 16:14:00,72.5,51.8,30.18,SSW,197,6.2,17.6,48,0.00,,---,0.00,VWS V14.01,2013-03-16 20:14:00,
2013-03-16 16:15:00,72.5,51.7,30.18,South,173,6.6,17.6,48,0.00,,---,0.00,VWS V14.01,2013-03-16 20:15:00,
2013-03-16 16:16:00,72.3,51.8,30.18,SSW,194,6.1,17.6,48,0.00,,---,0.00,VWS V14.01,2013-03-16 20:16:00,
2013-03-16 16:17:00,72.4,52.5,30.18,SSW,204,7.1,17.6,50,0.00,,---,0.00,VWS V14.01,2013-03-16 20:17:00,
2013-03-16 16:18:00,72.1,52.2,30.18,South,176,4.8,17.6,50,0.00,,---,0.00,VWS V14.01,2013-03-16 20:18:00,
2013-03-16 16:19:00,72.4,52.7,30.18,WSW,246,3.0,17.6,50,0.00,,---,0.00,VWS V14.01,2013-03-16 20:19:00,
2013-03-16 16:20:00,72.4,52.8,30.18,SSW,195,3.4,17.6,50,0.00,,---,0.00,VWS V14.01,2013-03-16 20:20:00,
2013-03-16 16:21:00,72.4,53.1,30.18,SW,219,5.8,17.6,51,0.00,,---,0.00,VWS V14.01,2013-03-16 20:21:00,
2013-03-16 16:22:00,72.5,53.3,30.18,SSW,211,3.2,17.6,51,0.00,,---,0.00,VWS V14.01,2013-03-16 20:22:00,
2013-03-16 16:23:00,72.5,52.9,30.19,SSW,207,8.5,17.6,50,0.00,,---,0.00,VWS V14.01,2013-03-16 20:23:00,
2013-03-16 16:24:00,72.3,52.8,30.18,South,179,6.1,17.6,50,0.00,,---,0.00,VWS V14.01,2013-03-16 20:24:00,
2013-03-16 16:25:00,72.4,52.9,30.18,South,173,4.0,17.6,50,0.00,,---,0.00,VWS V14.01,2013-03-16 20:25:00,
2013-03-16 16:26:00,72.3,53.0,30.18,SSW,201,9.1,17.6,51,0.00,,---,0.00,VWS V14.01,2013-03-16 20:26:00,
2013-03-16 16:27:00,72.1,52.7,30.18,South,188,8.1,17.6,50,0.00,,---,0.00,VWS V14.01,2013-03-16 20:27:00,
2013-03-16 16:28:00,72.4,53.1,30.18,South,179,7.0,17.6,51,0.00,,---,0.00,VWS V14.01,2013-03-16 20:28:00,
2013-03-16 16:29:00,72.2,53.0,30.19,South,191,3.2,17.6,51,0.00,,---,0.00,VWS V14.01,2013-03-16 20:29:00,
2013-03-16 16:30:00,72.2,52.7,30.18,SSW,193,12.1,17.6,50,0.00,,---,0.00,VWS V14.01,2013-03-16 20:30:00,
2013-03-16 16:31:00,72.3,53.2,30.18,SW,231,2.4,17.6,51,0.00,,---,0.00,VWS V14.01,2013-03-16 20:31:00,
2013-03-16 16:32:00,72.4,53.0,30.18,SW,221,5.3,17.6,50,0.00,,---,0.00,VWS V14.01,2013-03-16 20:32:00,
2013-03-16 16:33:00,72.3,52.8,30.19,SSW,195,13.8,17.6,50,0.00,,---,0.00,VWS V14.01,2013-03-16 20:33:00,
2013-03-16 16:34:00,72.0,52.6,30.19,SSE,167,7.4,17.6,50,0.00,,---,0.00,VWS V14.01,2013-03-16 20:34:00,
2013-03-16 16:35:00,72.3,53.1,30.18,SW,218,8.5,17.6,51,0.00,,---,0.00,VWS V14.01,2013-03-16 20:35:00,
2013-03-16 16:36:00,71.8,52.7,30.18,South,169,8.8,17.6,51,0.00,,---,0.00,VWS V14.01,2013-03-16 20:36:00,
2013-03-16 16:37:00,71.9,52.9,30.18,South,183,6.3,17.6,51,0.00,,---,0.00,VWS V14.01,2013-03-16 20:37:00,
2013-03-16 16:38:00,71.9,53.2,30.18,SSE,166,1.4,17.6,52,0.00,,---,0.00,VWS V14.01,2013-03-16 20:38:00,
2013-03-16 16:39:00,72.2,53.3,30.18,SSW,195,6.1,17.6,51,0.00,,---,0.00,VWS V14.01,2013-03-16 20:39:00,
2013-03-16 16:40:00,71.9,52.3,30.18,SW,218,9.3,17.6,50,0.00,,---,0.00,VWS V14.01,2013-03-16 20:40:00,
2013-03-16 16:41:00,71.9,52.8,30.18,South,180,8.3,17.6,51,0.00,,---,0.00,VWS V14.01,2013-03-16 20:41:00,
2013-03-16 16:42:00,71.7,53.0,30.18,South,191,7.6,17.6,52,0.00,,---,0.00,VWS V14.01,2013-03-16 20:42:00,
2013-03-16 16:43:00,71.8,53.0,30.18,South,173,4.3,17.6,52,0.00,,---,0.00,VWS V14.01,2013-03-16 20:43:00,
2013-03-16 16:44:00,71.7,52.5,30.18,SSW,207,7.7,17.6,51,0.00,,---,0.00,VWS V14.01,2013-03-16 20:44:00,
2013-03-16 16:45:00,71.9,53.2,30.18,South,181,5.3,17.6,52,0.00,,---,0.00,VWS V14.01,2013-03-16 20:45:00,
2013-03-16 16:46:00,71.9,52.9,30.18,SW,233,7.0,17.6,51,0.00,,---,0.00,VWS V14.01,2013-03-16 20:46:00,
2013-03-16 16:47:00,71.9,52.7,30.18,SSW,202,6.5,17.6,51,0.00,,---,0.00,VWS V14.01,2013-03-16 20:47:00,
2013-03-16 16:48:00,71.8,52.7,30.18,SW,219,6.5,17.6,51,0.00,,---,0.00,VWS V14.01,2013-03-16 20:48:00,
2013-03-16 16:49:00,71.8,52.8,30.18,SSW,211,4.0,17.6,51,0.00,,---,0.00,VWS V14.01,2013-03-16 20:49:00,
2013-03-16 16:50:00,72.1,53.1,30.18,SSW,210,5.7,17.6,51,0.00,,---,0.00,VWS V14.01,2013-03-16 20:50:00,
2013-03-16 16:51:00,72.0,53.0,30.18,South,170,1.7,17.6,51,0.00,,---,0.00,VWS V14.01,2013-03-16 20:51:00,
2013-03-16 16:52:00,72.3,53.3,30.18,South,191,4.0,17.6,51,0.00,,---,0.00,VWS V14.01,2013-03-16 20:52:00,
2013-03-16 16:53:00,72.2,53.5,30.18,SE,146,6.3,17.6,52,0.00,,---,0.00,VWS V14.01,2013-03-16 20:53:00,
2013-03-16 16:54:00,72.2,52.8,30.18,SSW,207,7.0,17.6,50,0.00,,---,0.00,VWS V14.01,2013-03-16 20:54:00,
2013-03-16 16:55:00,72.3,52.7,30.18,SW,215,8.1,17.6,50,0.00,,---,0.00,VWS V14.01,2013-03-16 20:55:00,
2013-03-16 16:56:00,72.0,52.6,30.18,South,187,6.4,17.6,50,0.00,,---,0.00,VWS V14.01,2013-03-16 20:56:00,
2013-03-16 16:57:00,72.2,53.2,30.18,SW,218,3.2,17.6,51,0.00,,---,0.00,VWS V14.01,2013-03-16 20:57:00,
2013-03-16 16:58:00,71.9,52.9,30.18,South,191,6.5,17.6,51,0.00,,---,0.00,VWS V14.01,2013-03-16 20:58:00,
2013-03-16 16:59:00,72.0,52.8,30.18,South,191,8.2,17.6,51,0.00,,---,0.00,VWS V14.01,2013-03-16 20:59:00,
2013-03-16 17:00:00,71.8,52.7,30.18,SW,221,6.5,17.6,51,0.00,,---,0.00,VWS V14.01,2013-03-16 21:00:00,
2013-03-16 17:01:00,71.8,52.5,30.18,SW,224,8.8,17.6,51,0.00,,---,0.00,VWS V14.01,2013-03-16 21:01:00,
2013-03-16 17:02:00,71.8,52.5,30.18,South,186,7.1,17.6,51,0.00,,---,0.00,VWS V14.01,2013-03-16 21:02:00,
2013-03-16 17:03:00,72.0,52.6,30.18,South,177,2.7,17.6,50,0.00,,---,0.00,VWS V14.01,2013-03-16 21:03:00,
2013-03-16 17:04:00,71.9,52.4,30.18,SW,225,5.6,17.6,50,0.00,,---,0.00,VWS V14.01,2013-03-16 21:04:00,
2013-03-16 17:05:00,71.7,52.6,30.18,SW,217,6.8,17.6,51,0.00,,---,0.00,VWS V14.01,2013-03-16 21:05:00,
2013-03-16 17:06:00,71.8,52.7,30.18,SSW,210,9.0,17.6,51,0.00,,---,0.00,VWS V14.01,2013-03-16 21:06:00,
2013-03-16 17:07:00,71.8,52.6,30.18,SSW,201,3.7,17.6,51,0.00,,---,0.00,VWS V14.01,2013-03-16 21:07:00,
2013-03-16 17:08:00,71.7,52.6,30.18,SSW,200,6.3,17.6,51,0.00,,---,0.00,VWS V14.01,2013-03-16 21:08:00,
2013-03-16 17:09:00,71.6,52.6,30.18,SSW,194,3.2,17.6,51,0.00,,---,0.00,VWS V14.01,2013-03-16 21:09:00,
2013-03-16 17:10:00,71.8,52.9,30.18,SSW,193,3.0,17.6,51,0.00,,---,0.00,VWS V14.01,2013-03-16 21:10:00,
2013-03-16 17:11:00,71.6,52.5,30.18,SSW,210,6.8,17.6,51,0.00,,---,0.00,VWS V14.01,2013-03-16 21:11:00,
2013-03-16 17:12:00,71.5,52.1,30.18,SSW,205,7.1,17.6,50,0.00,,---,0.00,VWS V14.01,2013-03-16 21:12:00,
2013-03-16 17:13:00,71.6,52.5,30.18,SW,214,5.4,17.6,51,0.00,,---,0.00,VWS V14.01,2013-03-16 21:13:00,
2013-03-16 17:14:00,71.5,52.1,30.18,South,176,4.7,17.6,50,0.00,,---,0.00,VWS V14.01,2013-03-16 21:14:00,
2013-03-16 17:15:00,71.5,52.4,30.18,SSW,200,5.0,17.6,51,0.00,,---,0.00,VWS V14.01,2013-03-16 21:15:00,
2013-03-16 17:16:00,71.6,52.3,30.18,SSW,200,4.2,17.6,50,0.00,,---,0.00,VWS V14.01,2013-03-16 21:16:00,
2013-03-16 17:17:00,71.6,52.3,30.18,SSW,204,9.6,17.6,50,0.00,,---,0.00,VWS V14.01,2013-03-16 21:17:00,
2013-03-16 17:18:00,71.6,52.1,30.18,SSW,201,5.4,17.6,50,0.00,,---,0.00,VWS V14.01,2013-03-16 21:18:00,
2013-03-16 17:19:00,71.6,52.2,30.18,South,179,8.0,17.6,50,0.00,,---,0.00,VWS V14.01,2013-03-16 21:19:00,
2013-03-16 17:20:00,71.4,52.2,30.18,SSW,193,8.0,17.6,51,0.00,,---,0.00,VWS V14.01,2013-03-16 21:20:00,
2013-03-16 17:21:00,71.5,52.2,30.18,SW,218,10.9,17.6,51,0.00,,---,0.00,VWS V14.01,2013-03-16 21:21:00,
2013-03-16 17:22:00,71.4,52.3,30.18,SSW,205,5.5,17.6,51,0.00,,---,0.00,VWS V14.01,2013-03-16 21:22:00,
2013-03-16 17:23:00,71.5,52.6,30.18,SW,215,5.2,17.6,51,0.00,,---,0.00,VWS V14.01,2013-03-16 21:23:00,
2013-03-16 17:24:00,71.3,52.6,30.18,South,174,7.0,17.6,52,0.00,,---,0.00,VWS V14.01,2013-03-16 21:24:00,
2013-03-16 17:25:00,71.3,52.6,30.18,South,183,4.3,17.6,52,0.00,,---,0.00,VWS V14.01,2013-03-16 21:25:00,
2013-03-16 17:26:00,71.3,52.8,30.18,SW,232,2.5,17.6,52,0.00,,---,0.00,VWS V14.01,2013-03-16 21:26:00,
2013-03-16 17:27:00,71.5,53.0,30.18,SW,222,4.0,17.6,52,0.00,,---,0.00,VWS V14.01,2013-03-16 21:27:00,
2013-03-16 17:28:00,71.4,52.3,30.18,South,188,5.0,17.6,51,0.00,,---,0.00,VWS V14.01,2013-03-16 21:28:00,
2013-03-16 17:29:00,71.6,52.3,30.18,SSW,204,11.9,17.6,51,0.00,,---,0.00,VWS V14.01,2013-03-16 21:29:00,
2013-03-16 17:30:00,71.3,52.1,30.19,SSW,211,7.8,17.6,51,0.00,,---,0.00,VWS V14.01,2013-03-16 21:30:00,
2013-03-16 17:31:00,71.4,52.0,30.19,SSW,210,5.6,17.6,50,0.00,,---,0.00,VWS V14.01,2013-03-16 21:31:00,
2013-03-16 17:32:00,71.3,52.1,30.19,South,191,5.6,17.6,51,0.00,,---,0.00,VWS V14.01,2013-03-16 21:32:00,
2013-03-16 17:33:00,71.1,52.2,30.18,SSW,211,6.5,17.6,51,0.00,,---,0.00,VWS V14.01,2013-03-16 21:33:00,
2013-03-16 17:34:00,71.4,52.4,30.18,SSW,198,4.5,17.6,51,0.00,,---,0.00,VWS V14.01,2013-03-16 21:34:00,
2013-03-16 17:35:00,70.8,52.2,30.19,South,169,7.8,17.6,52,0.00,,---,0.00,VWS V14.01,2013-03-16 21:35:00,
2013-03-16 17:36:00,71.1,52.8,30.18,South,191,5.0,17.6,52,0.00,,---,0.00,VWS V14.01,2013-03-16 21:36:00,
2013-03-16 17:37:00,71.0,52.7,30.19,SSW,197,4.8,17.6,52,0.00,,---,0.00,VWS V14.01,2013-03-16 21:37:00,
2013-03-16 17:38:00,71.1,52.5,30.19,SSW,208,8.6,17.6,52,0.00,,---,0.00,VWS V14.01,2013-03-16 21:38:00,
2013-03-16 17:39:00,71.0,52.4,30.18,SSW,195,7.3,17.6,52,0.00,,---,0.00,VWS V14.01,2013-03-16 21:39:00,
2013-03-16 17:40:00,71.2,52.8,30.19,SSW,205,8.3,17.6,52,0.00,,---,0.00,VWS V14.01,2013-03-16 21:40:00,
2013-03-16 17:41:00,71.1,52.8,30.19,SSW,210,4.3,17.6,52,0.00,,---,0.00,VWS V14.01,2013-03-16 21:41:00,
2013-03-16 17:42:00,70.9,52.6,30.19,SSW,207,8.4,17.6,52,0.00,,---,0.00,VWS V14.01,2013-03-16 21:42:00,
2013-03-16 17:43:00,70.9,52.7,30.19,SSW,201,5.9,17.6,53,0.00,,---,0.00,VWS V14.01,2013-03-16 21:43:00,
2013-03-16 17:44:00,70.9,52.8,30.19,SW,218,5.6,17.6,53,0.00,,---,0.00,VWS V14.01,2013-03-16 21:44:00,
2013-03-16 17:45:00,70.8,52.7,30.19,SSW,195,6.0,17.6,53,0.00,,---,0.00,VWS V14.01,2013-03-16 21:45:00,
2013-03-16 17:46:00,70.7,52.5,30.19,SW,218,4.2,17.6,52,0.00,,---,0.00,VWS V14.01,2013-03-16 21:46:00,
2013-03-16 17:47:00,70.8,52.6,30.19,SSW,207,2.9,17.6,53,0.00,,---,0.00,VWS V14.01,2013-03-16 21:47:00,
2013-03-16 17:48:00,70.7,52.4,30.19,SW,226,6.2,17.6,52,0.00,,---,0.00,VWS V14.01,2013-03-16 21:48:00,
2013-03-16 17:49:00,70.7,52.1,30.19,SW,214,9.4,17.6,52,0.00,,---,0.00,VWS V14.01,2013-03-16 21:49:00,
2013-03-16 17:50:00,70.8,52.0,30.19,South,187,7.6,17.6,51,0.00,,---,0.00,VWS V14.01,2013-03-16 21:50:00,
2013-03-16 17:51:00,70.6,51.7,30.19,South,176,3.4,17.6,51,0.00,,---,0.00,VWS V14.01,2013-03-16 21:51:00,
2013-03-16 17:52:00,70.6,51.6,30.19,SSW,198,4.8,17.6,51,0.00,,---,0.00,VWS V14.01,2013-03-16 21:52:00,
2013-03-16 17:53:00,70.4,51.6,30.19,South,184,7.5,17.6,51,0.00,,---,0.00,VWS V14.01,2013-03-16 21:53:00,
2013-03-16 17:54:00,70.4,51.9,30.19,South,191,4.0,17.6,52,0.00,,---,0.00,VWS V14.01,2013-03-16 21:54:00,
2013-03-16 17:55:00,70.3,52.0,30.19,SSW,212,3.9,17.6,52,0.00,,---,0.00,VWS V14.01,2013-03-16 21:55:00,
2013-03-16 17:56:00,70.2,51.7,30.19,SSW,201,9.8,17.6,52,0.00,,---,0.00,VWS V14.01,2013-03-16 21:56:00,
2013-03-16 17:57:00,70.1,51.9,30.19,SW,219,4.8,17.6,52,0.00,,---,0.00,VWS V14.01,2013-03-16 21:57:00,
2013-03-16 17:58:00,70.0,51.6,30.19,SSE,159,4.5,17.6,52,0.00,,---,0.00,VWS V14.01,2013-03-16 21:58:00,
2013-03-16 17:59:00,70.0,52.0,30.19,SW,226,6.1,17.6,53,0.00,,---,0.00,VWS V14.01,2013-03-16 21:59:00,
2013-03-16 18:00:00,70.0,52.0,30.19,South,187,8.0,17.6,53,0.00,,---,0.00,VWS V14.01,2013-03-16 22:00:00,
2013-03-16 18:01:00,70.1,52.2,30.19,South,184,8.3,17.6,53,0.00,,---,0.00,VWS V14.01,2013-03-16 22:01:00,
2013-03-16 18:02:00,70.0,52.2,30.19,SSW,200,4.7,17.6,53,0.00,,---,0.00,VWS V14.01,2013-03-16 22:02:00,
2013-03-16 18:03:00,70.0,52.4,30.19,SSW,204,5.4,17.6,54,0.00,,---,0.00,VWS V14.01,2013-03-16 22:03:00,
2013-03-16 18:04:00,70.0,52.6,30.19,SSW,194,4.0,17.6,54,0.00,,---,0.00,VWS V14.01,2013-03-16 22:04:00,
2013-03-16 18:05:00,70.0,52.6,30.19,South,183,2.9,17.6,54,0.00,,---,0.00,VWS V14.01,2013-03-16 22:05:00,
2013-03-16 18:06:00,69.9,52.5,30.19,SSW,211,5.0,17.6,54,0.00,,---,0.00,VWS V14.01,2013-03-16 22:06:00,
2013-03-16 18:07:00,70.0,52.3,30.19,SSW,210,8.6,17.6,53,0.00,,---,0.00,VWS V14.01,2013-03-16 22:07:00,
2013-03-16 18:08:00,70.1,52.5,30.19,SW,214,3.3,17.6,54,0.00,,---,0.00,VWS V14.01,2013-03-16 22:08:00,
2013-03-16 18:09:00,70.0,52.0,30.19,SW,218,8.3,17.6,53,0.00,,---,0.00,VWS V14.01,2013-03-16 22:09:00,
2013-03-16 18:10:00,69.9,52.2,30.19,SW,219,7.5,17.6,53,0.00,,---,0.00,VWS V14.01,2013-03-16 22:10:00,
2013-03-16 18:11:00,70.0,52.2,30.19,SW,228,7.0,17.6,53,0.00,,---,0.00,VWS V14.01,2013-03-16 22:11:00,
2013-03-16 18:12:00,70.1,52.3,30.19,South,191,1.2,17.6,53,0.00,,---,0.00,VWS V14.01,2013-03-16 22:12:00,
2013-03-16 18:13:00,70.1,52.3,30.19,South,173,2.5,17.6,53,0.00,,---,0.00,VWS V14.01,2013-03-16 22:13:00,
2013-03-16 18:14:00,69.9,52.0,30.19,SSW,210,3.8,17.6,53,0.00,,---,0.00,VWS V14.01,2013-03-16 22:14:00,
2013-03-16 18:15:00,69.9,52.0,30.19,SW,224,6.5,17.6,53,0.00,,---,0.00,VWS V14.01,2013-03-16 22:15:00,
2013-03-16 18:16:00,69.9,51.8,30.19,SW,217,5.7,17.6,52,0.00,,---,0.00,VWS V14.01,2013-03-16 22:16:00,
2013-03-16 18:17:00,69.9,51.9,30.19,SSW,212,6.8,17.6,53,0.00,,---,0.00,VWS V14.01,2013-03-16 22:17:00,
2013-03-16 18:18:00,69.9,52.0,30.19,South,190,7.1,17.6,53,0.00,,---,0.00,VWS V14.01,2013-03-16 22:18:00,
2013-03-16 18:19:00,69.8,52.1,30.19,SSW,207,5.2,17.6,53,0.00,,---,0.00,VWS V14.01,2013-03-16 22:19:00,
2013-03-16 18:20:00,69.7,52.0,30.19,SW,219,6.6,17.6,53,0.00,,---,0.00,VWS V14.01,2013-03-16 22:20:00,
2013-03-16 18:21:00,69.7,52.1,30.19,SW,214,3.2,17.6,54,0.00,,---,0.00,VWS V14.01,2013-03-16 22:21:00,
2013-03-16 18:22:00,69.7,52.3,30.19,SW,222,7.8,17.6,54,0.00,,---,0.00,VWS V14.01,2013-03-16 22:22:00,
2013-03-16 18:23:00,69.7,52.2,30.19,SW,228,4.1,17.6,54,0.00,,---,0.00,VWS V14.01,2013-03-16 22:23:00,
2013-03-16 18:24:00,69.5,52.0,30.19,South,181,3.4,17.6,54,0.00,,---,0.00,VWS V14.01,2013-03-16 22:24:00,
2013-03-16 18:25:00,69.7,52.2,30.19,SW,215,8.2,17.6,54,0.00,,---,0.00,VWS V14.01,2013-03-16 22:25:00,
2013-03-16 18:26:00,69.6,51.9,30.19,SSW,198,5.0,17.6,53,0.00,,---,0.00,VWS V14.01,2013-03-16 22:26:00,
2013-03-16 18:27:00,69.6,51.9,30.19,SW,214,7.1,17.6,53,0.00,,---,0.00,VWS V14.01,2013-03-16 22:27:00,
2013-03-16 18:28:00,69.7,52.3,30.19,SSW,200,3.4,17.6,54,0.00,,---,0.00,VWS V14.01,2013-03-16 22:28:00,
2013-03-16 18:29:00,69.4,52.2,30.19,SW,224,10.6,17.6,54,0.00,,---,0.00,VWS V14.01,2013-03-16 22:29:00,
2013-03-16 18:30:00,69.4,52.3,30.19,SSW,207,3.7,17.6,54,0.00,,---,0.00,VWS V14.01,2013-03-16 22:30:00,
2013-03-16 18:31:00,69.4,52.4,30.19,SW,222,4.7,17.6,55,0.00,,---,0.00,VWS V14.01,2013-03-16 22:31:00,
2013-03-16 18:32:00,69.5,52.7,30.19,SSW,195,4.2,17.6,55,0.00,,---,0.00,VWS V14.01,2013-03-16 22:32:00,
2013-03-16 18:33:00,69.4,52.7,30.19,SW,219,5.8,17.6,55,0.00,,---,0.00,VWS V14.01,2013-03-16 22:33:00,
2013-03-16 18:34:00,69.5,52.8,30.19,SW,219,5.7,17.6,55,0.00,,---,0.00,VWS V14.01,2013-03-16 22:34:00,
2013-03-16 18:35:00,69.3,52.7,30.19,South,183,5.4,17.6,56,0.00,,---,0.00,VWS V14.01,2013-03-16 22:35:00,
2013-03-16 18:36:00,69.5,52.9,30.19,South,181,8.1,17.6,56,0.00,,---,0.00,VWS V14.01,2013-03-16 22:36:00,
2013-03-16 18:37:00,69.4,52.8,30.19,SSW,202,3.0,17.6,55,0.00,,---,0.00,VWS V14.01,2013-03-16 22:37:00,
2013-03-16 18:38:00,69.2,52.6,30.19,SW,226,2.2,17.6,56,0.00,,---,0.00,VWS V14.01,2013-03-16 22:38:00,
2013-03-16 18:39:00,69.2,52.5,30.19,SSW,194,6.7,17.6,55,0.00,,---,0.00,VWS V14.01,2013-03-16 22:39:00,
2013-03-16 18:40:00,69.2,52.7,30.19,South,181,2.7,17.6,56,0.00,,---,0.00,VWS V14.01,2013-03-16 22:40:00,
2013-03-16 18:41:00,69.2,52.8,30.19,SW,217,4.1,17.6,56,0.00,,---,0.00,VWS V14.01,2013-03-16 22:41:00,
2013-03-16 18:42:00,69.2,52.6,30.19,SW,229,6.5,17.6,56,0.00,,---,0.00,VWS V14.01,2013-03-16 22:42:00,
2013-03-16 18:43:00,69.1,52.6,30.19,South,187,3.9,17.6,56,0.00,,---,0.00,VWS V14.01,2013-03-16 22:43:00,
2013-03-16 18:44:00,69.3,52.9,30.19,SSW,195,4.4,17.6,56,0.00,,---,0.00,VWS V14.01,2013-03-16 22:44:00,
2013-03-16 18:45:00,69.0,52.8,30.19,SSW,194,5.7,17.6,56,0.00,,---,0.00,VWS V14.01,2013-03-16 22:45:00,
2013-03-16 18:46:00,69.0,53.0,30.19,SSW,200,7.5,17.6,57,0.00,,---,0.00,VWS V14.01,2013-03-16 22:46:00,
2013-03-16 18:47:00,69.0,53.0,30.19,SSW,208,6.3,17.6,57,0.00,,---,0.00,VWS V14.01,2013-03-16 22:47:00,
2013-03-16 18:48:00,69.0,53.2,30.19,SSW,201,6.2,17.6,57,0.00,,---,0.00,VWS V14.01,2013-03-16 22:48:00,
2013-03-16 18:49:00,68.9,53.3,30.19,SW,232,7.0,17.6,58,0.00,,---,0.00,VWS V14.01,2013-03-16 22:49:00,
2013-03-16 18:50:00,68.8,53.3,30.19,South,176,5.9,17.6,58,0.00,,---,0.00,VWS V14.01,2013-03-16 22:50:00,
2013-03-16 18:51:00,68.9,53.4,30.19,South,181,4.0,17.6,58,0.00,,---,0.00,VWS V14.01,2013-03-16 22:51:00,
2013-03-16 18:52:00,68.9,53.4,30.19,South,190,5.0,17.6,58,0.00,,---,0.00,VWS V14.01,2013-03-16 22:52:00,
2013-03-16 18:53:00,68.9,53.6,30.19,SSW,207,5.9,17.6,58,0.00,,---,0.00,VWS V14.01,2013-03-16 22:53:00,
2013-03-16 18:54:00,68.9,53.5,30.19,SW,218,5.5,17.6,58,0.00,,---,0.00,VWS V14.01,2013-03-16 22:54:00,
2013-03-16 18:55:00,68.9,53.4,30.19,SW,236,6.0,17.6,58,0.00,,---,0.00,VWS V14.01,2013-03-16 22:55:00,
2013-03-16 18:56:00,68.7,53.2,30.19,SSW,208,7.5,17.6,58,0.00,,---,0.00,VWS V14.01,2013-03-16 22:56:00,
2013-03-16 18:57:00,68.7,53.2,30.19,SW,222,2.8,17.6,58,0.00,,---,0.00,VWS V14.01,2013-03-16 22:57:00,
2013-03-16 18:58:00,68.8,53.3,30.19,SSW,202,5.2,17.6,58,0.00,,---,0.00,VWS V14.01,2013-03-16 22:58:00,
2013-03-16 18:59:00,68.7,53.2,30.19,SW,225,3.5,17.6,58,0.00,,---,0.00,VWS V14.01,2013-03-16 22:59:00,
2013-03-16 19:00:00,68.6,53.1,30.19,SW,217,6.3,17.6,58,0.00,,---,0.00,VWS V14.01,2013-03-16 23:00:00,
2013-03-16 19:01:00,68.7,53.1,30.19,SW,231,4.8,17.6,58,0.00,,---,0.00,VWS V14.01,2013-03-16 23:01:00,
2013-03-16 19:02:00,68.8,53.3,30.19,SSW,201,7.3,17.6,58,0.00,,---,0.00,VWS V14.01,2013-03-16 23:02:00,
2013-03-16 19:03:00,68.6,53.2,30.19,SW,215,3.0,17.6,58,0.00,,---,0.00,VWS V14.01,2013-03-16 23:03:00,
2013-03-16 19:04:00,68.5,53.1,30.19,SSW,197,2.4,17.6,58,0.00,,---,0.00,VWS V14.01,2013-03-16 23:04:00,
2013-03-16 19:05:00,68.7,53.2,30.19,SSW,212,7.1,17.6,58,0.00,,---,0.00,VWS V14.01,2013-03-16 23:05:00,
2013-03-16 19:06:00,68.6,53.2,30.19,SSW,201,3.6,17.6,58,0.00,,---,0.00,VWS V14.01,2013-03-16 23:06:00,
2013-03-16 19:07:00,68.6,53.2,30.19,SW,214,9.3,17.6,58,0.00,,---,0.00,VWS V14.01,2013-03-16 23:07:00,
2013-03-16 19:08:00,68.5,53.0,30.19,SSW,211,4.2,17.6,58,0.00,,---,0.00,VWS V14.01,2013-03-16 23:08:00,
2013-03-16 19:09:00,68.6,53.0,30.19,SSW,207,2.9,17.6,58,0.00,,---,0.00,VWS V14.01,2013-03-16 23:09:00,
2013-03-16 19:10:00,68.6,52.9,30.19,SW,228,3.9,17.6,57,0.00,,---,0.00,VWS V14.01,2013-03-16 23:10:00,
2013-03-16 19:11:00,68.7,52.9,30.19,SW,225,2.4,17.6,57,0.00,,---,0.00,VWS V14.01,2013-03-16 23:11:00,
2013-03-16 19:12:00,68.4,52.6,30.19,SSW,211,0.8,17.6,57,0.00,,---,0.00,VWS V14.01,2013-03-16 23:12:00,
2013-03-16 19:13:00,68.5,52.8,30.19,SSW,201,2.5,17.6,57,0.00,,---,0.00,VWS V14.01,2013-03-16 23:13:00,
2013-03-16 19:14:00,68.7,53.0,30.20,SW,222,3.2,17.6,57,0.00,,---,0.00,VWS V14.01,2013-03-16 23:14:00,
2013-03-16 19:15:00,68.6,53.0,30.20,SW,219,3.1,17.6,57,0.00,,---,0.00,VWS V14.01,2013-03-16 23:15:00,
2013-03-16 19:16:00,68.4,52.8,30.20,SSW,204,6.1,17.6,58,0.00,,---,0.00,VWS V14.01,2013-03-16 23:16:00,
2013-03-16 19:17:00,68.5,53.0,30.20,SSW,193,2.6,17.6,58,0.00,,---,0.00,VWS V14.01,2013-03-16 23:17:00,
2013-03-16 19:18:00,68.6,53.2,30.20,SW,221,5.2,17.6,58,0.00,,---,0.00,VWS V14.01,2013-03-16 23:18:00,
2013-03-16 19:19:00,68.5,53.1,30.20,South,169,5.2,17.6,58,0.00,,---,0.00,VWS V14.01,2013-03-16 23:19:00,
2013-03-16 19:20:00,68.4,53.0,30.19,SW,215,7.7,17.6,58,0.00,,---,0.00,VWS V14.01,2013-03-16 23:20:00,
2013-03-16 19:21:00,68.4,53.0,30.19,SSW,211,4.3,17.6,58,0.00,,---,0.00,VWS V14.01,2013-03-16 23:21:00,
2013-03-16 19:22:00,68.5,53.2,30.19,SSW,210,4.2,17.6,58,0.00,,---,0.00,VWS V14.01,2013-03-16 23:22:00,
2013-03-16 19:23:00,68.4,53.2,30.19,SE,139,2.2,17.6,58,0.00,,---,0.00,VWS V14.01,2013-03-16 23:23:00,
2013-03-16 19:24:00,68.4,53.2,30.19,SW,214,0.0,17.6,58,0.00,,---,0.00,VWS V14.01,2013-03-16 23:24:00,
2013-03-16 19:25:00,68.4,53.3,30.19,SW,229,3.2,17.6,59,0.00,,---,0.00,VWS V14.01,2013-03-16 23:25:00,
2013-03-16 19:26:00,68.4,53.4,30.19,SSW,208,3.0,17.6,59,0.00,,---,0.00,VWS V14.01,2013-03-16 23:26:00,
2013-03-16 19:27:00,68.4,53.5,30.19,SW,221,3.9,17.6,59,0.00,,---,0.00,VWS V14.01,2013-03-16 23:27:00,
2013-03-16 19:28:00,68.4,53.4,30.19,SSW,201,3.9,17.6,59,0.00,,---,0.00,VWS V14.01,2013-03-16 23:28:00,
2013-03-16 19:29:00,68.4,53.4,30.20,South,191,2.8,17.6,59,0.00,,---,0.00,VWS V14.01,2013-03-16 23:29:00,
2013-03-16 19:30:00,68.3,53.4,30.20,SSW,205,3.2,17.6,59,0.00,,---,0.00,VWS V14.01,2013-03-16 23:30:00,
2013-03-16 19:31:00,68.4,53.6,30.20,SW,222,2.3,17.6,59,0.00,,---,0.00,VWS V14.01,2013-03-16 23:31:00,
2013-03-16 19:32:00,68.3,53.5,30.20,SW,231,5.2,17.6,59,0.00,,---,0.00,VWS V14.01,2013-03-16 23:32:00,
2013-03-16 19:33:00,68.2,53.4,30.20,SW,224,2.7,17.6,59,0.00,,---,0.00,VWS V14.01,2013-03-16 23:33:00,
2013-03-16 19:34:00,68.3,53.5,30.20,SW,214,7.6,17.6,59,0.00,,---,0.00,VWS V14.01,2013-03-16 23:34:00,
2013-03-16 19:35:00,68.2,53.4,30.20,SW,221,2.9,17.6,59,0.00,,---,0.00,VWS V14.01,2013-03-16 23:35:00,
2013-03-16 19:36:00,68.2,53.4,30.20,SSW,200,3.5,17.6,59,0.00,,---,0.00,VWS V14.01,2013-03-16 23:36:00,
2013-03-16 19:37:00,68.2,53.4,30.20,SSW,193,3.9,17.6,59,0.00,,---,0.00,VWS V14.01,2013-03-16 23:37:00,
2013-03-16 19:38:00,68.2,53.4,30.20,East,84,1.3,17.6,59,0.00,,---,0.00,VWS V14.01,2013-03-16 23:38:00,
2013-03-16 19:39:00,68.1,53.4,30.20,SW,215,2.4,17.6,59,0.00,,---,0.00,VWS V14.01,2013-03-16 23:39:00,
2013-03-16 19:40:00,68.4,53.6,30.20,South,174,0.0,17.6,59,0.00,,---,0.00,VWS V14.01,2013-03-16 23:40:00,
2013-03-16 19:41:00,68.2,53.4,30.20,SW,231,5.8,17.6,59,0.00,,---,0.00,VWS V14.01,2013-03-16 23:41:00,
2013-03-16 19:42:00,68.2,53.4,30.20,SSW,200,5.6,17.6,59,0.00,,---,0.00,VWS V14.01,2013-03-16 23:42:00,
2013-03-16 19:43:00,68.2,53.3,30.20,SSW,198,3.4,17.6,59,0.00,,---,0.00,VWS V14.01,2013-03-16 23:43:00,
2013-03-16 19:44:00,68.2,53.3,30.20,SSW,198,5.1,17.6,59,0.00,,---,0.00,VWS V14.01,2013-03-16 23:44:00,
2013-03-16 19:45:00,68.1,53.2,30.20,SSW,208,4.5,17.6,59,0.00,,---,0.00,VWS V14.01,2013-03-16 23:45:00,
2013-03-16 19:46:00,68.3,53.3,30.20,SW,226,7.9,17.6,59,0.00,,---,0.00,VWS V14.01,2013-03-16 23:46:00,
2013-03-16 19:47:00,68.4,53.5,30.20,SSW,201,4.5,17.6,59,0.00,,---,0.00,VWS V14.01,2013-03-16 23:47:00,
2013-03-16 19:48:00,68.2,53.2,30.20,South,187,6.2,17.6,59,0.00,,---,0.00,VWS V14.01,2013-03-16 23:48:00,
2013-03-16 19:49:00,68.3,53.3,30.20,SSW,205,4.4,17.6,59,0.00,,---,0.00,VWS V14.01,2013-03-16 23:49:00,
2013-03-16 19:50:00,68.2,53.2,30.21,SW,219,3.5,17.6,59,0.00,,---,0.00,VWS V14.01,2013-03-16 23:50:00,
2013-03-16 19:51:00,68.2,53.1,30.21,SW,232,4.0,17.6,58,0.00,,---,0.00,VWS V14.01,2013-03-16 23:51:00,
2013-03-16 19:52:00,68.1,52.9,30.21,SW,231,3.5,17.6,58,0.00,,---,0.00,VWS V14.01,2013-03-16 23:52:00,
2013-03-16 19:53:00,68.2,53.1,30.21,South,190,4.6,17.6,58,0.00,,---,0.00,VWS V14.01,2013-03-16 23:53:00,
2013-03-16 19:54:00,68.1,52.9,30.21,SSW,208,4.3,17.6,58,0.00,,---,0.00,VWS V14.01,2013-03-16 23:54:00,
2013-03-16 19:55:00,68.2,53.0,30.21,SW,222,2.5,17.6,58,0.00,,---,0.00,VWS V14.01,2013-03-16 23:55:00,
2013-03-16 19:56:00,68.1,52.9,30.20,SSW,195,5.3,17.6,58,0.00,,---,0.00,VWS V14.01,2013-03-16 23:56:00,
2013-03-16 19:57:00,68.3,53.1,30.20,WNW,283,1.2,17.6,58,0.00,,---,0.00,VWS V14.01,2013-03-16 23:57:00,
2013-03-16 19:58:00,68.2,52.9,30.20,SSW,194,4.5,17.6,58,0.00,,---,0.00,VWS V14.01,2013-03-16 23:58:00,
2013-03-16 19:59:00,68.3,52.9,30.21,SSW,195,2.3,17.6,58,0.00,,---,0.00,VWS V14.01,2013-03-16 23:59:00,
2013-03-16 20:00:00,68.1,52.7,30.21,SW,228,7.2,17.6,58,0.00,,---,0.00,VWS V14.01,2013-03-17 00:00:00,
2013-03-16 20:01:00,68.2,52.8,30.21,SW,225,3.2,17.6,58,0.00,,---,0.00,VWS V14.01,2013-03-17 00:01:00,
2013-03-16 20:02:00,68.2,52.8,30.21,SW,224,5.4,17.6,58,0.00,,---,0.00,VWS V14.01,2013-03-17 00:02:00,
2013-03-16 20:03:00,68.2,52.9,30.21,WSW,242,5.0,17.6,58,0.00,,---,0.00,VWS V14.01,2013-03-17 00:03:00,
2013-03-16 20:04:00,68.1,52.8,30.21,SW,219,2.9,17.6,58,0.00,,---,0.00,VWS V14.01,2013-03-17 00:04:00,
2013-03-16 20:05:00,68.2,53.0,30.21,SSW,208,3.9,17.6,58,0.00,,---,0.00,VWS V14.01,2013-03-17 00:05:00,
2013-03-16 20:06:00,68.2,53.0,30.21,SSW,193,4.5,17.6,58,0.00,,---,0.00,VWS V14.01,2013-03-17 00:06:00,
2013-03-16 20:07:00,68.1,53.0,30.21,SW,218,6.0,17.6,58,0.00,,---,0.00,VWS V14.01,2013-03-17 00:07:00,
2013-03-16 20:08:00,68.2,53.2,30.21,SW,217,3.0,17.6,59,0.00,,---,0.00,VWS V14.01,2013-03-17 00:08:00,
2013-03-16 20:09:00,68.2,53.2,30.21,South,186,1.2,17.6,59,0.00,,---,0.00,VWS V14.01,2013-03-17 00:09:00,
2013-03-16 20:10:00,68.2,53.2,30.21,SW,222,0.6,17.6,59,0.00,,---,0.00,VWS V14.01,2013-03-17 00:10:00,
2013-03-16 20:11:00,68.2,53.2,30.21,SW,228,1.6,17.6,59,0.00,,---,0.00,VWS V14.01,2013-03-17 00:11:00,
2013-03-16 20:12:00,68.1,53.2,30.21,WSW,238,1.7,17.6,59,0.00,,---,0.00,VWS V14.01,2013-03-17 00:12:00,
2013-03-16 20:13:00,68.2,53.3,30.21,WSW,246,3.5,17.6,59,0.00,,---,0.00,VWS V14.01,2013-03-17 00:13:00,
2013-03-16 20:14:00,68.2,53.5,30.21,SSW,210,2.5,17.6,59,0.00,,---,0.00,VWS V14.01,2013-03-17 00:14:00,
2013-03-16 20:15:00,68.1,53.5,30.21,SW,215,3.0,17.6,60,0.00,,---,0.00,VWS V14.01,2013-03-17 00:15:00,
2013-03-16 20:16:00,68.1,53.4,30.21,SSW,210,1.0,17.6,59,0.00,,---,0.00,VWS V14.01,2013-03-17 00:16:00,
2013-03-16 20:17:00,68.0,53.4,30.21,SSW,193,0.0,17.6,60,0.00,,---,0.00,VWS V14.01,2013-03-17 00:17:00,
2013-03-16 20:18:00,68.0,53.5,30.21,SW,229,1.1,17.6,60,0.00,,---,0.00,VWS V14.01,2013-03-17 00:18:00,
2013-03-16 20:19:00,68.0,53.5,30.21,SSW,205,2.2,17.6,60,0.00,,---,0.00,VWS V14.01,2013-03-17 00:19:00,
2013-03-16 20:20:00,68.0,53.5,30.21,SW,217,4.1,17.6,60,0.00,,---,0.00,VWS V14.01,2013-03-17 00:20:00,
2013-03-16 20:21:00,68.0,53.7,30.21,SW,217,3.9,17.6,60,0.00,,---,0.00,VWS V14.01,2013-03-17 00:21:00,
2013-03-16 20:22:00,68.0,53.6,30.21,SW,228,7.5,17.6,60,0.00,,---,0.00,VWS V14.01,2013-03-17 00:22:00,
2013-03-16 20:23:00,68.0,53.6,30.21,South,190,0.8,17.6,60,0.00,,---,0.00,VWS V14.01,2013-03-17 00:23:00,
2013-03-16 20:24:00,68.0,53.6,30.21,South,184,0.0,17.6,60,0.00,,---,0.00,VWS V14.01,2013-03-17 00:24:00,
2013-03-16 20:25:00,67.9,53.6,30.21,South,177,0.0,17.6,60,0.00,,---,0.00,VWS V14.01,2013-03-17 00:25:00,
2013-03-16 20:26:00,67.9,53.6,30.21,SSW,194,2.1,17.6,60,0.00,,---,0.00,VWS V14.01,2013-03-17 00:26:00,
2013-03-16 20:27:00,68.0,53.8,30.21,SW,221,1.9,17.6,60,0.00,,---,0.00,VWS V14.01,2013-03-17 00:27:00,
2013-03-16 20:28:00,67.8,53.7,30.21,SSW,208,1.9,17.6,61,0.00,,---,0.00,VWS V14.01,2013-03-17 00:28:00,
2013-03-16 20:29:00,67.9,53.8,30.22,SSW,212,6.0,17.6,61,0.00,,---,0.00,VWS V14.01,2013-03-17 00:29:00,
2013-03-16 20:30:00,67.9,53.8,30.22,SSW,198,3.7,17.6,61,0.00,,---,0.00,VWS V14.01,2013-03-17 00:30:00,
2013-03-16 20:31:00,67.9,53.9,30.22,SSW,205,3.0,17.6,61,0.00,,---,0.00,VWS V14.01,2013-03-17 00:31:00,
2013-03-16 20:32:00,67.9,54.0,30.22,WSW,238,3.5,17.6,61,0.00,,---,0.00,VWS V14.01,2013-03-17 00:32:00,
2013-03-16 20:33:00,67.9,54.0,30.21,SW,225,2.2,17.6,61,0.00,,---,0.00,VWS V14.01,2013-03-17 00:33:00,
2013-03-16 20:34:00,67.9,54.0,30.21,SW,219,2.9,17.6,61,0.00,,---,0.00,VWS V14.01,2013-03-17 00:34:00,
2013-03-16 20:35:00,67.9,54.0,30.21,SSW,201,6.2,17.6,61,0.00,,---,0.00,VWS V14.01,2013-03-17 00:35:00,
2013-03-16 20:36:00,68.0,54.2,30.21,SW,218,3.0,17.6,61,0.00,,---,0.00,VWS V14.01,2013-03-17 00:36:00,
2013-03-16 20:37:00,68.0,54.2,30.21,SSW,198,7.5,17.6,61,0.00,,---,0.00,VWS V14.01,2013-03-17 00:37:00,
2013-03-16 20:38:00,68.0,54.2,30.21,SSW,195,2.2,17.6,61,0.00,,---,0.00,VWS V14.01,2013-03-17 00:38:00,
2013-03-16 20:39:00,67.9,54.1,30.21,SSE,156,0.2,17.6,61,0.00,,---,0.00,VWS V14.01,2013-03-17 00:39:00,
2013-03-16 20:40:00,68.0,54.3,30.22,SW,224,6.8,17.6,62,0.00,,---,0.00,VWS V14.01,2013-03-17 00:40:00,
2013-03-16 20:41:00,68.0,54.2,30.21,SW,232,4.5,17.6,61,0.00,,---,0.00,VWS V14.01,2013-03-17 00:41:00,
2013-03-16 20:42:00,67.9,54.2,30.21,SW,226,8.6,17.6,62,0.00,,---,0.00,VWS V14.01,2013-03-17 00:42:00,
2013-03-16 20:43:00,67.9,54.2,30.22,SW,226,1.4,17.6,61,0.00,,---,0.00,VWS V14.01,2013-03-17 00:43:00,
2013-03-16 20:44:00,68.1,54.3,30.21,SSW,195,0.0,17.6,61,0.00,,---,0.00,VWS V14.01,2013-03-17 00:44:00,
2013-03-16 20:45:00,68.0,54.2,30.22,SSW,208,1.6,17.6,61,0.00,,---,0.00,VWS V14.01,2013-03-17 00:45:00,
2013-03-16 20:46:00,68.1,54.4,30.22,SSW,211,3.2,17.6,62,0.00,,---,0.00,VWS V14.01,2013-03-17 00:46:00,
2013-03-16 20:47:00,67.9,54.2,30.22,SSW,210,3.2,17.6,62,0.00,,---,0.00,VWS V14.01,2013-03-17 00:47:00,
2013-03-16 20:48:00,68.1,54.3,30.22,SW,214,1.4,17.6,61,0.00,,---,0.00,VWS V14.01,2013-03-17 00:48:00,
2013-03-16 20:49:00,68.1,54.3,30.22,SW,226,0.0,17.6,61,0.00,,---,0.00,VWS V14.01,2013-03-17 00:49:00,
2013-03-16 20:50:00,68.1,54.4,30.22,SSW,204,3.0,17.6,62,0.00,,---,0.00,VWS V14.01,2013-03-17 00:50:00,
2013-03-16 20:51:00,68.1,54.5,30.22,SSW,205,1.2,17.6,62,0.00,,---,0.00,VWS V14.01,2013-03-17 00:51:00,
2013-03-16 20:52:00,68.1,54.4,30.22,SW,226,2.5,17.6,62,0.00,,---,0.00,VWS V14.01,2013-03-17 00:52:00,
2013-03-16 20:53:00,67.9,54.4,30.22,South,190,2.5,17.6,62,0.00,,---,0.00,VWS V14.01,2013-03-17 00:53:00,
2013-03-16 20:54:00,68.0,54.5,30.22,SSW,207,2.5,17.6,62,0.00,,---,0.00,VWS V14.01,2013-03-17 00:54:00,
2013-03-16 20:55:00,68.0,54.6,30.22,SSE,162,3.7,17.6,62,0.00,,---,0.00,VWS V14.01,2013-03-17 00:55:00,
2013-03-16 20:56:00,67.9,54.5,30.22,SSW,197,0.0,17.6,62,0.00,,---,0.00,VWS V14.01,2013-03-17 00:56:00,
2013-03-16 20:57:00,67.9,54.5,30.22,South,184,1.1,17.6,62,0.00,,---,0.00,VWS V14.01,2013-03-17 00:57:00,
2013-03-16 20:58:00,67.7,54.3,30.22,South,184,0.0,17.6,62,0.00,,---,0.00,VWS V14.01,2013-03-17 00:58:00,
2013-03-16 20:59:00,67.8,54.4,30.22,SW,218,1.6,17.6,62,0.00,,---,0.00,VWS V14.01,2013-03-17 00:59:00,
2013-03-16 21:00:00,67.8,54.5,30.22,SW,214,5.8,17.6,62,0.00,,---,0.00,VWS V14.01,2013-03-17 01:00:00,
2013-03-16 21:01:00,67.8,54.5,30.22,South,187,2.9,17.6,62,0.00,,---,0.00,VWS V14.01,2013-03-17 01:01:00,
2013-03-16 21:02:00,67.7,54.5,30.22,SSW,207,5.2,17.6,63,0.00,,---,0.00,VWS V14.01,2013-03-17 01:02:00,
2013-03-16 21:03:00,67.7,54.5,30.22,SW,217,2.5,17.6,62,0.00,,---,0.00,VWS V14.01,2013-03-17 01:03:00,
2013-03-16 21:04:00,67.7,54.5,30.23,SW,226,2.4,17.6,63,0.00,,---,0.00,VWS V14.01,2013-03-17 01:04:00,
2013-03-16 21:05:00,67.7,54.5,30.23,South,188,2.7,17.6,62,0.00,,---,0.00,VWS V14.01,2013-03-17 01:05:00,
2013-03-16 21:06:00,67.8,54.5,30.23,SW,236,1.1,17.6,62,0.00,,---,0.00,VWS V14.01,2013-03-17 01:06:00,
2013-03-16 21:07:00,67.7,54.5,30.23,SSW,207,4.5,17.6,63,0.00,,---,0.00,VWS V14.01,2013-03-17 01:07:00,
2013-03-16 21:08:00,67.7,54.5,30.23,South,191,1.9,17.6,63,0.00,,---,0.00,VWS V14.01,2013-03-17 01:08:00,
2013-03-16 21:09:00,67.6,54.5,30.23,SW,232,2.4,17.6,63,0.00,,---,0.00,VWS V14.01,2013-03-17 01:09:00,
2013-03-16 21:10:00,67.7,54.6,30.22,SW,229,5.1,17.6,63,0.00,,---,0.00,VWS V14.01,2013-03-17 01:10:00,
2013-03-16 21:11:00,67.7,54.6,30.22,SSW,194,4.5,17.6,63,0.00,,---,0.00,VWS V14.01,2013-03-17 01:11:00,
2013-03-16 21:12:00,67.7,54.6,30.22,SW,224,2.7,17.6,63,0.00,,---,0.00,VWS V14.01,2013-03-17 01:12:00,
2013-03-16 21:13:00,67.4,54.3,30.22,SSW,194,2.4,17.6,63,0.00,,---,0.00,VWS V14.01,2013-03-17 01:13:00,
2013-03-16 21:14:00,67.4,54.3,30.22,SW,228,2.4,17.6,63,0.00,,---,0.00,VWS V14.01,2013-03-17 01:14:00,
2013-03-16 21:15:00,67.4,54.4,30.23,SW,229,2.7,17.6,63,0.00,,---,0.00,VWS V14.01,2013-03-17 01:15:00,
2013-03-16 21:16:00,67.4,54.3,30.22,SW,219,3.9,17.6,63,0.00,,---,0.00,VWS V14.01,2013-03-17 01:16:00,
2013-03-16 21:17:00,67.5,54.4,30.22,SW,225,2.5,17.6,63,0.00,,---,0.00,VWS V14.01,2013-03-17 01:17:00,
2013-03-16 21:18:00,67.4,54.2,30.22,WSW,245,1.4,17.6,63,0.00,,---,0.00,VWS V14.01,2013-03-17 01:18:00,
2013-03-16 21:19:00,67.4,54.2,30.23,WSW,238,3.3,17.6,63,0.00,,---,0.00,VWS V14.01,2013-03-17 01:19:00,
2013-03-16 21:20:00,67.7,54.6,30.23,SSW,201,0.7,17.6,63,0.00,,---,0.00,VWS V14.01,2013-03-17 01:20:00,
2013-03-16 21:21:00,67.4,54.3,30.23,SSW,208,5.6,17.6,63,0.00,,---,0.00,VWS V14.01,2013-03-17 01:21:00,
2013-03-16 21:22:00,67.5,54.5,30.23,SW,215,3.7,17.6,63,0.00,,---,0.00,VWS V14.01,2013-03-17 01:22:00,
2013-03-16 21:23:00,67.6,54.5,30.23,SW,215,2.1,17.6,63,0.00,,---,0.00,VWS V14.01,2013-03-17 01:23:00,
2013-03-16 21:24:00,67.4,54.3,30.23,SSW,207,2.8,17.6,63,0.00,,---,0.00,VWS V14.01,2013-03-17 01:24:00,
2013-03-16 21:25:00,67.4,54.3,30.23,SSW,194,0.9,17.6,63,0.00,,---,0.00,VWS V14.01,2013-03-17 01:25:00,
2013-03-16 21:26:00,67.4,54.3,30.23,SW,219,3.2,17.6,63,0.00,,---,0.00,VWS V14.01,2013-03-17 01:26:00,
2013-03-16 21:27:00,67.5,54.3,30.23,SW,226,1.9,17.6,63,0.00,,---,0.00,VWS V14.01,2013-03-17 01:27:00,
2013-03-16 21:28:00,67.4,54.3,30.23,SW,219,0.6,17.6,63,0.00,,---,0.00,VWS V14.01,2013-03-17 01:28:00,
2013-03-16 21:29:00,67.5,54.4,30.23,SW,225,3.3,17.6,63,0.00,,---,0.00,VWS V14.01,2013-03-17 01:29:00,
2013-03-16 21:30:00,67.4,54.3,30.23,SSW,211,3.8,17.6,63,0.00,,---,0.00,VWS V14.01,2013-03-17 01:30:00,
2013-03-16 21:31:00,67.2,54.2,30.23,WSW,240,1.5,17.6,63,0.00,,---,0.00,VWS V14.01,2013-03-17 01:31:00,
2013-03-16 21:32:00,67.4,54.3,30.23,SW,219,2.1,17.6,63,0.00,,---,0.00,VWS V14.01,2013-03-17 01:32:00,
2013-03-16 21:33:00,67.1,54.0,30.23,WSW,250,1.4,17.6,63,0.00,,---,0.00,VWS V14.01,2013-03-17 01:33:00,
2013-03-16 21:34:00,67.2,54.2,30.23,SSW,194,3.4,17.6,63,0.00,,---,0.00,VWS V14.01,2013-03-17 01:34:00,
2013-03-16 21:35:00,67.3,54.3,30.23,WSW,239,0.0,17.6,63,0.00,,---,0.00,VWS V14.01,2013-03-17 01:35:00,
2013-03-16 21:36:00,67.3,54.3,30.23,SW,214,4.8,17.6,63,0.00,,---,0.00,VWS V14.01,2013-03-17 01:36:00,
2013-03-16 21:37:00,67.2,54.2,30.23,SSW,205,1.1,17.6,63,0.00,,---,0.00,VWS V14.01,2013-03-17 01:37:00,
2013-03-16 21:38:00,67.3,54.3,30.23,SW,232,3.2,17.6,63,0.00,,---,0.00,VWS V14.01,2013-03-17 01:38:00,
2013-03-16 21:39:00,67.1,54.2,30.23,West,273,3.0,17.6,63,0.00,,---,0.00,VWS V14.01,2013-03-17 01:39:00,
2013-03-16 21:40:00,67.1,54.4,30.23,SW,228,3.5,17.6,64,0.00,,---,0.00,VWS V14.01,2013-03-17 01:40:00,
2013-03-16 21:41:00,67.1,54.3,30.23,SW,229,2.5,17.6,63,0.00,,---,0.00,VWS V14.01,2013-03-17 01:41:00,
2013-03-16 21:42:00,67.1,54.3,30.23,SW,226,1.1,17.6,63,0.00,,---,0.00,VWS V14.01,2013-03-17 01:42:00,
2013-03-16 21:43:00,67.2,54.4,30.23,SSW,207,1.2,17.6,64,0.00,,---,0.00,VWS V14.01,2013-03-17 01:43:00,
2013-03-16 21:44:00,67.1,54.3,30.23,South,187,1.4,17.6,64,0.00,,---,0.00,VWS V14.01,2013-03-17 01:44:00,
2013-03-16 21:45:00,67.1,54.4,30.24,SSW,212,2.4,17.6,64,0.00,,---,0.00,VWS V14.01,2013-03-17 01:45:00,
2013-03-16 21:46:00,67.2,54.5,30.23,SW,232,3.5,17.6,64,0.00,,---,0.00,VWS V14.01,2013-03-17 01:46:00,
2013-03-16 21:47:00,67.0,54.3,30.23,SSW,210,0.6,17.6,64,0.00,,---,0.00,VWS V14.01,2013-03-17 01:47:00,
2013-03-16 21:48:00,67.1,54.4,30.23,WSW,242,1.1,17.6,64,0.00,,---,0.00,VWS V14.01,2013-03-17 01:48:00,
2013-03-16 21:49:00,67.2,54.5,30.23,SW,224,4.2,17.6,64,0.00,,---,0.00,VWS V14.01,2013-03-17 01:49:00,
2013-03-16 21:50:00,67.0,54.4,30.23,SW,228,2.5,17.6,64,0.00,,---,0.00,VWS V14.01,2013-03-17 01:50:00,
2013-03-16 21:51:00,67.1,54.5,30.23,SW,221,1.8,17.6,64,0.00,,---,0.00,VWS V14.01,2013-03-17 01:51:00,
2013-03-16 21:52:00,67.0,54.4,30.23,SW,221,1.5,17.6,64,0.00,,---,0.00,VWS V14.01,2013-03-17 01:52:00,
2013-03-16 21:53:00,67.1,54.5,30.23,WSW,252,1.8,17.6,64,0.00,,---,0.00,VWS V14.01,2013-03-17 01:53:00,
2013-03-16 21:54:00,66.8,54.3,30.23,South,176,0.3,17.6,64,0.00,,---,0.00,VWS V14.01,2013-03-17 01:54:00,
2013-03-16 21:55:00,66.9,54.4,30.23,SSW,211,0.0,17.6,64,0.00,,---,0.00,VWS V14.01,2013-03-17 01:55:00,
2013-03-16 21:56:00,67.0,54.5,30.23,SW,219,1.2,17.6,64,0.00,,---,0.00,VWS V14.01,2013-03-17 01:56:00,
2013-03-16 21:57:00,66.9,54.5,30.23,SW,229,0.8,17.6,64,0.00,,---,0.00,VWS V14.01,2013-03-17 01:57:00,
2013-03-16 21:58:00,66.9,54.5,30.23,South,179,0.0,17.6,64,0.00,,---,0.00,VWS V14.01,2013-03-17 01:58:00,
2013-03-16 21:59:00,66.9,54.5,30.24,South,179,0.0,17.6,64,0.00,,---,0.00,VWS V14.01,2013-03-17 01:59:00,
2013-03-16 22:00:00,66.8,54.4,30.24,South,179,0.0,17.6,64,0.00,,---,0.00,VWS V14.01,2013-03-17 02:00:00,
2013-03-16 22:01:00,66.8,54.4,30.24,South,179,0.0,17.6,64,0.00,,---,0.00,VWS V14.01,2013-03-17 02:01:00,
2013-03-16 22:02:00,66.8,54.5,30.24,SW,226,1.4,17.6,64,0.00,,---,0.00,VWS V14.01,2013-03-17 02:02:00,
2013-03-16 22:03:00,66.7,54.4,30.24,SSW,212,0.6,17.6,64,0.00,,---,0.00,VWS V14.01,2013-03-17 02:03:00,
2013-03-16 22:04:00,66.8,54.5,30.24,West,262,0.7,17.6,65,0.00,,---,0.00,VWS V14.01,2013-03-17 02:04:00,
2013-03-16 22:05:00,66.4,54.2,30.23,SW,218,1.0,17.6,65,0.00,,---,0.00,VWS V14.01,2013-03-17 02:05:00,
2013-03-16 22:06:00,66.5,54.3,30.23,SW,222,0.0,17.6,65,0.00,,---,0.00,VWS V14.01,2013-03-17 02:06:00,
2013-03-16 22:07:00,66.4,54.2,30.23,SW,222,0.0,17.6,65,0.00,,---,0.00,VWS V14.01,2013-03-17 02:07:00,
2013-03-16 22:08:00,66.4,54.3,30.23,WSW,246,0.5,17.6,65,0.00,,---,0.00,VWS V14.01,2013-03-17 02:08:00,
2013-03-16 22:09:00,66.4,54.3,30.23,WSW,246,0.0,17.6,65,0.00,,---,0.00,VWS V14.01,2013-03-17 02:09:00,
2013-03-16 22:10:00,66.2,54.1,30.23,WSW,246,0.0,17.6,65,0.00,,---,0.00,VWS V14.01,2013-03-17 02:10:00,
2013-03-16 22:11:00,66.2,54.2,30.23,WSW,246,0.0,17.6,65,0.00,,---,0.00,VWS V14.01,2013-03-17 02:11:00,
2013-03-16 22:12:00,66.4,54.5,30.23,WSW,246,0.0,17.6,65,0.00,,---,0.00,VWS V14.01,2013-03-17 02:12:00,
2013-03-16 22:13:00,66.1,54.2,30.23,WSW,246,0.0,17.6,65,0.00,,---,0.00,VWS V14.01,2013-03-17 02:13:00,
2013-03-16 22:14:00,66.1,54.3,30.23,WSW,246,0.0,17.6,66,0.00,,---,0.00,VWS V14.01,2013-03-17 02:14:00,
2013-03-16 22:15:00,66.1,54.3,30.23,WSW,246,0.0,17.6,66,0.00,,---,0.00,VWS V14.01,2013-03-17 02:15:00,
2013-03-16 22:16:00,65.9,54.2,30.23,WSW,246,0.0,17.6,66,0.00,,---,0.00,VWS V14.01,2013-03-17 02:16:00,
2013-03-16 22:17:00,66.0,54.3,30.23,WSW,246,0.0,17.6,66,0.00,,---,0.00,VWS V14.01,2013-03-17 02:17:00,
2013-03-16 22:18:00,65.9,54.3,30.23,WSW,246,0.0,17.6,66,0.00,,---,0.00,VWS V14.01,2013-03-17 02:18:00,
2013-03-16 22:19:00,65.8,54.3,30.23,WSW,246,0.0,17.6,66,0.00,,---,0.00,VWS V14.01,2013-03-17 02:19:00,
2013-03-16 22:20:00,65.8,54.3,30.23,WSW,246,0.0,17.6,66,0.00,,---,0.00,VWS V14.01,2013-03-17 02:20:00,
2013-03-16 22:21:00,65.6,54.2,30.23,WSW,246,0.0,17.6,67,0.00,,---,0.00,VWS V14.01,2013-03-17 02:21:00,
2013-03-16 22:22:00,65.7,54.3,30.23,WSW,246,0.0,17.6,67,0.00,,---,0.00,VWS V14.01,2013-03-17 02:22:00,
2013-03-16 22:23:00,65.7,54.3,30.23,WSW,246,0.0,17.6,67,0.00,,---,0.00,VWS V14.01,2013-03-17 02:23:00,
2013-03-16 22:24:00,65.4,54.1,30.23,WSW,246,0.0,17.6,67,0.00,,---,0.00,VWS V14.01,2013-03-17 02:24:00,
2013-03-16 22:25:00,65.5,54.2,30.23,WSW,246,0.0,17.6,67,0.00,,---,0.00,VWS V14.01,2013-03-17 02:25:00,
2013-03-16 22:26:00,65.3,54.1,30.23,WSW,246,0.0,17.6,67,0.00,,---,0.00,VWS V14.01,2013-03-17 02:26:00,
2013-03-16 22:27:00,65.5,54.3,30.23,WSW,246,0.0,17.6,67,0.00,,---,0.00,VWS V14.01,2013-03-17 02:27:00,
2013-03-16 22:28:00,65.3,54.2,30.23,WSW,246,0.0,17.6,67,0.00,,---,0.00,VWS V14.01,2013-03-17 02:28:00,
2013-03-16 22:29:00,65.1,54.0,30.23,WSW,246,0.0,17.6,67,0.00,,---,0.00,VWS V14.01,2013-03-17 02:29:00,
2013-03-16 22:30:00,65.2,54.1,30.23,WSW,246,0.0,17.6,67,0.00,,---,0.00,VWS V14.01,2013-03-17 02:30:00,
2013-03-16 22:31:00,65.1,54.1,30.23,WSW,246,0.0,17.6,68,0.00,,---,0.00,VWS V14.01,2013-03-17 02:31:00,
2013-03-16 22:32:00,65.0,54.0,30.23,WSW,246,0.0,17.6,68,0.00,,---,0.00,VWS V14.01,2013-03-17 02:32:00,
2013-03-16 22:33:00,65.0,54.0,30.23,WSW,246,0.0,17.6,68,0.00,,---,0.00,VWS V14.01,2013-03-17 02:33:00,
2013-03-16 22:34:00,64.8,53.9,30.23,WSW,246,0.0,17.6,68,0.00,,---,0.00,VWS V14.01,2013-03-17 02:34:00,
2013-03-16 22:35:00,65.0,54.1,30.23,WSW,246,0.0,17.6,68,0.00,,---,0.00,VWS V14.01,2013-03-17 02:35:00,
2013-03-16 22:36:00,64.7,53.9,30.23,WSW,246,0.0,17.6,68,0.00,,---,0.00,VWS V14.01,2013-03-17 02:36:00,
2013-03-16 22:37:00,64.7,53.9,30.24,WSW,246,0.0,17.6,68,0.00,,---,0.00,VWS V14.01,2013-03-17 02:37:00,
2013-03-16 22:38:00,64.7,54.0,30.23,WSW,246,0.0,17.6,68,0.00,,---,0.00,VWS V14.01,2013-03-17 02:38:00,
2013-03-16 22:39:00,64.6,53.9,30.24,WSW,246,0.0,17.6,68,0.00,,---,0.00,VWS V14.01,2013-03-17 02:39:00,
2013-03-16 22:40:00,64.6,53.9,30.23,WSW,246,0.0,17.6,68,0.00,,---,0.00,VWS V14.01,2013-03-17 02:40:00,
2013-03-16 22:41:00,64.4,53.7,30.23,WSW,246,0.0,17.6,68,0.00,,---,0.00,VWS V14.01,2013-03-17 02:41:00,
2013-03-16 22:42:00,64.3,53.7,30.23,WSW,246,0.0,17.6,68,0.00,,---,0.00,VWS V14.01,2013-03-17 02:42:00,
2013-03-16 22:43:00,64.5,53.9,30.23,WSW,246,0.0,17.6,68,0.00,,---,0.00,VWS V14.01,2013-03-17 02:43:00,
2013-03-16 22:44:00,64.1,53.5,30.23,WSW,246,0.0,17.6,68,0.00,,---,0.00,VWS V14.01,2013-03-17 02:44:00,
2013-03-16 22:45:00,64.3,53.8,30.23,WSW,246,0.0,17.6,69,0.00,,---,0.00,VWS V14.01,2013-03-17 02:45:00,
2013-03-16 22:46:00,64.2,53.7,30.23,WSW,246,0.0,17.6,69,0.00,,---,0.00,VWS V14.01,2013-03-17 02:46:00,
2013-03-16 22:47:00,64.3,53.8,30.23,WSW,246,0.0,17.6,69,0.00,,---,0.00,VWS V14.01,2013-03-17 02:47:00,
2013-03-16 22:48:00,64.2,53.8,30.23,WSW,246,0.0,17.6,69,0.00,,---,0.00,VWS V14.01,2013-03-17 02:48:00,
2013-03-16 22:49:00,64.1,53.7,30.23,WSW,246,0.0,17.6,69,0.00,,---,0.00,VWS V14.01,2013-03-17 02:49:00,
2013-03-16 22:50:00,64.1,53.8,30.23,WSW,246,0.0,17.6,69,0.00,,---,0.00,VWS V14.01,2013-03-17 02:50:00,
2013-03-16 22:51:00,63.9,53.6,30.23,WSW,246,0.0,17.6,69,0.00,,---,0.00,VWS V14.01,2013-03-17 02:51:00,
2013-03-16 22:52:00,64.0,53.7,30.23,WSW,246,0.0,17.6,69,0.00,,---,0.00,VWS V14.01,2013-03-17 02:52:00,
2013-03-16 22:53:00,64.0,53.8,30.23,WSW,246,0.0,17.6,69,0.00,,---,0.00,VWS V14.01,2013-03-17 02:53:00,
2013-03-16 22:54:00,63.9,53.7,30.23,WSW,246,0.0,17.6,69,0.00,,---,0.00,VWS V14.01,2013-03-17 02:54:00,
2013-03-16 22:55:00,63.9,53.7,30.23,WSW,246,0.0,17.6,69,0.00,,---,0.00,VWS V14.01,2013-03-17 02:55:00,
2013-03-16 22:56:00,64.0,53.8,30.23,WSW,246,0.0,17.6,70,0.00,,---,0.00,VWS V14.01,2013-03-17 02:56:00,
2013-03-16 22:57:00,63.7,53.5,30.23,WSW,246,0.0,17.6,70,0.00,,---,0.00,VWS V14.01,2013-03-17 02:57:00,
2013-03-16 22:58:00,63.8,53.7,30.23,WSW,246,0.0,17.6,70,0.00,,---,0.00,VWS V14.01,2013-03-17 02:58:00,
2013-03-16 22:59:00,63.8,53.7,30.23,WSW,246,0.0,17.6,70,0.00,,---,0.00,VWS V14.01,2013-03-17 02:59:00,
2013-03-16 23:00:00,63.8,53.8,30.23,WSW,246,0.0,17.6,70,0.00,,---,0.00,VWS V14.01,2013-03-17 03:00:00,
2013-03-16 23:01:00,63.7,53.8,30.23,WSW,246,0.0,17.6,70,0.00,,---,0.00,VWS V14.01,2013-03-17 03:01:00,
2013-03-16 23:02:00,63.7,53.8,30.23,WSW,246,0.0,17.6,70,0.00,,---,0.00,VWS V14.01,2013-03-17 03:02:00,
2013-03-16 23:03:00,63.8,53.9,30.23,WSW,246,0.0,17.6,70,0.00,,---,0.00,VWS V14.01,2013-03-17 03:03:00,
2013-03-16 23:04:00,63.6,53.7,30.23,WSW,246,0.0,17.6,70,0.00,,---,0.00,VWS V14.01,2013-03-17 03:04:00,
2013-03-16 23:05:00,63.7,53.7,30.23,WSW,246,0.0,17.6,70,0.00,,---,0.00,VWS V14.01,2013-03-17 03:05:00,
2013-03-16 23:06:00,63.6,53.7,30.23,WSW,246,0.0,17.6,70,0.00,,---,0.00,VWS V14.01,2013-03-17 03:06:00,
2013-03-16 23:07:00,63.6,53.7,30.23,WSW,246,0.0,17.6,70,0.00,,---,0.00,VWS V14.01,2013-03-17 03:07:00,
2013-03-16 23:08:00,63.8,53.8,30.23,WSW,246,0.0,17.6,70,0.00,,---,0.00,VWS V14.01,2013-03-17 03:08:00,
2013-03-16 23:09:00,63.8,53.9,30.23,WSW,246,0.0,17.6,70,0.00,,---,0.00,VWS V14.01,2013-03-17 03:09:00,
2013-03-16 23:10:00,63.7,53.8,30.23,WSW,246,0.0,17.6,70,0.00,,---,0.00,VWS V14.01,2013-03-17 03:10:00,
2013-03-16 23:11:00,63.6,53.7,30.23,WSW,246,0.0,17.6,70,0.00,,---,0.00,VWS V14.01,2013-03-17 03:11:00,
2013-03-16 23:12:00,63.6,53.7,30.23,WSW,246,0.0,17.6,70,0.00,,---,0.00,VWS V14.01,2013-03-17 03:12:00,
2013-03-16 23:13:00,63.6,53.7,30.23,WSW,246,0.0,17.6,70,0.00,,---,0.00,VWS V14.01,2013-03-17 03:13:00,
2013-03-16 23:14:00,63.6,53.7,30.23,WSW,246,0.0,17.6,70,0.00,,---,0.00,VWS V14.01,2013-03-17 03:14:00,